<?xml version="1.0" encoding="UTF-8" standalone="no" ?>
<gpx xmlns="http://www.topografix.com/GPX/1/1" xmlns:xsi="http://www.w3.org/2001/XMLSchema-instance" xsi:schemaLocation="http://www.topografix.com/GPX/1/1 http://www.topografix.com/GPX/1/1/gpx.xsd" version="1.1" creator="VisuGPX - https://www.visugpx.com">
  <metadata>
    <name>Boucle en Vallée des GAVES</name>
    <desc><![CDATA[Boucle au départ d'OSSEN dans la vallée des Gaves avecun passage par le BUALA.]]></desc>
  </metadata>
  <wpt lat="43.07605" lon="-0.07077">
    <ele>492.52</ele>
    <name><![CDATA[0000083]]></name>
    <type><![CDATA[Point de départ]]></type>
  </wpt>
  <wpt lat="43.076" lon="-0.07077">
    <ele>497.52</ele>
    <name><![CDATA[0000084]]></name>
    <desc><![CDATA[<p><br /><h3>Nom: Segment: 1</h3><br />Heure de départ: 06/23/2018 13:58<br/>Heure d'arrivée: 06/23/2018 17:10<br/>Distance: 48,3km (03:12)<br/>Temps déplacement: 02:51<br/>Vitesse moyenne: 15,1 km/h<br/>Vitesse moyenne mouv.: 16,91 km/h<br/>Vitesse Max.: 41,01 km/h<br/>Altitude minimale: 322 m<br/>Altitude maximale: 600 m<br/>Vitesse de montée: 681,9 m/h<br/>Vitesse de descente: -859,2 m/h<br/>Gain d'altitude: 1175 m<br/>Perte d'altitude: -1169 m<br/>Temps de montée: 01:43<br/>Temps de descente: 01:21<br/></p>]]></desc>
    <type><![CDATA[Point d'arrivée]]></type>
  </wpt>
  <trk>
    <name><![CDATA[2018-06-23 13:58]]></name>
    <desc><![CDATA[<p>Heure de départ: 06/23/2018 13:58<br/>Heure d'arrivée: 06/23/2018 17:10<br/>Distance: 48,3 km (03:12)<br/>Temps déplacement: 02:51<br/>Vitesse moyenne: 15,1 km/h<br/>Vitesse moyenne mouv.: 16,96 km/h<br/>Vitesse Max.: 41,01 km/h<br/>Altitude minimale: 322 m<br/>Altitude maximale: 600 m<br/>Vitesse de montée: 526,7 m/h<br/>Vitesse de descente: -668,8 m/h<br/>Gain d'altitude: 916 m<br/>Perte d'altitude: -914 m<br/>Temps de montée: 01:44<br/>Temps de descente: 01:22<br/></p><hr align="center" width="480" style="height: 2px; width: 517px"/>]]></desc>
    <trkseg>
      <trkpt lat="43.07605" lon="-0.07077">
        <ele>492.52</ele>
        <time>2018-06-23T11:58:25Z</time>
      </trkpt>
      <trkpt lat="43.07617" lon="-0.07057">
        <ele>492.91</ele>
        <time>2018-06-23T11:59:00Z</time>
      </trkpt>
      <trkpt lat="43.07605" lon="-0.07078">
        <ele>502.29</ele>
        <time>2018-06-23T12:01:08Z</time>
      </trkpt>
      <trkpt lat="43.07584" lon="-0.0708">
        <ele>504.81</ele>
        <time>2018-06-23T12:01:15Z</time>
      </trkpt>
      <trkpt lat="43.07566" lon="-0.07074">
        <ele>505.5</ele>
        <time>2018-06-23T12:01:18Z</time>
      </trkpt>
      <trkpt lat="43.07543" lon="-0.07065">
        <ele>505.52</ele>
        <time>2018-06-23T12:01:21Z</time>
      </trkpt>
      <trkpt lat="43.07522" lon="-0.07047">
        <ele>503.91</ele>
        <time>2018-06-23T12:01:24Z</time>
      </trkpt>
      <trkpt lat="43.07505" lon="-0.07035">
        <ele>502.86</ele>
        <time>2018-06-23T12:01:26Z</time>
      </trkpt>
      <trkpt lat="43.07486" lon="-0.07028">
        <ele>501.85</ele>
        <time>2018-06-23T12:01:28Z</time>
      </trkpt>
      <trkpt lat="43.07469" lon="-0.07019">
        <ele>500.85</ele>
        <time>2018-06-23T12:01:30Z</time>
      </trkpt>
      <trkpt lat="43.07455" lon="-0.07001">
        <ele>499.64</ele>
        <time>2018-06-23T12:01:32Z</time>
      </trkpt>
      <trkpt lat="43.07438" lon="-0.06981">
        <ele>500.16</ele>
        <time>2018-06-23T12:01:35Z</time>
      </trkpt>
      <trkpt lat="43.07423" lon="-0.06968">
        <ele>500.52</ele>
        <time>2018-06-23T12:01:40Z</time>
      </trkpt>
      <trkpt lat="43.07409" lon="-0.06946">
        <ele>500.52</ele>
        <time>2018-06-23T12:01:46Z</time>
      </trkpt>
      <trkpt lat="43.07396" lon="-0.06925">
        <ele>500.46</ele>
        <time>2018-06-23T12:01:52Z</time>
      </trkpt>
      <trkpt lat="43.07383" lon="-0.06906">
        <ele>500.52</ele>
        <time>2018-06-23T12:01:58Z</time>
      </trkpt>
      <trkpt lat="43.07373" lon="-0.06883">
        <ele>502.49</ele>
        <time>2018-06-23T12:02:04Z</time>
      </trkpt>
      <trkpt lat="43.07363" lon="-0.06861">
        <ele>503.52</ele>
        <time>2018-06-23T12:02:10Z</time>
      </trkpt>
      <trkpt lat="43.07349" lon="-0.06838">
        <ele>505.51</ele>
        <time>2018-06-23T12:02:16Z</time>
      </trkpt>
      <trkpt lat="43.07334" lon="-0.06821">
        <ele>507.22</ele>
        <time>2018-06-23T12:02:21Z</time>
      </trkpt>
      <trkpt lat="43.07314" lon="-0.06807">
        <ele>507.55</ele>
        <time>2018-06-23T12:02:26Z</time>
      </trkpt>
      <trkpt lat="43.07295" lon="-0.06803">
        <ele>506.52</ele>
        <time>2018-06-23T12:02:31Z</time>
      </trkpt>
      <trkpt lat="43.07277" lon="-0.06817">
        <ele>509.11</ele>
        <time>2018-06-23T12:02:35Z</time>
      </trkpt>
      <trkpt lat="43.07263" lon="-0.06834">
        <ele>511.19</ele>
        <time>2018-06-23T12:02:39Z</time>
      </trkpt>
      <trkpt lat="43.07244" lon="-0.06833">
        <ele>511.52</ele>
        <time>2018-06-23T12:02:44Z</time>
      </trkpt>
      <trkpt lat="43.07223" lon="-0.06824">
        <ele>511.52</ele>
        <time>2018-06-23T12:02:48Z</time>
      </trkpt>
      <trkpt lat="43.07205" lon="-0.06817">
        <ele>511.46</ele>
        <time>2018-06-23T12:02:51Z</time>
      </trkpt>
      <trkpt lat="43.07186" lon="-0.06813">
        <ele>511.58</ele>
        <time>2018-06-23T12:02:54Z</time>
      </trkpt>
      <trkpt lat="43.07166" lon="-0.06808">
        <ele>509.64</ele>
        <time>2018-06-23T12:02:57Z</time>
      </trkpt>
      <trkpt lat="43.07148" lon="-0.06794">
        <ele>508.55</ele>
        <time>2018-06-23T12:03:00Z</time>
      </trkpt>
      <trkpt lat="43.07133" lon="-0.06769">
        <ele>509.16</ele>
        <time>2018-06-23T12:03:03Z</time>
      </trkpt>
      <trkpt lat="43.07118" lon="-0.06747">
        <ele>510.42</ele>
        <time>2018-06-23T12:03:06Z</time>
      </trkpt>
      <trkpt lat="43.071" lon="-0.06731">
        <ele>510.73</ele>
        <time>2018-06-23T12:03:10Z</time>
      </trkpt>
      <trkpt lat="43.0708" lon="-0.0672">
        <ele>511.49</ele>
        <time>2018-06-23T12:03:15Z</time>
      </trkpt>
      <trkpt lat="43.07065" lon="-0.06705">
        <ele>512.22</ele>
        <time>2018-06-23T12:03:20Z</time>
      </trkpt>
      <trkpt lat="43.07077" lon="-0.06685">
        <ele>513.49</ele>
        <time>2018-06-23T12:03:25Z</time>
      </trkpt>
      <trkpt lat="43.07085" lon="-0.06659">
        <ele>514.52</ele>
        <time>2018-06-23T12:03:30Z</time>
      </trkpt>
      <trkpt lat="43.07079" lon="-0.06634">
        <ele>516.43</ele>
        <time>2018-06-23T12:03:35Z</time>
      </trkpt>
      <trkpt lat="43.07068" lon="-0.06612">
        <ele>516.22</ele>
        <time>2018-06-23T12:03:40Z</time>
      </trkpt>
      <trkpt lat="43.07048" lon="-0.06606">
        <ele>515.55</ele>
        <time>2018-06-23T12:03:45Z</time>
      </trkpt>
      <trkpt lat="43.07028" lon="-0.06605">
        <ele>516.52</ele>
        <time>2018-06-23T12:03:51Z</time>
      </trkpt>
      <trkpt lat="43.0701" lon="-0.06594">
        <ele>517.22</ele>
        <time>2018-06-23T12:03:57Z</time>
      </trkpt>
      <trkpt lat="43.07003" lon="-0.06571">
        <ele>515.55</ele>
        <time>2018-06-23T12:04:03Z</time>
      </trkpt>
      <trkpt lat="43.07016" lon="-0.06552">
        <ele>514.83</ele>
        <time>2018-06-23T12:04:08Z</time>
      </trkpt>
      <trkpt lat="43.0703" lon="-0.06536">
        <ele>513.82</ele>
        <time>2018-06-23T12:04:12Z</time>
      </trkpt>
      <trkpt lat="43.0705" lon="-0.06518">
        <ele>511.92</ele>
        <time>2018-06-23T12:04:15Z</time>
      </trkpt>
      <trkpt lat="43.07071" lon="-0.06497">
        <ele>508.95</ele>
        <time>2018-06-23T12:04:18Z</time>
      </trkpt>
      <trkpt lat="43.07091" lon="-0.06478">
        <ele>507.56</ele>
        <time>2018-06-23T12:04:21Z</time>
      </trkpt>
      <trkpt lat="43.07105" lon="-0.06455">
        <ele>507.73</ele>
        <time>2018-06-23T12:04:24Z</time>
      </trkpt>
      <trkpt lat="43.07126" lon="-0.06447">
        <ele>507.53</ele>
        <time>2018-06-23T12:04:27Z</time>
      </trkpt>
      <trkpt lat="43.07149" lon="-0.06445">
        <ele>504.94</ele>
        <time>2018-06-23T12:04:30Z</time>
      </trkpt>
      <trkpt lat="43.07173" lon="-0.06441">
        <ele>503.56</ele>
        <time>2018-06-23T12:04:33Z</time>
      </trkpt>
      <trkpt lat="43.07199" lon="-0.06442">
        <ele>502.55</ele>
        <time>2018-06-23T12:04:36Z</time>
      </trkpt>
      <trkpt lat="43.07222" lon="-0.06452">
        <ele>501.55</ele>
        <time>2018-06-23T12:04:39Z</time>
      </trkpt>
      <trkpt lat="43.07246" lon="-0.06467">
        <ele>499.85</ele>
        <time>2018-06-23T12:04:42Z</time>
      </trkpt>
      <trkpt lat="43.0727" lon="-0.06474">
        <ele>497.92</ele>
        <time>2018-06-23T12:04:45Z</time>
      </trkpt>
      <trkpt lat="43.07289" lon="-0.06464">
        <ele>495.86</ele>
        <time>2018-06-23T12:04:48Z</time>
      </trkpt>
      <trkpt lat="43.07293" lon="-0.06438">
        <ele>494.62</ele>
        <time>2018-06-23T12:04:51Z</time>
      </trkpt>
      <trkpt lat="43.07295" lon="-0.06412">
        <ele>490.27</ele>
        <time>2018-06-23T12:04:56Z</time>
      </trkpt>
      <trkpt lat="43.07299" lon="-0.06386">
        <ele>486.25</ele>
        <time>2018-06-23T12:05:00Z</time>
      </trkpt>
      <trkpt lat="43.07301" lon="-0.06357">
        <ele>483.64</ele>
        <time>2018-06-23T12:05:04Z</time>
      </trkpt>
      <trkpt lat="43.07302" lon="-0.06332">
        <ele>481.61</ele>
        <time>2018-06-23T12:05:09Z</time>
      </trkpt>
      <trkpt lat="43.07298" lon="-0.06303">
        <ele>479.55</ele>
        <time>2018-06-23T12:05:14Z</time>
      </trkpt>
      <trkpt lat="43.073" lon="-0.06276">
        <ele>477.83</ele>
        <time>2018-06-23T12:05:18Z</time>
      </trkpt>
      <trkpt lat="43.07303" lon="-0.06252">
        <ele>477.52</ele>
        <time>2018-06-23T12:05:22Z</time>
      </trkpt>
      <trkpt lat="43.07308" lon="-0.06224">
        <ele>477.52</ele>
        <time>2018-06-23T12:05:27Z</time>
      </trkpt>
      <trkpt lat="43.07311" lon="-0.06199">
        <ele>478.22</ele>
        <time>2018-06-23T12:05:31Z</time>
      </trkpt>
      <trkpt lat="43.07315" lon="-0.06168">
        <ele>476.56</ele>
        <time>2018-06-23T12:05:36Z</time>
      </trkpt>
      <trkpt lat="43.0732" lon="-0.06144">
        <ele>475.82</ele>
        <time>2018-06-23T12:05:40Z</time>
      </trkpt>
      <trkpt lat="43.07327" lon="-0.06119">
        <ele>475.52</ele>
        <time>2018-06-23T12:05:45Z</time>
      </trkpt>
      <trkpt lat="43.07334" lon="-0.06091">
        <ele>475.52</ele>
        <time>2018-06-23T12:05:50Z</time>
      </trkpt>
      <trkpt lat="43.07344" lon="-0.06069">
        <ele>474.55</ele>
        <time>2018-06-23T12:05:54Z</time>
      </trkpt>
      <trkpt lat="43.07356" lon="-0.06048">
        <ele>475.45</ele>
        <time>2018-06-23T12:05:58Z</time>
      </trkpt>
      <trkpt lat="43.07367" lon="-0.06028">
        <ele>476.22</ele>
        <time>2018-06-23T12:06:02Z</time>
      </trkpt>
      <trkpt lat="43.07379" lon="-0.06004">
        <ele>476.52</ele>
        <time>2018-06-23T12:06:07Z</time>
      </trkpt>
      <trkpt lat="43.07391" lon="-0.05978">
        <ele>476.52</ele>
        <time>2018-06-23T12:06:12Z</time>
      </trkpt>
      <trkpt lat="43.07406" lon="-0.05964">
        <ele>478.22</ele>
        <time>2018-06-23T12:06:18Z</time>
      </trkpt>
      <trkpt lat="43.07421" lon="-0.05946">
        <ele>477.31</ele>
        <time>2018-06-23T12:06:23Z</time>
      </trkpt>
      <trkpt lat="43.07439" lon="-0.05928">
        <ele>476.55</ele>
        <time>2018-06-23T12:06:28Z</time>
      </trkpt>
      <trkpt lat="43.07458" lon="-0.05914">
        <ele>475.61</ele>
        <time>2018-06-23T12:06:32Z</time>
      </trkpt>
      <trkpt lat="43.07478" lon="-0.059">
        <ele>473.15</ele>
        <time>2018-06-23T12:06:37Z</time>
      </trkpt>
      <trkpt lat="43.07497" lon="-0.05884">
        <ele>471.55</ele>
        <time>2018-06-23T12:06:42Z</time>
      </trkpt>
      <trkpt lat="43.07515" lon="-0.05872">
        <ele>469.85</ele>
        <time>2018-06-23T12:06:46Z</time>
      </trkpt>
      <trkpt lat="43.07531" lon="-0.05855">
        <ele>469.61</ele>
        <time>2018-06-23T12:06:51Z</time>
      </trkpt>
      <trkpt lat="43.07536" lon="-0.05829">
        <ele>468.61</ele>
        <time>2018-06-23T12:06:57Z</time>
      </trkpt>
      <trkpt lat="43.07547" lon="-0.05809">
        <ele>466.82</ele>
        <time>2018-06-23T12:07:04Z</time>
      </trkpt>
      <trkpt lat="43.07542" lon="-0.05784">
        <ele>463.62</ele>
        <time>2018-06-23T12:07:12Z</time>
      </trkpt>
      <trkpt lat="43.07562" lon="-0.05776">
        <ele>460.94</ele>
        <time>2018-06-23T12:07:17Z</time>
      </trkpt>
      <trkpt lat="43.07582" lon="-0.05769">
        <ele>459.62</ele>
        <time>2018-06-23T12:07:20Z</time>
      </trkpt>
      <trkpt lat="43.07599" lon="-0.05756">
        <ele>458.82</ele>
        <time>2018-06-23T12:07:23Z</time>
      </trkpt>
      <trkpt lat="43.07617" lon="-0.05741">
        <ele>458.53</ele>
        <time>2018-06-23T12:07:26Z</time>
      </trkpt>
      <trkpt lat="43.07637" lon="-0.05729">
        <ele>457.53</ele>
        <time>2018-06-23T12:07:30Z</time>
      </trkpt>
      <trkpt lat="43.07653" lon="-0.05709">
        <ele>458.43</ele>
        <time>2018-06-23T12:07:34Z</time>
      </trkpt>
      <trkpt lat="43.07667" lon="-0.05689">
        <ele>457.53</ele>
        <time>2018-06-23T12:07:39Z</time>
      </trkpt>
      <trkpt lat="43.07678" lon="-0.05668">
        <ele>456.55</ele>
        <time>2018-06-23T12:07:43Z</time>
      </trkpt>
      <trkpt lat="43.07688" lon="-0.05647">
        <ele>456.52</ele>
        <time>2018-06-23T12:07:47Z</time>
      </trkpt>
      <trkpt lat="43.077" lon="-0.05622">
        <ele>455.61</ele>
        <time>2018-06-23T12:07:51Z</time>
      </trkpt>
      <trkpt lat="43.07711" lon="-0.05595">
        <ele>453.62</ele>
        <time>2018-06-23T12:07:55Z</time>
      </trkpt>
      <trkpt lat="43.0771" lon="-0.05569">
        <ele>451.62</ele>
        <time>2018-06-23T12:07:59Z</time>
      </trkpt>
      <trkpt lat="43.07698" lon="-0.05543">
        <ele>448.94</ele>
        <time>2018-06-23T12:08:02Z</time>
      </trkpt>
      <trkpt lat="43.07684" lon="-0.05519">
        <ele>445.95</ele>
        <time>2018-06-23T12:08:05Z</time>
      </trkpt>
      <trkpt lat="43.07671" lon="-0.05495">
        <ele>443.86</ele>
        <time>2018-06-23T12:08:08Z</time>
      </trkpt>
      <trkpt lat="43.07657" lon="-0.05469">
        <ele>441.86</ele>
        <time>2018-06-23T12:08:11Z</time>
      </trkpt>
      <trkpt lat="43.07645" lon="-0.0544">
        <ele>438.95</ele>
        <time>2018-06-23T12:08:14Z</time>
      </trkpt>
      <trkpt lat="43.07632" lon="-0.05412">
        <ele>435.95</ele>
        <time>2018-06-23T12:08:17Z</time>
      </trkpt>
      <trkpt lat="43.07622" lon="-0.05388">
        <ele>433.65</ele>
        <time>2018-06-23T12:08:20Z</time>
      </trkpt>
      <trkpt lat="43.07605" lon="-0.0537">
        <ele>432.55</ele>
        <time>2018-06-23T12:08:24Z</time>
      </trkpt>
      <trkpt lat="43.07591" lon="-0.05346">
        <ele>430.83</ele>
        <time>2018-06-23T12:08:28Z</time>
      </trkpt>
      <trkpt lat="43.07583" lon="-0.05316">
        <ele>427.95</ele>
        <time>2018-06-23T12:08:31Z</time>
      </trkpt>
      <trkpt lat="43.07574" lon="-0.05294">
        <ele>425.04</ele>
        <time>2018-06-23T12:08:33Z</time>
      </trkpt>
      <trkpt lat="43.07561" lon="-0.0527">
        <ele>422.86</ele>
        <time>2018-06-23T12:08:36Z</time>
      </trkpt>
      <trkpt lat="43.07551" lon="-0.05247">
        <ele>421.62</ele>
        <time>2018-06-23T12:08:39Z</time>
      </trkpt>
      <trkpt lat="43.07549" lon="-0.05219">
        <ele>421.52</ele>
        <time>2018-06-23T12:08:43Z</time>
      </trkpt>
      <trkpt lat="43.07548" lon="-0.05194">
        <ele>421.52</ele>
        <time>2018-06-23T12:08:47Z</time>
      </trkpt>
      <trkpt lat="43.07549" lon="-0.05167">
        <ele>421.52</ele>
        <time>2018-06-23T12:08:51Z</time>
      </trkpt>
      <trkpt lat="43.0755" lon="-0.0514">
        <ele>422.22</ele>
        <time>2018-06-23T12:08:55Z</time>
      </trkpt>
      <trkpt lat="43.07555" lon="-0.05114">
        <ele>424.42</ele>
        <time>2018-06-23T12:09:01Z</time>
      </trkpt>
      <trkpt lat="43.07568" lon="-0.05095">
        <ele>424.52</ele>
        <time>2018-06-23T12:09:06Z</time>
      </trkpt>
      <trkpt lat="43.07581" lon="-0.05072">
        <ele>426.22</ele>
        <time>2018-06-23T12:09:11Z</time>
      </trkpt>
      <trkpt lat="43.07586" lon="-0.05046">
        <ele>426.52</ele>
        <time>2018-06-23T12:09:15Z</time>
      </trkpt>
      <trkpt lat="43.0759" lon="-0.05018">
        <ele>426.5</ele>
        <time>2018-06-23T12:09:20Z</time>
      </trkpt>
      <trkpt lat="43.07596" lon="-0.04992">
        <ele>427.52</ele>
        <time>2018-06-23T12:09:25Z</time>
      </trkpt>
      <trkpt lat="43.07608" lon="-0.04967">
        <ele>430.21</ele>
        <time>2018-06-23T12:09:31Z</time>
      </trkpt>
      <trkpt lat="43.07622" lon="-0.04945">
        <ele>431.43</ele>
        <time>2018-06-23T12:09:35Z</time>
      </trkpt>
      <trkpt lat="43.07635" lon="-0.04928">
        <ele>429.85</ele>
        <time>2018-06-23T12:09:39Z</time>
      </trkpt>
      <trkpt lat="43.07654" lon="-0.04917">
        <ele>429.46</ele>
        <time>2018-06-23T12:09:43Z</time>
      </trkpt>
      <trkpt lat="43.07669" lon="-0.04901">
        <ele>429.52</ele>
        <time>2018-06-23T12:09:46Z</time>
      </trkpt>
      <trkpt lat="43.07684" lon="-0.04884">
        <ele>428.82</ele>
        <time>2018-06-23T12:09:49Z</time>
      </trkpt>
      <trkpt lat="43.07691" lon="-0.04861">
        <ele>426.71</ele>
        <time>2018-06-23T12:09:52Z</time>
      </trkpt>
      <trkpt lat="43.07688" lon="-0.0489">
        <ele>421.92</ele>
        <time>2018-06-23T12:10:02Z</time>
      </trkpt>
      <trkpt lat="43.07687" lon="-0.04922">
        <ele>418.92</ele>
        <time>2018-06-23T12:10:06Z</time>
      </trkpt>
      <trkpt lat="43.0769" lon="-0.04951">
        <ele>415.94</ele>
        <time>2018-06-23T12:10:10Z</time>
      </trkpt>
      <trkpt lat="43.077" lon="-0.04973">
        <ele>412.56</ele>
        <time>2018-06-23T12:10:15Z</time>
      </trkpt>
      <trkpt lat="43.07711" lon="-0.04994">
        <ele>413.5</ele>
        <time>2018-06-23T12:10:19Z</time>
      </trkpt>
      <trkpt lat="43.07726" lon="-0.05009">
        <ele>414.51</ele>
        <time>2018-06-23T12:10:23Z</time>
      </trkpt>
      <trkpt lat="43.07747" lon="-0.05016">
        <ele>412.91</ele>
        <time>2018-06-23T12:10:28Z</time>
      </trkpt>
      <trkpt lat="43.07767" lon="-0.05022">
        <ele>410.83</ele>
        <time>2018-06-23T12:10:33Z</time>
      </trkpt>
      <trkpt lat="43.07787" lon="-0.05033">
        <ele>410.52</ele>
        <time>2018-06-23T12:12:27Z</time>
      </trkpt>
      <trkpt lat="43.078" lon="-0.05054">
        <ele>410.22</ele>
        <time>2018-06-23T12:12:32Z</time>
      </trkpt>
      <trkpt lat="43.07811" lon="-0.05078">
        <ele>411.51</ele>
        <time>2018-06-23T12:12:37Z</time>
      </trkpt>
      <trkpt lat="43.07821" lon="-0.05101">
        <ele>413.22</ele>
        <time>2018-06-23T12:12:43Z</time>
      </trkpt>
      <trkpt lat="43.07837" lon="-0.05118">
        <ele>413.52</ele>
        <time>2018-06-23T12:12:49Z</time>
      </trkpt>
      <trkpt lat="43.07855" lon="-0.05125">
        <ele>414.51</ele>
        <time>2018-06-23T12:12:55Z</time>
      </trkpt>
      <trkpt lat="43.07874" lon="-0.05132">
        <ele>417.42</ele>
        <time>2018-06-23T12:13:01Z</time>
      </trkpt>
      <trkpt lat="43.07894" lon="-0.05135">
        <ele>418.52</ele>
        <time>2018-06-23T12:13:07Z</time>
      </trkpt>
      <trkpt lat="43.07912" lon="-0.05132">
        <ele>419.22</ele>
        <time>2018-06-23T12:13:13Z</time>
      </trkpt>
      <trkpt lat="43.07932" lon="-0.05128">
        <ele>418.52</ele>
        <time>2018-06-23T12:13:19Z</time>
      </trkpt>
      <trkpt lat="43.0795" lon="-0.05117">
        <ele>420.49</ele>
        <time>2018-06-23T12:13:25Z</time>
      </trkpt>
      <trkpt lat="43.07971" lon="-0.05124">
        <ele>420.52</ele>
        <time>2018-06-23T12:13:31Z</time>
      </trkpt>
      <trkpt lat="43.07987" lon="-0.05139">
        <ele>420.52</ele>
        <time>2018-06-23T12:13:37Z</time>
      </trkpt>
      <trkpt lat="43.08003" lon="-0.05153">
        <ele>421.22</ele>
        <time>2018-06-23T12:13:44Z</time>
      </trkpt>
      <trkpt lat="43.08022" lon="-0.05164">
        <ele>420.59</ele>
        <time>2018-06-23T12:13:50Z</time>
      </trkpt>
      <trkpt lat="43.08041" lon="-0.05154">
        <ele>420.52</ele>
        <time>2018-06-23T12:13:57Z</time>
      </trkpt>
      <trkpt lat="43.08059" lon="-0.05144">
        <ele>421.22</ele>
        <time>2018-06-23T12:14:03Z</time>
      </trkpt>
      <trkpt lat="43.08078" lon="-0.05137">
        <ele>421.52</ele>
        <time>2018-06-23T12:14:08Z</time>
      </trkpt>
      <trkpt lat="43.08099" lon="-0.05134">
        <ele>422.51</ele>
        <time>2018-06-23T12:14:14Z</time>
      </trkpt>
      <trkpt lat="43.08115" lon="-0.05144">
        <ele>423.43</ele>
        <time>2018-06-23T12:14:22Z</time>
      </trkpt>
      <trkpt lat="43.08123" lon="-0.05167">
        <ele>422.55</ele>
        <time>2018-06-23T12:14:28Z</time>
      </trkpt>
      <trkpt lat="43.08131" lon="-0.0519">
        <ele>422.81</ele>
        <time>2018-06-23T12:14:32Z</time>
      </trkpt>
      <trkpt lat="43.08143" lon="-0.05211">
        <ele>422.53</ele>
        <time>2018-06-23T12:14:35Z</time>
      </trkpt>
      <trkpt lat="43.08154" lon="-0.05231">
        <ele>423.5</ele>
        <time>2018-06-23T12:14:38Z</time>
      </trkpt>
      <trkpt lat="43.0817" lon="-0.0525">
        <ele>423.52</ele>
        <time>2018-06-23T12:14:43Z</time>
      </trkpt>
      <trkpt lat="43.08188" lon="-0.05252">
        <ele>423.52</ele>
        <time>2018-06-23T12:14:48Z</time>
      </trkpt>
      <trkpt lat="43.08207" lon="-0.05244">
        <ele>422.52</ele>
        <time>2018-06-23T12:14:54Z</time>
      </trkpt>
      <trkpt lat="43.08226" lon="-0.05236">
        <ele>420.82</ele>
        <time>2018-06-23T12:15:01Z</time>
      </trkpt>
      <trkpt lat="43.08245" lon="-0.0524">
        <ele>420.61</ele>
        <time>2018-06-23T12:15:07Z</time>
      </trkpt>
      <trkpt lat="43.08263" lon="-0.05241">
        <ele>416.83</ele>
        <time>2018-06-23T12:15:13Z</time>
      </trkpt>
      <trkpt lat="43.08281" lon="-0.05252">
        <ele>413.61</ele>
        <time>2018-06-23T12:15:29Z</time>
      </trkpt>
      <trkpt lat="43.083" lon="-0.05241">
        <ele>412.82</ele>
        <time>2018-06-23T12:15:39Z</time>
      </trkpt>
      <trkpt lat="43.08319" lon="-0.05229">
        <ele>411.53</ele>
        <time>2018-06-23T12:15:44Z</time>
      </trkpt>
      <trkpt lat="43.08337" lon="-0.0522">
        <ele>412.22</ele>
        <time>2018-06-23T12:15:49Z</time>
      </trkpt>
      <trkpt lat="43.08355" lon="-0.0521">
        <ele>412.52</ele>
        <time>2018-06-23T12:15:56Z</time>
      </trkpt>
      <trkpt lat="43.08368" lon="-0.05189">
        <ele>405.55</ele>
        <time>2018-06-23T12:16:14Z</time>
      </trkpt>
      <trkpt lat="43.08383" lon="-0.05175">
        <ele>401.61</ele>
        <time>2018-06-23T12:16:33Z</time>
      </trkpt>
      <trkpt lat="43.08392" lon="-0.0515">
        <ele>393.55</ele>
        <time>2018-06-23T12:16:58Z</time>
      </trkpt>
      <trkpt lat="43.08408" lon="-0.05134">
        <ele>391.61</ele>
        <time>2018-06-23T12:17:03Z</time>
      </trkpt>
      <trkpt lat="43.08425" lon="-0.05124">
        <ele>390.55</ele>
        <time>2018-06-23T12:17:07Z</time>
      </trkpt>
      <trkpt lat="43.08444" lon="-0.05115">
        <ele>387.86</ele>
        <time>2018-06-23T12:17:11Z</time>
      </trkpt>
      <trkpt lat="43.08461" lon="-0.05109">
        <ele>387.52</ele>
        <time>2018-06-23T12:17:15Z</time>
      </trkpt>
      <trkpt lat="43.0848" lon="-0.05102">
        <ele>386.52</ele>
        <time>2018-06-23T12:17:20Z</time>
      </trkpt>
      <trkpt lat="43.08497" lon="-0.05091">
        <ele>388.21</ele>
        <time>2018-06-23T12:17:25Z</time>
      </trkpt>
      <trkpt lat="43.08517" lon="-0.05082">
        <ele>388.52</ele>
        <time>2018-06-23T12:17:31Z</time>
      </trkpt>
      <trkpt lat="43.08535" lon="-0.05074">
        <ele>389.52</ele>
        <time>2018-06-23T12:17:53Z</time>
      </trkpt>
      <trkpt lat="43.08553" lon="-0.05062">
        <ele>388.52</ele>
        <time>2018-06-23T12:17:58Z</time>
      </trkpt>
      <trkpt lat="43.08571" lon="-0.05052">
        <ele>388.59</ele>
        <time>2018-06-23T12:18:02Z</time>
      </trkpt>
      <trkpt lat="43.08587" lon="-0.0504">
        <ele>388.54</ele>
        <time>2018-06-23T12:18:06Z</time>
      </trkpt>
      <trkpt lat="43.08606" lon="-0.05032">
        <ele>386.61</ele>
        <time>2018-06-23T12:18:11Z</time>
      </trkpt>
      <trkpt lat="43.08627" lon="-0.05044">
        <ele>387.22</ele>
        <time>2018-06-23T12:18:16Z</time>
      </trkpt>
      <trkpt lat="43.08649" lon="-0.05051">
        <ele>386.61</ele>
        <time>2018-06-23T12:18:20Z</time>
      </trkpt>
      <trkpt lat="43.08669" lon="-0.05051">
        <ele>386.46</ele>
        <time>2018-06-23T12:18:24Z</time>
      </trkpt>
      <trkpt lat="43.08688" lon="-0.05051">
        <ele>386.52</ele>
        <time>2018-06-23T12:18:31Z</time>
      </trkpt>
      <trkpt lat="43.08704" lon="-0.0506">
        <ele>387.51</ele>
        <time>2018-06-23T12:18:38Z</time>
      </trkpt>
      <trkpt lat="43.08722" lon="-0.05074">
        <ele>386.52</ele>
        <time>2018-06-23T12:18:44Z</time>
      </trkpt>
      <trkpt lat="43.08739" lon="-0.05091">
        <ele>387.51</ele>
        <time>2018-06-23T12:18:49Z</time>
      </trkpt>
      <trkpt lat="43.08755" lon="-0.05103">
        <ele>388.5</ele>
        <time>2018-06-23T12:18:54Z</time>
      </trkpt>
      <trkpt lat="43.08768" lon="-0.05121">
        <ele>388.73</ele>
        <time>2018-06-23T12:18:58Z</time>
      </trkpt>
      <trkpt lat="43.08784" lon="-0.05135">
        <ele>386.85</ele>
        <time>2018-06-23T12:19:02Z</time>
      </trkpt>
      <trkpt lat="43.08799" lon="-0.05156">
        <ele>385.53</ele>
        <time>2018-06-23T12:19:07Z</time>
      </trkpt>
      <trkpt lat="43.08807" lon="-0.0518">
        <ele>386.22</ele>
        <time>2018-06-23T12:19:11Z</time>
      </trkpt>
      <trkpt lat="43.08813" lon="-0.05206">
        <ele>386.52</ele>
        <time>2018-06-23T12:19:15Z</time>
      </trkpt>
      <trkpt lat="43.08821" lon="-0.05232">
        <ele>387.22</ele>
        <time>2018-06-23T12:19:19Z</time>
      </trkpt>
      <trkpt lat="43.08836" lon="-0.05254">
        <ele>387.31</ele>
        <time>2018-06-23T12:19:23Z</time>
      </trkpt>
      <trkpt lat="43.0885" lon="-0.05275">
        <ele>387.52</ele>
        <time>2018-06-23T12:19:27Z</time>
      </trkpt>
      <trkpt lat="43.08868" lon="-0.0529">
        <ele>386.61</ele>
        <time>2018-06-23T12:19:31Z</time>
      </trkpt>
      <trkpt lat="43.08888" lon="-0.05301">
        <ele>383.94</ele>
        <time>2018-06-23T12:19:35Z</time>
      </trkpt>
      <trkpt lat="43.08904" lon="-0.05317">
        <ele>381.56</ele>
        <time>2018-06-23T12:19:39Z</time>
      </trkpt>
      <trkpt lat="43.08922" lon="-0.05326">
        <ele>380.82</ele>
        <time>2018-06-23T12:19:48Z</time>
      </trkpt>
      <trkpt lat="43.08944" lon="-0.05321">
        <ele>378.34</ele>
        <time>2018-06-23T12:19:52Z</time>
      </trkpt>
      <trkpt lat="43.08961" lon="-0.05311">
        <ele>377.23</ele>
        <time>2018-06-23T12:19:57Z</time>
      </trkpt>
      <trkpt lat="43.08967" lon="-0.05284">
        <ele>378.51</ele>
        <time>2018-06-23T12:20:04Z</time>
      </trkpt>
      <trkpt lat="43.08958" lon="-0.05256">
        <ele>380.19</ele>
        <time>2018-06-23T12:20:09Z</time>
      </trkpt>
      <trkpt lat="43.0895" lon="-0.05232">
        <ele>381.43</ele>
        <time>2018-06-23T12:20:13Z</time>
      </trkpt>
      <trkpt lat="43.08941" lon="-0.05208">
        <ele>382.43</ele>
        <time>2018-06-23T12:20:17Z</time>
      </trkpt>
      <trkpt lat="43.08934" lon="-0.0518">
        <ele>382.52</ele>
        <time>2018-06-23T12:20:22Z</time>
      </trkpt>
      <trkpt lat="43.08929" lon="-0.05155">
        <ele>381.82</ele>
        <time>2018-06-23T12:20:26Z</time>
      </trkpt>
      <trkpt lat="43.08923" lon="-0.05131">
        <ele>380.55</ele>
        <time>2018-06-23T12:20:30Z</time>
      </trkpt>
      <trkpt lat="43.08916" lon="-0.05107">
        <ele>379.52</ele>
        <time>2018-06-23T12:20:35Z</time>
      </trkpt>
      <trkpt lat="43.08911" lon="-0.05077">
        <ele>380.52</ele>
        <time>2018-06-23T12:20:43Z</time>
      </trkpt>
      <trkpt lat="43.08902" lon="-0.05052">
        <ele>379.53</ele>
        <time>2018-06-23T12:20:48Z</time>
      </trkpt>
      <trkpt lat="43.08896" lon="-0.05025">
        <ele>377.82</ele>
        <time>2018-06-23T12:20:53Z</time>
      </trkpt>
      <trkpt lat="43.0889" lon="-0.05002">
        <ele>378.43</ele>
        <time>2018-06-23T12:20:58Z</time>
      </trkpt>
      <trkpt lat="43.08888" lon="-0.04976">
        <ele>379.43</ele>
        <time>2018-06-23T12:21:03Z</time>
      </trkpt>
      <trkpt lat="43.08889" lon="-0.04949">
        <ele>380.51</ele>
        <time>2018-06-23T12:21:09Z</time>
      </trkpt>
      <trkpt lat="43.08876" lon="-0.04931">
        <ele>381.41</ele>
        <time>2018-06-23T12:21:15Z</time>
      </trkpt>
      <trkpt lat="43.08856" lon="-0.04918">
        <ele>383.15</ele>
        <time>2018-06-23T12:21:19Z</time>
      </trkpt>
      <trkpt lat="43.08837" lon="-0.04908">
        <ele>383.51</ele>
        <time>2018-06-23T12:21:22Z</time>
      </trkpt>
      <trkpt lat="43.08817" lon="-0.04901">
        <ele>385.13</ele>
        <time>2018-06-23T12:21:25Z</time>
      </trkpt>
      <trkpt lat="43.08798" lon="-0.04891">
        <ele>385.24</ele>
        <time>2018-06-23T12:21:28Z</time>
      </trkpt>
      <trkpt lat="43.08778" lon="-0.04881">
        <ele>382.93</ele>
        <time>2018-06-23T12:21:31Z</time>
      </trkpt>
      <trkpt lat="43.08755" lon="-0.04873">
        <ele>381.62</ele>
        <time>2018-06-23T12:21:34Z</time>
      </trkpt>
      <trkpt lat="43.08732" lon="-0.04865">
        <ele>380.82</ele>
        <time>2018-06-23T12:21:37Z</time>
      </trkpt>
      <trkpt lat="43.08711" lon="-0.0486">
        <ele>378.65</ele>
        <time>2018-06-23T12:21:40Z</time>
      </trkpt>
      <trkpt lat="43.08689" lon="-0.0485">
        <ele>379.5</ele>
        <time>2018-06-23T12:21:44Z</time>
      </trkpt>
      <trkpt lat="43.08671" lon="-0.0484">
        <ele>378.55</ele>
        <time>2018-06-23T12:21:47Z</time>
      </trkpt>
      <trkpt lat="43.08653" lon="-0.04834">
        <ele>379.22</ele>
        <time>2018-06-23T12:21:50Z</time>
      </trkpt>
      <trkpt lat="43.08635" lon="-0.04828">
        <ele>380.49</ele>
        <time>2018-06-23T12:21:53Z</time>
      </trkpt>
      <trkpt lat="43.08618" lon="-0.0482">
        <ele>381.43</ele>
        <time>2018-06-23T12:21:56Z</time>
      </trkpt>
      <trkpt lat="43.08595" lon="-0.04813">
        <ele>382.24</ele>
        <time>2018-06-23T12:22:00Z</time>
      </trkpt>
      <trkpt lat="43.08576" lon="-0.04806">
        <ele>382.24</ele>
        <time>2018-06-23T12:22:03Z</time>
      </trkpt>
      <trkpt lat="43.08554" lon="-0.04799">
        <ele>383.14</ele>
        <time>2018-06-23T12:22:07Z</time>
      </trkpt>
      <trkpt lat="43.08531" lon="-0.04792">
        <ele>385.48</ele>
        <time>2018-06-23T12:22:11Z</time>
      </trkpt>
      <trkpt lat="43.08509" lon="-0.04785">
        <ele>386.14</ele>
        <time>2018-06-23T12:22:15Z</time>
      </trkpt>
      <trkpt lat="43.08487" lon="-0.04777">
        <ele>386.46</ele>
        <time>2018-06-23T12:22:19Z</time>
      </trkpt>
      <trkpt lat="43.0847" lon="-0.04769">
        <ele>386.52</ele>
        <time>2018-06-23T12:22:22Z</time>
      </trkpt>
      <trkpt lat="43.08454" lon="-0.04758">
        <ele>387.43</ele>
        <time>2018-06-23T12:22:25Z</time>
      </trkpt>
      <trkpt lat="43.08434" lon="-0.04746">
        <ele>387.52</ele>
        <time>2018-06-23T12:22:28Z</time>
      </trkpt>
      <trkpt lat="43.08415" lon="-0.04734">
        <ele>387.79</ele>
        <time>2018-06-23T12:22:31Z</time>
      </trkpt>
      <trkpt lat="43.08403" lon="-0.04713">
        <ele>388.54</ele>
        <time>2018-06-23T12:22:35Z</time>
      </trkpt>
      <trkpt lat="43.08391" lon="-0.04687">
        <ele>388.44</ele>
        <time>2018-06-23T12:22:39Z</time>
      </trkpt>
      <trkpt lat="43.08387" lon="-0.0466">
        <ele>388.52</ele>
        <time>2018-06-23T12:22:43Z</time>
      </trkpt>
      <trkpt lat="43.08386" lon="-0.04635">
        <ele>389.22</ele>
        <time>2018-06-23T12:22:47Z</time>
      </trkpt>
      <trkpt lat="43.08383" lon="-0.0461">
        <ele>390.51</ele>
        <time>2018-06-23T12:22:51Z</time>
      </trkpt>
      <trkpt lat="43.08375" lon="-0.04584">
        <ele>394.03</ele>
        <time>2018-06-23T12:22:56Z</time>
      </trkpt>
      <trkpt lat="43.08357" lon="-0.04581">
        <ele>395.83</ele>
        <time>2018-06-23T12:23:01Z</time>
      </trkpt>
      <trkpt lat="43.08336" lon="-0.04577">
        <ele>390.98</ele>
        <time>2018-06-23T12:23:05Z</time>
      </trkpt>
      <trkpt lat="43.08321" lon="-0.04562">
        <ele>390.53</ele>
        <time>2018-06-23T12:23:08Z</time>
      </trkpt>
      <trkpt lat="43.08309" lon="-0.04537">
        <ele>391.43</ele>
        <time>2018-06-23T12:23:11Z</time>
      </trkpt>
      <trkpt lat="43.08296" lon="-0.0451">
        <ele>391.52</ele>
        <time>2018-06-23T12:23:14Z</time>
      </trkpt>
      <trkpt lat="43.08279" lon="-0.04483">
        <ele>389.85</ele>
        <time>2018-06-23T12:23:17Z</time>
      </trkpt>
      <trkpt lat="43.08262" lon="-0.04464">
        <ele>387.01</ele>
        <time>2018-06-23T12:23:20Z</time>
      </trkpt>
      <trkpt lat="43.08246" lon="-0.04441">
        <ele>386.54</ele>
        <time>2018-06-23T12:23:23Z</time>
      </trkpt>
      <trkpt lat="43.08238" lon="-0.04415">
        <ele>387.5</ele>
        <time>2018-06-23T12:23:26Z</time>
      </trkpt>
      <trkpt lat="43.08228" lon="-0.0439">
        <ele>386.82</ele>
        <time>2018-06-23T12:23:29Z</time>
      </trkpt>
      <trkpt lat="43.08217" lon="-0.04365">
        <ele>384.92</ele>
        <time>2018-06-23T12:23:32Z</time>
      </trkpt>
      <trkpt lat="43.08205" lon="-0.04342">
        <ele>383.83</ele>
        <time>2018-06-23T12:23:35Z</time>
      </trkpt>
      <trkpt lat="43.08194" lon="-0.0432">
        <ele>381.16</ele>
        <time>2018-06-23T12:23:38Z</time>
      </trkpt>
      <trkpt lat="43.08181" lon="-0.04297">
        <ele>377.05</ele>
        <time>2018-06-23T12:23:41Z</time>
      </trkpt>
      <trkpt lat="43.08167" lon="-0.04275">
        <ele>373.04</ele>
        <time>2018-06-23T12:23:44Z</time>
      </trkpt>
      <trkpt lat="43.08154" lon="-0.04257">
        <ele>371.56</ele>
        <time>2018-06-23T12:23:47Z</time>
      </trkpt>
      <trkpt lat="43.08142" lon="-0.04238">
        <ele>369.21</ele>
        <time>2018-06-23T12:23:50Z</time>
      </trkpt>
      <trkpt lat="43.0813" lon="-0.04216">
        <ele>364.35</ele>
        <time>2018-06-23T12:23:53Z</time>
      </trkpt>
      <trkpt lat="43.08115" lon="-0.04195">
        <ele>359.99</ele>
        <time>2018-06-23T12:23:56Z</time>
      </trkpt>
      <trkpt lat="43.081" lon="-0.04176">
        <ele>356.25</ele>
        <time>2018-06-23T12:23:59Z</time>
      </trkpt>
      <trkpt lat="43.08085" lon="-0.04159">
        <ele>352.96</ele>
        <time>2018-06-23T12:24:02Z</time>
      </trkpt>
      <trkpt lat="43.08068" lon="-0.04144">
        <ele>349.89</ele>
        <time>2018-06-23T12:24:05Z</time>
      </trkpt>
      <trkpt lat="43.0805" lon="-0.04131">
        <ele>346.74</ele>
        <time>2018-06-23T12:24:08Z</time>
      </trkpt>
      <trkpt lat="43.08034" lon="-0.04117">
        <ele>344.64</ele>
        <time>2018-06-23T12:24:11Z</time>
      </trkpt>
      <trkpt lat="43.08017" lon="-0.04108">
        <ele>342.85</ele>
        <time>2018-06-23T12:24:14Z</time>
      </trkpt>
      <trkpt lat="43.07996" lon="-0.041">
        <ele>340.65</ele>
        <time>2018-06-23T12:24:17Z</time>
      </trkpt>
      <trkpt lat="43.07976" lon="-0.04094">
        <ele>338.92</ele>
        <time>2018-06-23T12:24:20Z</time>
      </trkpt>
      <trkpt lat="43.07954" lon="-0.04094">
        <ele>336.92</ele>
        <time>2018-06-23T12:24:23Z</time>
      </trkpt>
      <trkpt lat="43.07936" lon="-0.04089">
        <ele>334.92</ele>
        <time>2018-06-23T12:24:26Z</time>
      </trkpt>
      <trkpt lat="43.07917" lon="-0.04088">
        <ele>333.83</ele>
        <time>2018-06-23T12:24:29Z</time>
      </trkpt>
      <trkpt lat="43.07897" lon="-0.04085">
        <ele>332.62</ele>
        <time>2018-06-23T12:24:32Z</time>
      </trkpt>
      <trkpt lat="43.07877" lon="-0.04081">
        <ele>332.52</ele>
        <time>2018-06-23T12:24:35Z</time>
      </trkpt>
      <trkpt lat="43.07858" lon="-0.0408">
        <ele>330.85</ele>
        <time>2018-06-23T12:24:38Z</time>
      </trkpt>
      <trkpt lat="43.07836" lon="-0.04077">
        <ele>329.83</ele>
        <time>2018-06-23T12:24:41Z</time>
      </trkpt>
      <trkpt lat="43.07817" lon="-0.04073">
        <ele>329.53</ele>
        <time>2018-06-23T12:24:44Z</time>
      </trkpt>
      <trkpt lat="43.07796" lon="-0.04069">
        <ele>328.55</ele>
        <time>2018-06-23T12:24:47Z</time>
      </trkpt>
      <trkpt lat="43.07772" lon="-0.04068">
        <ele>329.43</ele>
        <time>2018-06-23T12:24:50Z</time>
      </trkpt>
      <trkpt lat="43.07749" lon="-0.04068">
        <ele>329.52</ele>
        <time>2018-06-23T12:24:53Z</time>
      </trkpt>
      <trkpt lat="43.07727" lon="-0.0407">
        <ele>329.52</ele>
        <time>2018-06-23T12:24:56Z</time>
      </trkpt>
      <trkpt lat="43.07704" lon="-0.04073">
        <ele>327.91</ele>
        <time>2018-06-23T12:24:59Z</time>
      </trkpt>
      <trkpt lat="43.07681" lon="-0.04075">
        <ele>326.62</ele>
        <time>2018-06-23T12:25:02Z</time>
      </trkpt>
      <trkpt lat="43.07657" lon="-0.04074">
        <ele>326.52</ele>
        <time>2018-06-23T12:25:05Z</time>
      </trkpt>
      <trkpt lat="43.07638" lon="-0.04076">
        <ele>328.62</ele>
        <time>2018-06-23T12:25:07Z</time>
      </trkpt>
      <trkpt lat="43.07613" lon="-0.04072">
        <ele>329.5</ele>
        <time>2018-06-23T12:25:10Z</time>
      </trkpt>
      <trkpt lat="43.0759" lon="-0.04067">
        <ele>330.43</ele>
        <time>2018-06-23T12:25:13Z</time>
      </trkpt>
      <trkpt lat="43.07568" lon="-0.04057">
        <ele>329.55</ele>
        <time>2018-06-23T12:25:16Z</time>
      </trkpt>
      <trkpt lat="43.07544" lon="-0.04047">
        <ele>329.8</ele>
        <time>2018-06-23T12:25:19Z</time>
      </trkpt>
      <trkpt lat="43.07521" lon="-0.04039">
        <ele>330.44</ele>
        <time>2018-06-23T12:25:22Z</time>
      </trkpt>
      <trkpt lat="43.07498" lon="-0.04026">
        <ele>329.55</ele>
        <time>2018-06-23T12:25:25Z</time>
      </trkpt>
      <trkpt lat="43.07475" lon="-0.04013">
        <ele>330.5</ele>
        <time>2018-06-23T12:25:28Z</time>
      </trkpt>
      <trkpt lat="43.07452" lon="-0.04001">
        <ele>330.52</ele>
        <time>2018-06-23T12:25:31Z</time>
      </trkpt>
      <trkpt lat="43.07428" lon="-0.03989">
        <ele>330.52</ele>
        <time>2018-06-23T12:25:34Z</time>
      </trkpt>
      <trkpt lat="43.07403" lon="-0.03978">
        <ele>328.85</ele>
        <time>2018-06-23T12:25:37Z</time>
      </trkpt>
      <trkpt lat="43.07379" lon="-0.0397">
        <ele>327.62</ele>
        <time>2018-06-23T12:25:40Z</time>
      </trkpt>
      <trkpt lat="43.07355" lon="-0.03965">
        <ele>326.82</ele>
        <time>2018-06-23T12:25:43Z</time>
      </trkpt>
      <trkpt lat="43.07329" lon="-0.03963">
        <ele>324.92</ele>
        <time>2018-06-23T12:25:46Z</time>
      </trkpt>
      <trkpt lat="43.07306" lon="-0.03961">
        <ele>324.53</ele>
        <time>2018-06-23T12:25:49Z</time>
      </trkpt>
      <trkpt lat="43.07283" lon="-0.03963">
        <ele>323.55</ele>
        <time>2018-06-23T12:25:52Z</time>
      </trkpt>
      <trkpt lat="43.07259" lon="-0.03966">
        <ele>322.55</ele>
        <time>2018-06-23T12:25:55Z</time>
      </trkpt>
      <trkpt lat="43.07235" lon="-0.03971">
        <ele>323.5</ele>
        <time>2018-06-23T12:25:58Z</time>
      </trkpt>
      <trkpt lat="43.07211" lon="-0.03975">
        <ele>324.22</ele>
        <time>2018-06-23T12:26:01Z</time>
      </trkpt>
      <trkpt lat="43.07188" lon="-0.03985">
        <ele>325.21</ele>
        <time>2018-06-23T12:26:04Z</time>
      </trkpt>
      <trkpt lat="43.07167" lon="-0.03994">
        <ele>326.42</ele>
        <time>2018-06-23T12:26:07Z</time>
      </trkpt>
      <trkpt lat="43.07146" lon="-0.04003">
        <ele>328.19</ele>
        <time>2018-06-23T12:26:10Z</time>
      </trkpt>
      <trkpt lat="43.07126" lon="-0.04011">
        <ele>330.19</ele>
        <time>2018-06-23T12:26:13Z</time>
      </trkpt>
      <trkpt lat="43.07105" lon="-0.04018">
        <ele>332.12</ele>
        <time>2018-06-23T12:26:16Z</time>
      </trkpt>
      <trkpt lat="43.07086" lon="-0.04022">
        <ele>332.72</ele>
        <time>2018-06-23T12:26:19Z</time>
      </trkpt>
      <trkpt lat="43.07069" lon="-0.04028">
        <ele>334.41</ele>
        <time>2018-06-23T12:26:22Z</time>
      </trkpt>
      <trkpt lat="43.0705" lon="-0.04033">
        <ele>334.73</ele>
        <time>2018-06-23T12:26:25Z</time>
      </trkpt>
      <trkpt lat="43.07031" lon="-0.0404">
        <ele>335.44</ele>
        <time>2018-06-23T12:26:28Z</time>
      </trkpt>
      <trkpt lat="43.07011" lon="-0.04041">
        <ele>335.73</ele>
        <time>2018-06-23T12:26:31Z</time>
      </trkpt>
      <trkpt lat="43.06993" lon="-0.04041">
        <ele>334.62</ele>
        <time>2018-06-23T12:26:34Z</time>
      </trkpt>
      <trkpt lat="43.06973" lon="-0.0404">
        <ele>333.55</ele>
        <time>2018-06-23T12:26:37Z</time>
      </trkpt>
      <trkpt lat="43.06949" lon="-0.04037">
        <ele>332.53</ele>
        <time>2018-06-23T12:26:41Z</time>
      </trkpt>
      <trkpt lat="43.0693" lon="-0.04036">
        <ele>332.46</ele>
        <time>2018-06-23T12:26:44Z</time>
      </trkpt>
      <trkpt lat="43.06909" lon="-0.04034">
        <ele>334.19</ele>
        <time>2018-06-23T12:26:47Z</time>
      </trkpt>
      <trkpt lat="43.0689" lon="-0.04026">
        <ele>333.6</ele>
        <time>2018-06-23T12:26:50Z</time>
      </trkpt>
      <trkpt lat="43.06868" lon="-0.04026">
        <ele>334.92</ele>
        <time>2018-06-23T12:26:53Z</time>
      </trkpt>
      <trkpt lat="43.06848" lon="-0.0402">
        <ele>334.87</ele>
        <time>2018-06-23T12:26:56Z</time>
      </trkpt>
      <trkpt lat="43.06826" lon="-0.04013">
        <ele>335.79</ele>
        <time>2018-06-23T12:27:00Z</time>
      </trkpt>
      <trkpt lat="43.06807" lon="-0.04008">
        <ele>335.53</ele>
        <time>2018-06-23T12:27:03Z</time>
      </trkpt>
      <trkpt lat="43.06788" lon="-0.04002">
        <ele>334.55</ele>
        <time>2018-06-23T12:27:06Z</time>
      </trkpt>
      <trkpt lat="43.0677" lon="-0.03996">
        <ele>334.52</ele>
        <time>2018-06-23T12:27:09Z</time>
      </trkpt>
      <trkpt lat="43.06752" lon="-0.03991">
        <ele>335.43</ele>
        <time>2018-06-23T12:27:12Z</time>
      </trkpt>
      <trkpt lat="43.06734" lon="-0.03985">
        <ele>335.52</ele>
        <time>2018-06-23T12:27:15Z</time>
      </trkpt>
      <trkpt lat="43.0671" lon="-0.03978">
        <ele>334.82</ele>
        <time>2018-06-23T12:27:19Z</time>
      </trkpt>
      <trkpt lat="43.06691" lon="-0.03974">
        <ele>335.5</ele>
        <time>2018-06-23T12:27:22Z</time>
      </trkpt>
      <trkpt lat="43.06671" lon="-0.03971">
        <ele>335.52</ele>
        <time>2018-06-23T12:27:25Z</time>
      </trkpt>
      <trkpt lat="43.06653" lon="-0.03967">
        <ele>335.52</ele>
        <time>2018-06-23T12:27:28Z</time>
      </trkpt>
      <trkpt lat="43.06634" lon="-0.03965">
        <ele>335.52</ele>
        <time>2018-06-23T12:27:31Z</time>
      </trkpt>
      <trkpt lat="43.06614" lon="-0.03965">
        <ele>335.52</ele>
        <time>2018-06-23T12:27:34Z</time>
      </trkpt>
      <trkpt lat="43.06595" lon="-0.03967">
        <ele>335.52</ele>
        <time>2018-06-23T12:27:37Z</time>
      </trkpt>
      <trkpt lat="43.06576" lon="-0.03967">
        <ele>335.52</ele>
        <time>2018-06-23T12:27:40Z</time>
      </trkpt>
      <trkpt lat="43.06556" lon="-0.03969">
        <ele>335.52</ele>
        <time>2018-06-23T12:27:43Z</time>
      </trkpt>
      <trkpt lat="43.06537" lon="-0.03968">
        <ele>335.52</ele>
        <time>2018-06-23T12:27:46Z</time>
      </trkpt>
      <trkpt lat="43.06517" lon="-0.03969">
        <ele>334.55</ele>
        <time>2018-06-23T12:27:49Z</time>
      </trkpt>
      <trkpt lat="43.06498" lon="-0.03969">
        <ele>333.55</ele>
        <time>2018-06-23T12:27:52Z</time>
      </trkpt>
      <trkpt lat="43.06479" lon="-0.03969">
        <ele>334.43</ele>
        <time>2018-06-23T12:27:55Z</time>
      </trkpt>
      <trkpt lat="43.06459" lon="-0.03969">
        <ele>334.58</ele>
        <time>2018-06-23T12:27:58Z</time>
      </trkpt>
      <trkpt lat="43.06438" lon="-0.0397">
        <ele>336.41</ele>
        <time>2018-06-23T12:28:01Z</time>
      </trkpt>
      <trkpt lat="43.06419" lon="-0.03972">
        <ele>337.49</ele>
        <time>2018-06-23T12:28:04Z</time>
      </trkpt>
      <trkpt lat="43.06399" lon="-0.03973">
        <ele>337.58</ele>
        <time>2018-06-23T12:28:07Z</time>
      </trkpt>
      <trkpt lat="43.06378" lon="-0.03975">
        <ele>339.41</ele>
        <time>2018-06-23T12:28:10Z</time>
      </trkpt>
      <trkpt lat="43.06358" lon="-0.03976">
        <ele>340.22</ele>
        <time>2018-06-23T12:28:13Z</time>
      </trkpt>
      <trkpt lat="43.06339" lon="-0.03977">
        <ele>341.15</ele>
        <time>2018-06-23T12:28:16Z</time>
      </trkpt>
      <trkpt lat="43.0632" lon="-0.03978">
        <ele>341.51</ele>
        <time>2018-06-23T12:28:19Z</time>
      </trkpt>
      <trkpt lat="43.06299" lon="-0.03979">
        <ele>340.55</ele>
        <time>2018-06-23T12:28:22Z</time>
      </trkpt>
      <trkpt lat="43.06279" lon="-0.03983">
        <ele>342.13</ele>
        <time>2018-06-23T12:28:25Z</time>
      </trkpt>
      <trkpt lat="43.06259" lon="-0.03986">
        <ele>345.09</ele>
        <time>2018-06-23T12:28:28Z</time>
      </trkpt>
      <trkpt lat="43.0624" lon="-0.03988">
        <ele>345.45</ele>
        <time>2018-06-23T12:28:31Z</time>
      </trkpt>
      <trkpt lat="43.0622" lon="-0.0399">
        <ele>346.7</ele>
        <time>2018-06-23T12:28:34Z</time>
      </trkpt>
      <trkpt lat="43.062" lon="-0.03991">
        <ele>344.85</ele>
        <time>2018-06-23T12:28:37Z</time>
      </trkpt>
      <trkpt lat="43.06182" lon="-0.03992">
        <ele>343.83</ele>
        <time>2018-06-23T12:28:40Z</time>
      </trkpt>
      <trkpt lat="43.06163" lon="-0.03995">
        <ele>342.83</ele>
        <time>2018-06-23T12:28:43Z</time>
      </trkpt>
      <trkpt lat="43.06143" lon="-0.04005">
        <ele>344.48</ele>
        <time>2018-06-23T12:28:46Z</time>
      </trkpt>
      <trkpt lat="43.06123" lon="-0.04012">
        <ele>344.52</ele>
        <time>2018-06-23T12:28:49Z</time>
      </trkpt>
      <trkpt lat="43.06104" lon="-0.04017">
        <ele>343.55</ele>
        <time>2018-06-23T12:28:52Z</time>
      </trkpt>
      <trkpt lat="43.06083" lon="-0.04024">
        <ele>344.29</ele>
        <time>2018-06-23T12:28:56Z</time>
      </trkpt>
      <trkpt lat="43.06064" lon="-0.04036">
        <ele>343.53</ele>
        <time>2018-06-23T12:29:00Z</time>
      </trkpt>
      <trkpt lat="43.06043" lon="-0.04045">
        <ele>342.82</ele>
        <time>2018-06-23T12:29:04Z</time>
      </trkpt>
      <trkpt lat="43.06021" lon="-0.04055">
        <ele>341.82</ele>
        <time>2018-06-23T12:29:08Z</time>
      </trkpt>
      <trkpt lat="43.06004" lon="-0.04067">
        <ele>341.53</ele>
        <time>2018-06-23T12:29:11Z</time>
      </trkpt>
      <trkpt lat="43.05985" lon="-0.04075">
        <ele>339.64</ele>
        <time>2018-06-23T12:29:14Z</time>
      </trkpt>
      <trkpt lat="43.05963" lon="-0.04084">
        <ele>337.83</ele>
        <time>2018-06-23T12:29:18Z</time>
      </trkpt>
      <trkpt lat="43.05941" lon="-0.04091">
        <ele>336.61</ele>
        <time>2018-06-23T12:29:22Z</time>
      </trkpt>
      <trkpt lat="43.05923" lon="-0.04104">
        <ele>336.44</ele>
        <time>2018-06-23T12:29:28Z</time>
      </trkpt>
      <trkpt lat="43.05904" lon="-0.04117">
        <ele>336.52</ele>
        <time>2018-06-23T12:29:33Z</time>
      </trkpt>
      <trkpt lat="43.05888" lon="-0.04128">
        <ele>336.46</ele>
        <time>2018-06-23T12:29:37Z</time>
      </trkpt>
      <trkpt lat="43.05866" lon="-0.04138">
        <ele>335.53</ele>
        <time>2018-06-23T12:29:42Z</time>
      </trkpt>
      <trkpt lat="43.05847" lon="-0.04148">
        <ele>334.53</ele>
        <time>2018-06-23T12:29:46Z</time>
      </trkpt>
      <trkpt lat="43.05827" lon="-0.04161">
        <ele>333.76</ele>
        <time>2018-06-23T12:29:50Z</time>
      </trkpt>
      <trkpt lat="43.05811" lon="-0.04172">
        <ele>333.32</ele>
        <time>2018-06-23T12:29:53Z</time>
      </trkpt>
      <trkpt lat="43.05794" lon="-0.04182">
        <ele>332.82</ele>
        <time>2018-06-23T12:29:56Z</time>
      </trkpt>
      <trkpt lat="43.05777" lon="-0.04196">
        <ele>333.5</ele>
        <time>2018-06-23T12:29:59Z</time>
      </trkpt>
      <trkpt lat="43.05758" lon="-0.04205">
        <ele>333.52</ele>
        <time>2018-06-23T12:30:02Z</time>
      </trkpt>
      <trkpt lat="43.05741" lon="-0.04216">
        <ele>333.52</ele>
        <time>2018-06-23T12:30:05Z</time>
      </trkpt>
      <trkpt lat="43.05727" lon="-0.04234">
        <ele>332.53</ele>
        <time>2018-06-23T12:30:09Z</time>
      </trkpt>
      <trkpt lat="43.05717" lon="-0.04255">
        <ele>334.28</ele>
        <time>2018-06-23T12:30:14Z</time>
      </trkpt>
      <trkpt lat="43.0573" lon="-0.04274">
        <ele>336.42</ele>
        <time>2018-06-23T12:30:19Z</time>
      </trkpt>
      <trkpt lat="43.05726" lon="-0.04299">
        <ele>339.49</ele>
        <time>2018-06-23T12:30:29Z</time>
      </trkpt>
      <trkpt lat="43.0571" lon="-0.04316">
        <ele>344.42</ele>
        <time>2018-06-23T12:31:04Z</time>
      </trkpt>
      <trkpt lat="43.05693" lon="-0.0433">
        <ele>347.22</ele>
        <time>2018-06-23T12:31:13Z</time>
      </trkpt>
      <trkpt lat="43.05674" lon="-0.04335">
        <ele>349.43</ele>
        <time>2018-06-23T12:31:21Z</time>
      </trkpt>
      <trkpt lat="43.05662" lon="-0.04353">
        <ele>351.54</ele>
        <time>2018-06-23T12:31:44Z</time>
      </trkpt>
      <trkpt lat="43.05649" lon="-0.04372">
        <ele>362.43</ele>
        <time>2018-06-23T12:32:17Z</time>
      </trkpt>
      <trkpt lat="43.05629" lon="-0.04376">
        <ele>363.52</ele>
        <time>2018-06-23T12:32:26Z</time>
      </trkpt>
      <trkpt lat="43.05614" lon="-0.0439">
        <ele>360.67</ele>
        <time>2018-06-23T12:32:53Z</time>
      </trkpt>
      <trkpt lat="43.05606" lon="-0.04415">
        <ele>364.22</ele>
        <time>2018-06-23T12:33:22Z</time>
      </trkpt>
      <trkpt lat="43.05597" lon="-0.04439">
        <ele>370.52</ele>
        <time>2018-06-23T12:33:56Z</time>
      </trkpt>
      <trkpt lat="43.05588" lon="-0.04461">
        <ele>370.61</ele>
        <time>2018-06-23T12:34:06Z</time>
      </trkpt>
      <trkpt lat="43.05576" lon="-0.0448">
        <ele>369.52</ele>
        <time>2018-06-23T12:34:12Z</time>
      </trkpt>
      <trkpt lat="43.05565" lon="-0.04502">
        <ele>370.52</ele>
        <time>2018-06-23T12:34:18Z</time>
      </trkpt>
      <trkpt lat="43.05562" lon="-0.0453">
        <ele>369.55</ele>
        <time>2018-06-23T12:34:25Z</time>
      </trkpt>
      <trkpt lat="43.05557" lon="-0.04556">
        <ele>369.6</ele>
        <time>2018-06-23T12:34:30Z</time>
      </trkpt>
      <trkpt lat="43.05551" lon="-0.0458">
        <ele>370.58</ele>
        <time>2018-06-23T12:34:40Z</time>
      </trkpt>
      <trkpt lat="43.0554" lon="-0.046">
        <ele>370.53</ele>
        <time>2018-06-23T12:35:02Z</time>
      </trkpt>
      <trkpt lat="43.05533" lon="-0.04623">
        <ele>370.31</ele>
        <time>2018-06-23T12:35:11Z</time>
      </trkpt>
      <trkpt lat="43.0552" lon="-0.04646">
        <ele>372.51</ele>
        <time>2018-06-23T12:35:21Z</time>
      </trkpt>
      <trkpt lat="43.05508" lon="-0.04668">
        <ele>373.22</ele>
        <time>2018-06-23T12:35:26Z</time>
      </trkpt>
      <trkpt lat="43.05497" lon="-0.0469">
        <ele>373.5</ele>
        <time>2018-06-23T12:35:31Z</time>
      </trkpt>
      <trkpt lat="43.05487" lon="-0.04711">
        <ele>375.43</ele>
        <time>2018-06-23T12:35:38Z</time>
      </trkpt>
      <trkpt lat="43.05476" lon="-0.04734">
        <ele>374.82</ele>
        <time>2018-06-23T12:35:44Z</time>
      </trkpt>
      <trkpt lat="43.05469" lon="-0.04759">
        <ele>374.52</ele>
        <time>2018-06-23T12:35:51Z</time>
      </trkpt>
      <trkpt lat="43.05454" lon="-0.04774">
        <ele>373.53</ele>
        <time>2018-06-23T12:35:59Z</time>
      </trkpt>
      <trkpt lat="43.05435" lon="-0.04785">
        <ele>375.83</ele>
        <time>2018-06-23T12:36:06Z</time>
      </trkpt>
      <trkpt lat="43.05414" lon="-0.04801">
        <ele>381.95</ele>
        <time>2018-06-23T12:36:11Z</time>
      </trkpt>
      <trkpt lat="43.05396" lon="-0.04814">
        <ele>386.09</ele>
        <time>2018-06-23T12:36:15Z</time>
      </trkpt>
      <trkpt lat="43.05377" lon="-0.04831">
        <ele>389.16</ele>
        <time>2018-06-23T12:36:19Z</time>
      </trkpt>
      <trkpt lat="43.05361" lon="-0.04848">
        <ele>390.22</ele>
        <time>2018-06-23T12:36:25Z</time>
      </trkpt>
      <trkpt lat="43.05345" lon="-0.04859">
        <ele>390.5</ele>
        <time>2018-06-23T12:36:32Z</time>
      </trkpt>
      <trkpt lat="43.05328" lon="-0.0487">
        <ele>387.61</ele>
        <time>2018-06-23T12:36:48Z</time>
      </trkpt>
      <trkpt lat="43.0531" lon="-0.04868">
        <ele>387.52</ele>
        <time>2018-06-23T12:36:55Z</time>
      </trkpt>
      <trkpt lat="43.05305" lon="-0.04893">
        <ele>388.52</ele>
        <time>2018-06-23T12:37:14Z</time>
      </trkpt>
      <trkpt lat="43.05298" lon="-0.04917">
        <ele>388.49</ele>
        <time>2018-06-23T12:37:27Z</time>
      </trkpt>
      <trkpt lat="43.05298" lon="-0.04943">
        <ele>391.7</ele>
        <time>2018-06-23T12:37:34Z</time>
      </trkpt>
      <trkpt lat="43.05282" lon="-0.04958">
        <ele>391.55</ele>
        <time>2018-06-23T12:37:40Z</time>
      </trkpt>
      <trkpt lat="43.05265" lon="-0.0497">
        <ele>391.52</ele>
        <time>2018-06-23T12:37:46Z</time>
      </trkpt>
      <trkpt lat="43.05245" lon="-0.04977">
        <ele>390.26</ele>
        <time>2018-06-23T12:37:54Z</time>
      </trkpt>
      <trkpt lat="43.05225" lon="-0.04985">
        <ele>390.23</ele>
        <time>2018-06-23T12:38:00Z</time>
      </trkpt>
      <trkpt lat="43.05208" lon="-0.05001">
        <ele>391.22</ele>
        <time>2018-06-23T12:38:04Z</time>
      </trkpt>
      <trkpt lat="43.05195" lon="-0.05023">
        <ele>391.52</ele>
        <time>2018-06-23T12:38:08Z</time>
      </trkpt>
      <trkpt lat="43.05185" lon="-0.05044">
        <ele>390.55</ele>
        <time>2018-06-23T12:38:12Z</time>
      </trkpt>
      <trkpt lat="43.05173" lon="-0.05066">
        <ele>389.55</ele>
        <time>2018-06-23T12:38:17Z</time>
      </trkpt>
      <trkpt lat="43.05155" lon="-0.0508">
        <ele>387.55</ele>
        <time>2018-06-23T12:38:22Z</time>
      </trkpt>
      <trkpt lat="43.05141" lon="-0.05101">
        <ele>390.24</ele>
        <time>2018-06-23T12:38:27Z</time>
      </trkpt>
      <trkpt lat="43.05128" lon="-0.05119">
        <ele>391.22</ele>
        <time>2018-06-23T12:38:31Z</time>
      </trkpt>
      <trkpt lat="43.05112" lon="-0.05138">
        <ele>391.52</ele>
        <time>2018-06-23T12:38:36Z</time>
      </trkpt>
      <trkpt lat="43.05094" lon="-0.05151">
        <ele>389.56</ele>
        <time>2018-06-23T12:38:41Z</time>
      </trkpt>
      <trkpt lat="43.05076" lon="-0.0516">
        <ele>390.22</ele>
        <time>2018-06-23T12:38:45Z</time>
      </trkpt>
      <trkpt lat="43.05055" lon="-0.05172">
        <ele>391.44</ele>
        <time>2018-06-23T12:38:50Z</time>
      </trkpt>
      <trkpt lat="43.05034" lon="-0.05178">
        <ele>391.55</ele>
        <time>2018-06-23T12:38:56Z</time>
      </trkpt>
      <trkpt lat="43.05014" lon="-0.05177">
        <ele>389.62</ele>
        <time>2018-06-23T12:39:02Z</time>
      </trkpt>
      <trkpt lat="43.04997" lon="-0.0517">
        <ele>388.82</ele>
        <time>2018-06-23T12:39:07Z</time>
      </trkpt>
      <trkpt lat="43.04978" lon="-0.05164">
        <ele>388.46</ele>
        <time>2018-06-23T12:39:12Z</time>
      </trkpt>
      <trkpt lat="43.04959" lon="-0.05155">
        <ele>388.5</ele>
        <time>2018-06-23T12:39:19Z</time>
      </trkpt>
      <trkpt lat="43.04947" lon="-0.05178">
        <ele>390.19</ele>
        <time>2018-06-23T12:39:25Z</time>
      </trkpt>
      <trkpt lat="43.04933" lon="-0.05194">
        <ele>390.31</ele>
        <time>2018-06-23T12:39:32Z</time>
      </trkpt>
      <trkpt lat="43.04913" lon="-0.05197">
        <ele>390.52</ele>
        <time>2018-06-23T12:39:36Z</time>
      </trkpt>
      <trkpt lat="43.04903" lon="-0.05219">
        <ele>391.73</ele>
        <time>2018-06-23T12:39:43Z</time>
      </trkpt>
      <trkpt lat="43.04889" lon="-0.05237">
        <ele>391.52</ele>
        <time>2018-06-23T12:39:49Z</time>
      </trkpt>
      <trkpt lat="43.0488" lon="-0.05259">
        <ele>391.52</ele>
        <time>2018-06-23T12:39:54Z</time>
      </trkpt>
      <trkpt lat="43.04875" lon="-0.05286">
        <ele>393.49</ele>
        <time>2018-06-23T12:40:00Z</time>
      </trkpt>
      <trkpt lat="43.04858" lon="-0.05299">
        <ele>391.64</ele>
        <time>2018-06-23T12:40:06Z</time>
      </trkpt>
      <trkpt lat="43.04839" lon="-0.05309">
        <ele>389.82</ele>
        <time>2018-06-23T12:40:13Z</time>
      </trkpt>
      <trkpt lat="43.04817" lon="-0.05306">
        <ele>387.62</ele>
        <time>2018-06-23T12:40:18Z</time>
      </trkpt>
      <trkpt lat="43.04799" lon="-0.05313">
        <ele>387.52</ele>
        <time>2018-06-23T12:40:22Z</time>
      </trkpt>
      <trkpt lat="43.04785" lon="-0.05333">
        <ele>387.52</ele>
        <time>2018-06-23T12:40:29Z</time>
      </trkpt>
      <trkpt lat="43.04767" lon="-0.05341">
        <ele>389.22</ele>
        <time>2018-06-23T12:40:36Z</time>
      </trkpt>
      <trkpt lat="43.04747" lon="-0.0534">
        <ele>390.43</ele>
        <time>2018-06-23T12:40:41Z</time>
      </trkpt>
      <trkpt lat="43.04736" lon="-0.0536">
        <ele>392.52</ele>
        <time>2018-06-23T12:40:54Z</time>
      </trkpt>
      <trkpt lat="43.0472" lon="-0.05377">
        <ele>393.49</ele>
        <time>2018-06-23T12:41:01Z</time>
      </trkpt>
      <trkpt lat="43.04706" lon="-0.05393">
        <ele>392.67</ele>
        <time>2018-06-23T12:41:17Z</time>
      </trkpt>
      <trkpt lat="43.04697" lon="-0.05415">
        <ele>393.52</ele>
        <time>2018-06-23T12:41:30Z</time>
      </trkpt>
      <trkpt lat="43.04695" lon="-0.05441">
        <ele>392.46</ele>
        <time>2018-06-23T12:41:39Z</time>
      </trkpt>
      <trkpt lat="43.04678" lon="-0.05453">
        <ele>388.65</ele>
        <time>2018-06-23T12:41:46Z</time>
      </trkpt>
      <trkpt lat="43.04665" lon="-0.05475">
        <ele>386.61</ele>
        <time>2018-06-23T12:41:52Z</time>
      </trkpt>
      <trkpt lat="43.04645" lon="-0.05483">
        <ele>384.53</ele>
        <time>2018-06-23T12:41:58Z</time>
      </trkpt>
      <trkpt lat="43.04628" lon="-0.05502">
        <ele>385.52</ele>
        <time>2018-06-23T12:42:04Z</time>
      </trkpt>
      <trkpt lat="43.04613" lon="-0.05518">
        <ele>385.73</ele>
        <time>2018-06-23T12:42:07Z</time>
      </trkpt>
      <trkpt lat="43.04596" lon="-0.05535">
        <ele>385.69</ele>
        <time>2018-06-23T12:42:13Z</time>
      </trkpt>
      <trkpt lat="43.04579" lon="-0.05553">
        <ele>386.5</ele>
        <time>2018-06-23T12:42:19Z</time>
      </trkpt>
      <trkpt lat="43.04565" lon="-0.05569">
        <ele>387.49</ele>
        <time>2018-06-23T12:42:24Z</time>
      </trkpt>
      <trkpt lat="43.04556" lon="-0.05594">
        <ele>384.85</ele>
        <time>2018-06-23T12:42:30Z</time>
      </trkpt>
      <trkpt lat="43.04538" lon="-0.05608">
        <ele>379.65</ele>
        <time>2018-06-23T12:42:36Z</time>
      </trkpt>
      <trkpt lat="43.04522" lon="-0.05622">
        <ele>376.21</ele>
        <time>2018-06-23T12:42:41Z</time>
      </trkpt>
      <trkpt lat="43.0451" lon="-0.05641">
        <ele>372.65</ele>
        <time>2018-06-23T12:42:45Z</time>
      </trkpt>
      <trkpt lat="43.04495" lon="-0.05655">
        <ele>371.12</ele>
        <time>2018-06-23T12:42:49Z</time>
      </trkpt>
      <trkpt lat="43.04475" lon="-0.05669">
        <ele>368.53</ele>
        <time>2018-06-23T12:42:54Z</time>
      </trkpt>
      <trkpt lat="43.04456" lon="-0.0568">
        <ele>365.96</ele>
        <time>2018-06-23T12:42:59Z</time>
      </trkpt>
      <trkpt lat="43.0444" lon="-0.05696">
        <ele>361.86</ele>
        <time>2018-06-23T12:43:04Z</time>
      </trkpt>
      <trkpt lat="43.04423" lon="-0.05716">
        <ele>358.64</ele>
        <time>2018-06-23T12:43:09Z</time>
      </trkpt>
      <trkpt lat="43.04407" lon="-0.05735">
        <ele>356.61</ele>
        <time>2018-06-23T12:43:14Z</time>
      </trkpt>
      <trkpt lat="43.04386" lon="-0.05745">
        <ele>355.46</ele>
        <time>2018-06-23T12:43:19Z</time>
      </trkpt>
      <trkpt lat="43.04371" lon="-0.05759">
        <ele>353.62</ele>
        <time>2018-06-23T12:43:24Z</time>
      </trkpt>
      <trkpt lat="43.04352" lon="-0.05774">
        <ele>351.85</ele>
        <time>2018-06-23T12:43:30Z</time>
      </trkpt>
      <trkpt lat="43.04335" lon="-0.05786">
        <ele>349.55</ele>
        <time>2018-06-23T12:43:35Z</time>
      </trkpt>
      <trkpt lat="43.04332" lon="-0.05813">
        <ele>350.31</ele>
        <time>2018-06-23T12:43:41Z</time>
      </trkpt>
      <trkpt lat="43.04324" lon="-0.0584">
        <ele>351.52</ele>
        <time>2018-06-23T12:43:46Z</time>
      </trkpt>
      <trkpt lat="43.04318" lon="-0.05865">
        <ele>352.51</ele>
        <time>2018-06-23T12:43:50Z</time>
      </trkpt>
      <trkpt lat="43.04314" lon="-0.0589">
        <ele>352.79</ele>
        <time>2018-06-23T12:43:54Z</time>
      </trkpt>
      <trkpt lat="43.04312" lon="-0.05914">
        <ele>352.54</ele>
        <time>2018-06-23T12:43:58Z</time>
      </trkpt>
      <trkpt lat="43.04304" lon="-0.05942">
        <ele>353.73</ele>
        <time>2018-06-23T12:44:03Z</time>
      </trkpt>
      <trkpt lat="43.04305" lon="-0.05973">
        <ele>350.65</ele>
        <time>2018-06-23T12:44:08Z</time>
      </trkpt>
      <trkpt lat="43.04303" lon="-0.05998">
        <ele>350.17</ele>
        <time>2018-06-23T12:44:12Z</time>
      </trkpt>
      <trkpt lat="43.04295" lon="-0.06026">
        <ele>352.42</ele>
        <time>2018-06-23T12:44:17Z</time>
      </trkpt>
      <trkpt lat="43.04284" lon="-0.06046">
        <ele>353.58</ele>
        <time>2018-06-23T12:44:21Z</time>
      </trkpt>
      <trkpt lat="43.04268" lon="-0.06065">
        <ele>351.83</ele>
        <time>2018-06-23T12:44:26Z</time>
      </trkpt>
      <trkpt lat="43.04251" lon="-0.06075">
        <ele>349.91</ele>
        <time>2018-06-23T12:44:30Z</time>
      </trkpt>
      <trkpt lat="43.04234" lon="-0.06084">
        <ele>348.62</ele>
        <time>2018-06-23T12:44:34Z</time>
      </trkpt>
      <trkpt lat="43.04215" lon="-0.061">
        <ele>346.83</ele>
        <time>2018-06-23T12:44:39Z</time>
      </trkpt>
      <trkpt lat="43.04193" lon="-0.06106">
        <ele>345.61</ele>
        <time>2018-06-23T12:44:44Z</time>
      </trkpt>
      <trkpt lat="43.04172" lon="-0.061">
        <ele>343.61</ele>
        <time>2018-06-23T12:44:49Z</time>
      </trkpt>
      <trkpt lat="43.04153" lon="-0.06087">
        <ele>343.52</ele>
        <time>2018-06-23T12:44:54Z</time>
      </trkpt>
      <trkpt lat="43.04135" lon="-0.06075">
        <ele>343.5</ele>
        <time>2018-06-23T12:44:59Z</time>
      </trkpt>
      <trkpt lat="43.04116" lon="-0.06066">
        <ele>342.52</ele>
        <time>2018-06-23T12:45:04Z</time>
      </trkpt>
      <trkpt lat="43.04098" lon="-0.06072">
        <ele>343.22</ele>
        <time>2018-06-23T12:45:10Z</time>
      </trkpt>
      <trkpt lat="43.04083" lon="-0.06087">
        <ele>344.52</ele>
        <time>2018-06-23T12:45:19Z</time>
      </trkpt>
      <trkpt lat="43.04063" lon="-0.06093">
        <ele>346.22</ele>
        <time>2018-06-23T12:45:26Z</time>
      </trkpt>
      <trkpt lat="43.04044" lon="-0.06097">
        <ele>345.52</ele>
        <time>2018-06-23T12:45:34Z</time>
      </trkpt>
      <trkpt lat="43.04029" lon="-0.06112">
        <ele>349.43</ele>
        <time>2018-06-23T12:45:55Z</time>
      </trkpt>
      <trkpt lat="43.04013" lon="-0.06125">
        <ele>352.21</ele>
        <time>2018-06-23T12:46:04Z</time>
      </trkpt>
      <trkpt lat="43.03996" lon="-0.06133">
        <ele>354.22</ele>
        <time>2018-06-23T12:46:12Z</time>
      </trkpt>
      <trkpt lat="43.03977" lon="-0.06139">
        <ele>358.53</ele>
        <time>2018-06-23T12:46:29Z</time>
      </trkpt>
      <trkpt lat="43.03958" lon="-0.06139">
        <ele>355.46</ele>
        <time>2018-06-23T12:46:49Z</time>
      </trkpt>
      <trkpt lat="43.03939" lon="-0.06142">
        <ele>356.82</ele>
        <time>2018-06-23T12:46:59Z</time>
      </trkpt>
      <trkpt lat="43.0392" lon="-0.06147">
        <ele>354.83</ele>
        <time>2018-06-23T12:47:07Z</time>
      </trkpt>
      <trkpt lat="43.03902" lon="-0.06154">
        <ele>355.31</ele>
        <time>2018-06-23T12:47:15Z</time>
      </trkpt>
      <trkpt lat="43.03883" lon="-0.06157">
        <ele>355.22</ele>
        <time>2018-06-23T12:47:22Z</time>
      </trkpt>
      <trkpt lat="43.03865" lon="-0.06165">
        <ele>355.52</ele>
        <time>2018-06-23T12:47:28Z</time>
      </trkpt>
      <trkpt lat="43.03847" lon="-0.0617">
        <ele>358.49</ele>
        <time>2018-06-23T12:47:36Z</time>
      </trkpt>
      <trkpt lat="43.03828" lon="-0.06164">
        <ele>360.21</ele>
        <time>2018-06-23T12:47:47Z</time>
      </trkpt>
      <trkpt lat="43.03815" lon="-0.06145">
        <ele>365.19</ele>
        <time>2018-06-23T12:47:57Z</time>
      </trkpt>
      <trkpt lat="43.03797" lon="-0.0615">
        <ele>368.42</ele>
        <time>2018-06-23T12:48:04Z</time>
      </trkpt>
      <trkpt lat="43.03789" lon="-0.06172">
        <ele>368.54</ele>
        <time>2018-06-23T12:48:14Z</time>
      </trkpt>
      <trkpt lat="43.03771" lon="-0.06183">
        <ele>371.43</ele>
        <time>2018-06-23T12:48:23Z</time>
      </trkpt>
      <trkpt lat="43.03751" lon="-0.06191">
        <ele>371.52</ele>
        <time>2018-06-23T12:48:31Z</time>
      </trkpt>
      <trkpt lat="43.0373" lon="-0.06195">
        <ele>371.52</ele>
        <time>2018-06-23T12:48:37Z</time>
      </trkpt>
      <trkpt lat="43.03709" lon="-0.06199">
        <ele>372.22</ele>
        <time>2018-06-23T12:48:43Z</time>
      </trkpt>
      <trkpt lat="43.03691" lon="-0.06198">
        <ele>374.45</ele>
        <time>2018-06-23T12:48:50Z</time>
      </trkpt>
      <trkpt lat="43.03675" lon="-0.06182">
        <ele>376.43</ele>
        <time>2018-06-23T12:48:59Z</time>
      </trkpt>
      <trkpt lat="43.03656" lon="-0.06193">
        <ele>380.41</ele>
        <time>2018-06-23T12:49:08Z</time>
      </trkpt>
      <trkpt lat="43.03637" lon="-0.06193">
        <ele>386.09</ele>
        <time>2018-06-23T12:49:15Z</time>
      </trkpt>
      <trkpt lat="43.03619" lon="-0.06185">
        <ele>388.73</ele>
        <time>2018-06-23T12:49:23Z</time>
      </trkpt>
      <trkpt lat="43.03606" lon="-0.06202">
        <ele>388.52</ele>
        <time>2018-06-23T12:49:38Z</time>
      </trkpt>
      <trkpt lat="43.03586" lon="-0.06206">
        <ele>386.62</ele>
        <time>2018-06-23T12:49:48Z</time>
      </trkpt>
      <trkpt lat="43.03568" lon="-0.06209">
        <ele>388.51</ele>
        <time>2018-06-23T12:49:56Z</time>
      </trkpt>
      <trkpt lat="43.03547" lon="-0.06199">
        <ele>388.44</ele>
        <time>2018-06-23T12:50:04Z</time>
      </trkpt>
      <trkpt lat="43.03529" lon="-0.06202">
        <ele>388.31</ele>
        <time>2018-06-23T12:50:14Z</time>
      </trkpt>
      <trkpt lat="43.03514" lon="-0.06185">
        <ele>389.51</ele>
        <time>2018-06-23T12:50:25Z</time>
      </trkpt>
      <trkpt lat="43.03499" lon="-0.06168">
        <ele>390.51</ele>
        <time>2018-06-23T12:50:33Z</time>
      </trkpt>
      <trkpt lat="43.0348" lon="-0.06167">
        <ele>392.49</ele>
        <time>2018-06-23T12:50:42Z</time>
      </trkpt>
      <trkpt lat="43.0346" lon="-0.06177">
        <ele>392.52</ele>
        <time>2018-06-23T12:50:49Z</time>
      </trkpt>
      <trkpt lat="43.0344" lon="-0.06182">
        <ele>391.82</ele>
        <time>2018-06-23T12:50:55Z</time>
      </trkpt>
      <trkpt lat="43.03436" lon="-0.06156">
        <ele>389.55</ele>
        <time>2018-06-23T12:51:05Z</time>
      </trkpt>
      <trkpt lat="43.0343" lon="-0.06131">
        <ele>390.82</ele>
        <time>2018-06-23T12:51:13Z</time>
      </trkpt>
      <trkpt lat="43.03411" lon="-0.06128">
        <ele>386.64</ele>
        <time>2018-06-23T12:51:19Z</time>
      </trkpt>
      <trkpt lat="43.03389" lon="-0.06132">
        <ele>381.16</ele>
        <time>2018-06-23T12:51:25Z</time>
      </trkpt>
      <trkpt lat="43.03371" lon="-0.06139">
        <ele>377.93</ele>
        <time>2018-06-23T12:51:29Z</time>
      </trkpt>
      <trkpt lat="43.0335" lon="-0.06145">
        <ele>374.92</ele>
        <time>2018-06-23T12:51:33Z</time>
      </trkpt>
      <trkpt lat="43.03329" lon="-0.06152">
        <ele>372.64</ele>
        <time>2018-06-23T12:51:37Z</time>
      </trkpt>
      <trkpt lat="43.03308" lon="-0.06158">
        <ele>370.83</ele>
        <time>2018-06-23T12:51:41Z</time>
      </trkpt>
      <trkpt lat="43.03289" lon="-0.06165">
        <ele>367.65</ele>
        <time>2018-06-23T12:51:45Z</time>
      </trkpt>
      <trkpt lat="43.03271" lon="-0.0617">
        <ele>365.85</ele>
        <time>2018-06-23T12:51:48Z</time>
      </trkpt>
      <trkpt lat="43.03249" lon="-0.06176">
        <ele>362.92</ele>
        <time>2018-06-23T12:51:52Z</time>
      </trkpt>
      <trkpt lat="43.03227" lon="-0.06184">
        <ele>359.86</ele>
        <time>2018-06-23T12:51:56Z</time>
      </trkpt>
      <trkpt lat="43.03209" lon="-0.06193">
        <ele>357.56</ele>
        <time>2018-06-23T12:52:00Z</time>
      </trkpt>
      <trkpt lat="43.03192" lon="-0.06201">
        <ele>356.61</ele>
        <time>2018-06-23T12:52:04Z</time>
      </trkpt>
      <trkpt lat="43.03173" lon="-0.06205">
        <ele>355.53</ele>
        <time>2018-06-23T12:52:08Z</time>
      </trkpt>
      <trkpt lat="43.0315" lon="-0.06212">
        <ele>355.23</ele>
        <time>2018-06-23T12:52:12Z</time>
      </trkpt>
      <trkpt lat="43.0313" lon="-0.0622">
        <ele>354.82</ele>
        <time>2018-06-23T12:52:16Z</time>
      </trkpt>
      <trkpt lat="43.0311" lon="-0.06227">
        <ele>353.61</ele>
        <time>2018-06-23T12:52:20Z</time>
      </trkpt>
      <trkpt lat="43.03089" lon="-0.06234">
        <ele>353.52</ele>
        <time>2018-06-23T12:52:24Z</time>
      </trkpt>
      <trkpt lat="43.03068" lon="-0.06236">
        <ele>352.53</ele>
        <time>2018-06-23T12:52:28Z</time>
      </trkpt>
      <trkpt lat="43.03046" lon="-0.06246">
        <ele>353.45</ele>
        <time>2018-06-23T12:52:33Z</time>
      </trkpt>
      <trkpt lat="43.03036" lon="-0.06266">
        <ele>355.22</ele>
        <time>2018-06-23T12:52:40Z</time>
      </trkpt>
      <trkpt lat="43.03023" lon="-0.06285">
        <ele>356.51</ele>
        <time>2018-06-23T12:52:47Z</time>
      </trkpt>
      <trkpt lat="43.03011" lon="-0.06305">
        <ele>357.5</ele>
        <time>2018-06-23T12:52:57Z</time>
      </trkpt>
      <trkpt lat="43.02993" lon="-0.06311">
        <ele>359.22</ele>
        <time>2018-06-23T12:53:07Z</time>
      </trkpt>
      <trkpt lat="43.02974" lon="-0.06314">
        <ele>361.49</ele>
        <time>2018-06-23T12:53:17Z</time>
      </trkpt>
      <trkpt lat="43.02954" lon="-0.06318">
        <ele>363.42</ele>
        <time>2018-06-23T12:53:25Z</time>
      </trkpt>
      <trkpt lat="43.02935" lon="-0.06313">
        <ele>365.45</ele>
        <time>2018-06-23T12:53:32Z</time>
      </trkpt>
      <trkpt lat="43.02917" lon="-0.06311">
        <ele>368.19</ele>
        <time>2018-06-23T12:53:40Z</time>
      </trkpt>
      <trkpt lat="43.02899" lon="-0.06321">
        <ele>370.49</ele>
        <time>2018-06-23T12:53:47Z</time>
      </trkpt>
      <trkpt lat="43.02882" lon="-0.06334">
        <ele>372.22</ele>
        <time>2018-06-23T12:53:54Z</time>
      </trkpt>
      <trkpt lat="43.02882" lon="-0.0636">
        <ele>371.55</ele>
        <time>2018-06-23T12:54:01Z</time>
      </trkpt>
      <trkpt lat="43.02879" lon="-0.06386">
        <ele>369.91</ele>
        <time>2018-06-23T12:54:07Z</time>
      </trkpt>
      <trkpt lat="43.02872" lon="-0.06412">
        <ele>369.51</ele>
        <time>2018-06-23T12:54:14Z</time>
      </trkpt>
      <trkpt lat="43.02862" lon="-0.06437">
        <ele>370.22</ele>
        <time>2018-06-23T12:54:20Z</time>
      </trkpt>
      <trkpt lat="43.02848" lon="-0.06457">
        <ele>371.52</ele>
        <time>2018-06-23T12:54:26Z</time>
      </trkpt>
      <trkpt lat="43.02841" lon="-0.06481">
        <ele>373.22</ele>
        <time>2018-06-23T12:54:33Z</time>
      </trkpt>
      <trkpt lat="43.02824" lon="-0.06493">
        <ele>373.52</ele>
        <time>2018-06-23T12:54:39Z</time>
      </trkpt>
      <trkpt lat="43.02808" lon="-0.06509">
        <ele>373.52</ele>
        <time>2018-06-23T12:54:45Z</time>
      </trkpt>
      <trkpt lat="43.02796" lon="-0.0653">
        <ele>374.2</ele>
        <time>2018-06-23T12:54:51Z</time>
      </trkpt>
      <trkpt lat="43.02786" lon="-0.06551">
        <ele>373.64</ele>
        <time>2018-06-23T12:54:58Z</time>
      </trkpt>
      <trkpt lat="43.0279" lon="-0.06579">
        <ele>370.85</ele>
        <time>2018-06-23T12:55:03Z</time>
      </trkpt>
      <trkpt lat="43.0279" lon="-0.06604">
        <ele>369.82</ele>
        <time>2018-06-23T12:55:07Z</time>
      </trkpt>
      <trkpt lat="43.02794" lon="-0.06632">
        <ele>370.22</ele>
        <time>2018-06-23T12:55:12Z</time>
      </trkpt>
      <trkpt lat="43.0279" lon="-0.06658">
        <ele>373.22</ele>
        <time>2018-06-23T12:55:24Z</time>
      </trkpt>
      <trkpt lat="43.02775" lon="-0.06674">
        <ele>406.51</ele>
        <time>2018-06-23T13:01:58Z</time>
      </trkpt>
      <trkpt lat="43.02768" lon="-0.06698">
        <ele>408.52</ele>
        <time>2018-06-23T13:02:08Z</time>
      </trkpt>
      <trkpt lat="43.02774" lon="-0.06722">
        <ele>407.52</ele>
        <time>2018-06-23T13:02:20Z</time>
      </trkpt>
      <trkpt lat="43.02765" lon="-0.06747">
        <ele>409.22</ele>
        <time>2018-06-23T13:02:30Z</time>
      </trkpt>
      <trkpt lat="43.02757" lon="-0.06771">
        <ele>411.22</ele>
        <time>2018-06-23T13:02:40Z</time>
      </trkpt>
      <trkpt lat="43.0275" lon="-0.06797">
        <ele>411.5</ele>
        <time>2018-06-23T13:02:49Z</time>
      </trkpt>
      <trkpt lat="43.02741" lon="-0.06819">
        <ele>413.51</ele>
        <time>2018-06-23T13:03:04Z</time>
      </trkpt>
      <trkpt lat="43.0274" lon="-0.06844">
        <ele>411.43</ele>
        <time>2018-06-23T13:03:23Z</time>
      </trkpt>
      <trkpt lat="43.02735" lon="-0.06867">
        <ele>412.49</ele>
        <time>2018-06-23T13:03:31Z</time>
      </trkpt>
      <trkpt lat="43.02731" lon="-0.06894">
        <ele>410.53</ele>
        <time>2018-06-23T13:03:39Z</time>
      </trkpt>
      <trkpt lat="43.02737" lon="-0.06918">
        <ele>407.82</ele>
        <time>2018-06-23T13:04:02Z</time>
      </trkpt>
      <trkpt lat="43.0273" lon="-0.06893">
        <ele>407.52</ele>
        <time>2018-06-23T13:04:38Z</time>
      </trkpt>
      <trkpt lat="43.0273" lon="-0.06866">
        <ele>409.22</ele>
        <time>2018-06-23T13:04:47Z</time>
      </trkpt>
      <trkpt lat="43.02736" lon="-0.06842">
        <ele>412.58</ele>
        <time>2018-06-23T13:04:57Z</time>
      </trkpt>
      <trkpt lat="43.02725" lon="-0.06823">
        <ele>412.46</ele>
        <time>2018-06-23T13:05:09Z</time>
      </trkpt>
      <trkpt lat="43.02708" lon="-0.06814">
        <ele>413.74</ele>
        <time>2018-06-23T13:05:19Z</time>
      </trkpt>
      <trkpt lat="43.02693" lon="-0.06835">
        <ele>411.55</ele>
        <time>2018-06-23T13:05:26Z</time>
      </trkpt>
      <trkpt lat="43.0269" lon="-0.06859">
        <ele>409.83</ele>
        <time>2018-06-23T13:05:30Z</time>
      </trkpt>
      <trkpt lat="43.02689" lon="-0.06885">
        <ele>409.31</ele>
        <time>2018-06-23T13:05:34Z</time>
      </trkpt>
      <trkpt lat="43.02689" lon="-0.06911">
        <ele>408.53</ele>
        <time>2018-06-23T13:05:38Z</time>
      </trkpt>
      <trkpt lat="43.02689" lon="-0.06942">
        <ele>409.52</ele>
        <time>2018-06-23T13:05:43Z</time>
      </trkpt>
      <trkpt lat="43.02688" lon="-0.06969">
        <ele>408.61</ele>
        <time>2018-06-23T13:05:48Z</time>
      </trkpt>
      <trkpt lat="43.02694" lon="-0.06996">
        <ele>409.51</ele>
        <time>2018-06-23T13:05:53Z</time>
      </trkpt>
      <trkpt lat="43.02693" lon="-0.07024">
        <ele>408.82</ele>
        <time>2018-06-23T13:05:58Z</time>
      </trkpt>
      <trkpt lat="43.0269" lon="-0.0705">
        <ele>408.82</ele>
        <time>2018-06-23T13:06:03Z</time>
      </trkpt>
      <trkpt lat="43.02689" lon="-0.07078">
        <ele>408.52</ele>
        <time>2018-06-23T13:06:08Z</time>
      </trkpt>
      <trkpt lat="43.02688" lon="-0.07103">
        <ele>408.81</ele>
        <time>2018-06-23T13:06:13Z</time>
      </trkpt>
      <trkpt lat="43.02699" lon="-0.07124">
        <ele>407.82</ele>
        <time>2018-06-23T13:06:20Z</time>
      </trkpt>
      <trkpt lat="43.02713" lon="-0.07145">
        <ele>407.82</ele>
        <time>2018-06-23T13:06:26Z</time>
      </trkpt>
      <trkpt lat="43.02718" lon="-0.07172">
        <ele>408.5</ele>
        <time>2018-06-23T13:06:31Z</time>
      </trkpt>
      <trkpt lat="43.02723" lon="-0.07197">
        <ele>405.94</ele>
        <time>2018-06-23T13:06:36Z</time>
      </trkpt>
      <trkpt lat="43.02731" lon="-0.07224">
        <ele>404.53</ele>
        <time>2018-06-23T13:06:41Z</time>
      </trkpt>
      <trkpt lat="43.02728" lon="-0.07249">
        <ele>404.52</ele>
        <time>2018-06-23T13:06:46Z</time>
      </trkpt>
      <trkpt lat="43.02711" lon="-0.07269">
        <ele>403.91</ele>
        <time>2018-06-23T13:06:51Z</time>
      </trkpt>
      <trkpt lat="43.02694" lon="-0.07275">
        <ele>403.23</ele>
        <time>2018-06-23T13:06:55Z</time>
      </trkpt>
      <trkpt lat="43.02672" lon="-0.07281">
        <ele>401.61</ele>
        <time>2018-06-23T13:07:00Z</time>
      </trkpt>
      <trkpt lat="43.02651" lon="-0.07288">
        <ele>401.52</ele>
        <time>2018-06-23T13:07:05Z</time>
      </trkpt>
      <trkpt lat="43.0263" lon="-0.07292">
        <ele>402.2</ele>
        <time>2018-06-23T13:07:10Z</time>
      </trkpt>
      <trkpt lat="43.02611" lon="-0.073">
        <ele>405.19</ele>
        <time>2018-06-23T13:07:15Z</time>
      </trkpt>
      <trkpt lat="43.02594" lon="-0.0731">
        <ele>408.19</ele>
        <time>2018-06-23T13:07:20Z</time>
      </trkpt>
      <trkpt lat="43.02575" lon="-0.07326">
        <ele>409.22</ele>
        <time>2018-06-23T13:07:25Z</time>
      </trkpt>
      <trkpt lat="43.02564" lon="-0.07348">
        <ele>410.49</ele>
        <time>2018-06-23T13:07:29Z</time>
      </trkpt>
      <trkpt lat="43.02551" lon="-0.07368">
        <ele>410.46</ele>
        <time>2018-06-23T13:07:33Z</time>
      </trkpt>
      <trkpt lat="43.02533" lon="-0.07375">
        <ele>412.19</ele>
        <time>2018-06-23T13:07:38Z</time>
      </trkpt>
      <trkpt lat="43.02519" lon="-0.07358">
        <ele>408.94</ele>
        <time>2018-06-23T13:07:42Z</time>
      </trkpt>
      <trkpt lat="43.02509" lon="-0.07336">
        <ele>408.53</ele>
        <time>2018-06-23T13:07:46Z</time>
      </trkpt>
      <trkpt lat="43.02502" lon="-0.07311">
        <ele>407.53</ele>
        <time>2018-06-23T13:07:50Z</time>
      </trkpt>
      <trkpt lat="43.02498" lon="-0.07282">
        <ele>405.62</ele>
        <time>2018-06-23T13:07:54Z</time>
      </trkpt>
      <trkpt lat="43.02496" lon="-0.07253">
        <ele>406.5</ele>
        <time>2018-06-23T13:07:58Z</time>
      </trkpt>
      <trkpt lat="43.02496" lon="-0.07225">
        <ele>405.61</ele>
        <time>2018-06-23T13:08:02Z</time>
      </trkpt>
      <trkpt lat="43.02495" lon="-0.072">
        <ele>407.41</ele>
        <time>2018-06-23T13:08:05Z</time>
      </trkpt>
      <trkpt lat="43.02491" lon="-0.07169">
        <ele>408.49</ele>
        <time>2018-06-23T13:08:09Z</time>
      </trkpt>
      <trkpt lat="43.02481" lon="-0.07142">
        <ele>409.51</ele>
        <time>2018-06-23T13:08:14Z</time>
      </trkpt>
      <trkpt lat="43.02472" lon="-0.07117">
        <ele>410.49</ele>
        <time>2018-06-23T13:08:18Z</time>
      </trkpt>
      <trkpt lat="43.02468" lon="-0.07093">
        <ele>410.52</ele>
        <time>2018-06-23T13:08:22Z</time>
      </trkpt>
      <trkpt lat="43.02448" lon="-0.07078">
        <ele>411.58</ele>
        <time>2018-06-23T13:08:27Z</time>
      </trkpt>
      <trkpt lat="43.02431" lon="-0.07064">
        <ele>412.51</ele>
        <time>2018-06-23T13:08:31Z</time>
      </trkpt>
      <trkpt lat="43.02423" lon="-0.07037">
        <ele>412.52</ele>
        <time>2018-06-23T13:08:36Z</time>
      </trkpt>
      <trkpt lat="43.02418" lon="-0.07012">
        <ele>413.43</ele>
        <time>2018-06-23T13:08:40Z</time>
      </trkpt>
      <trkpt lat="43.02409" lon="-0.06985">
        <ele>413.52</ele>
        <time>2018-06-23T13:08:45Z</time>
      </trkpt>
      <trkpt lat="43.02404" lon="-0.06954">
        <ele>413.52</ele>
        <time>2018-06-23T13:08:50Z</time>
      </trkpt>
      <trkpt lat="43.02401" lon="-0.0693">
        <ele>413.73</ele>
        <time>2018-06-23T13:08:54Z</time>
      </trkpt>
      <trkpt lat="43.02398" lon="-0.06902">
        <ele>415.2</ele>
        <time>2018-06-23T13:08:58Z</time>
      </trkpt>
      <trkpt lat="43.02393" lon="-0.06877">
        <ele>414.82</ele>
        <time>2018-06-23T13:09:02Z</time>
      </trkpt>
      <trkpt lat="43.02376" lon="-0.06862">
        <ele>416.22</ele>
        <time>2018-06-23T13:09:06Z</time>
      </trkpt>
      <trkpt lat="43.02362" lon="-0.06845">
        <ele>418.13</ele>
        <time>2018-06-23T13:09:10Z</time>
      </trkpt>
      <trkpt lat="43.02349" lon="-0.06827">
        <ele>417.55</ele>
        <time>2018-06-23T13:09:14Z</time>
      </trkpt>
      <trkpt lat="43.0234" lon="-0.06806">
        <ele>417.52</ele>
        <time>2018-06-23T13:09:18Z</time>
      </trkpt>
      <trkpt lat="43.02338" lon="-0.06777">
        <ele>418.43</ele>
        <time>2018-06-23T13:09:22Z</time>
      </trkpt>
      <trkpt lat="43.02342" lon="-0.06752">
        <ele>419.51</ele>
        <time>2018-06-23T13:09:26Z</time>
      </trkpt>
      <trkpt lat="43.02347" lon="-0.06726">
        <ele>420.49</ele>
        <time>2018-06-23T13:09:30Z</time>
      </trkpt>
      <trkpt lat="43.0235" lon="-0.06699">
        <ele>421.51</ele>
        <time>2018-06-23T13:09:35Z</time>
      </trkpt>
      <trkpt lat="43.02358" lon="-0.06675">
        <ele>421.52</ele>
        <time>2018-06-23T13:09:39Z</time>
      </trkpt>
      <trkpt lat="43.02361" lon="-0.06648">
        <ele>421.52</ele>
        <time>2018-06-23T13:09:43Z</time>
      </trkpt>
      <trkpt lat="43.02343" lon="-0.06637">
        <ele>421.52</ele>
        <time>2018-06-23T13:09:48Z</time>
      </trkpt>
      <trkpt lat="43.0232" lon="-0.0664">
        <ele>420.61</ele>
        <time>2018-06-23T13:09:52Z</time>
      </trkpt>
      <trkpt lat="43.02303" lon="-0.06647">
        <ele>420.52</ele>
        <time>2018-06-23T13:09:55Z</time>
      </trkpt>
      <trkpt lat="43.02287" lon="-0.06671">
        <ele>421.22</ele>
        <time>2018-06-23T13:09:59Z</time>
      </trkpt>
      <trkpt lat="43.0227" lon="-0.0668">
        <ele>420.81</ele>
        <time>2018-06-23T13:10:02Z</time>
      </trkpt>
      <trkpt lat="43.02252" lon="-0.0668">
        <ele>419.62</ele>
        <time>2018-06-23T13:10:05Z</time>
      </trkpt>
      <trkpt lat="43.02229" lon="-0.0668">
        <ele>419.81</ele>
        <time>2018-06-23T13:10:09Z</time>
      </trkpt>
      <trkpt lat="43.02209" lon="-0.06682">
        <ele>421.43</ele>
        <time>2018-06-23T13:10:13Z</time>
      </trkpt>
      <trkpt lat="43.02191" lon="-0.06684">
        <ele>421.58</ele>
        <time>2018-06-23T13:10:16Z</time>
      </trkpt>
      <trkpt lat="43.02168" lon="-0.06687">
        <ele>420.82</ele>
        <time>2018-06-23T13:10:20Z</time>
      </trkpt>
      <trkpt lat="43.0215" lon="-0.0669">
        <ele>420.53</ele>
        <time>2018-06-23T13:10:23Z</time>
      </trkpt>
      <trkpt lat="43.02127" lon="-0.06692">
        <ele>419.53</ele>
        <time>2018-06-23T13:10:27Z</time>
      </trkpt>
      <trkpt lat="43.02105" lon="-0.06693">
        <ele>419.52</ele>
        <time>2018-06-23T13:10:31Z</time>
      </trkpt>
      <trkpt lat="43.02085" lon="-0.06692">
        <ele>419.52</ele>
        <time>2018-06-23T13:10:35Z</time>
      </trkpt>
      <trkpt lat="43.02065" lon="-0.06697">
        <ele>419.58</ele>
        <time>2018-06-23T13:10:39Z</time>
      </trkpt>
      <trkpt lat="43.02046" lon="-0.06704">
        <ele>419.52</ele>
        <time>2018-06-23T13:10:43Z</time>
      </trkpt>
      <trkpt lat="43.02028" lon="-0.06709">
        <ele>420.43</ele>
        <time>2018-06-23T13:10:47Z</time>
      </trkpt>
      <trkpt lat="43.02009" lon="-0.06711">
        <ele>420.52</ele>
        <time>2018-06-23T13:10:51Z</time>
      </trkpt>
      <trkpt lat="43.0199" lon="-0.06711">
        <ele>419.82</ele>
        <time>2018-06-23T13:10:55Z</time>
      </trkpt>
      <trkpt lat="43.01972" lon="-0.06709">
        <ele>419.52</ele>
        <time>2018-06-23T13:10:59Z</time>
      </trkpt>
      <trkpt lat="43.01964" lon="-0.06737">
        <ele>418.83</ele>
        <time>2018-06-23T13:11:04Z</time>
      </trkpt>
      <trkpt lat="43.01961" lon="-0.06765">
        <ele>417.61</ele>
        <time>2018-06-23T13:11:08Z</time>
      </trkpt>
      <trkpt lat="43.01955" lon="-0.06792">
        <ele>417.46</ele>
        <time>2018-06-23T13:11:12Z</time>
      </trkpt>
      <trkpt lat="43.01942" lon="-0.06812">
        <ele>419.21</ele>
        <time>2018-06-23T13:11:16Z</time>
      </trkpt>
      <trkpt lat="43.01926" lon="-0.06828">
        <ele>419.52</ele>
        <time>2018-06-23T13:11:20Z</time>
      </trkpt>
      <trkpt lat="43.0191" lon="-0.06839">
        <ele>421.4</ele>
        <time>2018-06-23T13:11:24Z</time>
      </trkpt>
      <trkpt lat="43.01892" lon="-0.06852">
        <ele>422.43</ele>
        <time>2018-06-23T13:11:28Z</time>
      </trkpt>
      <trkpt lat="43.01875" lon="-0.06865">
        <ele>422.52</ele>
        <time>2018-06-23T13:11:32Z</time>
      </trkpt>
      <trkpt lat="43.01863" lon="-0.06884">
        <ele>423.43</ele>
        <time>2018-06-23T13:11:36Z</time>
      </trkpt>
      <trkpt lat="43.01856" lon="-0.06909">
        <ele>425.42</ele>
        <time>2018-06-23T13:11:40Z</time>
      </trkpt>
      <trkpt lat="43.01844" lon="-0.06932">
        <ele>425.52</ele>
        <time>2018-06-23T13:11:44Z</time>
      </trkpt>
      <trkpt lat="43.01832" lon="-0.06951">
        <ele>426.49</ele>
        <time>2018-06-23T13:11:48Z</time>
      </trkpt>
      <trkpt lat="43.01825" lon="-0.06976">
        <ele>426.55</ele>
        <time>2018-06-23T13:11:53Z</time>
      </trkpt>
      <trkpt lat="43.01841" lon="-0.06991">
        <ele>426.23</ele>
        <time>2018-06-23T13:11:59Z</time>
      </trkpt>
      <trkpt lat="43.01854" lon="-0.0701">
        <ele>427.52</ele>
        <time>2018-06-23T13:12:05Z</time>
      </trkpt>
      <trkpt lat="43.01867" lon="-0.07028">
        <ele>429.13</ele>
        <time>2018-06-23T13:12:11Z</time>
      </trkpt>
      <trkpt lat="43.01869" lon="-0.07054">
        <ele>432.19</ele>
        <time>2018-06-23T13:12:17Z</time>
      </trkpt>
      <trkpt lat="43.01871" lon="-0.0708">
        <ele>435.49</ele>
        <time>2018-06-23T13:12:23Z</time>
      </trkpt>
      <trkpt lat="43.01874" lon="-0.07107">
        <ele>437.22</ele>
        <time>2018-06-23T13:12:29Z</time>
      </trkpt>
      <trkpt lat="43.01877" lon="-0.07132">
        <ele>438.22</ele>
        <time>2018-06-23T13:12:35Z</time>
      </trkpt>
      <trkpt lat="43.01881" lon="-0.07157">
        <ele>439.49</ele>
        <time>2018-06-23T13:12:41Z</time>
      </trkpt>
      <trkpt lat="43.01875" lon="-0.07184">
        <ele>440.52</ele>
        <time>2018-06-23T13:12:48Z</time>
      </trkpt>
      <trkpt lat="43.01861" lon="-0.072">
        <ele>441.51</ele>
        <time>2018-06-23T13:12:54Z</time>
      </trkpt>
      <trkpt lat="43.0184" lon="-0.07206">
        <ele>443.72</ele>
        <time>2018-06-23T13:13:00Z</time>
      </trkpt>
      <trkpt lat="43.0183" lon="-0.07231">
        <ele>444.43</ele>
        <time>2018-06-23T13:13:06Z</time>
      </trkpt>
      <trkpt lat="43.01824" lon="-0.07257">
        <ele>444.52</ele>
        <time>2018-06-23T13:13:12Z</time>
      </trkpt>
      <trkpt lat="43.01813" lon="-0.07277">
        <ele>445.52</ele>
        <time>2018-06-23T13:13:18Z</time>
      </trkpt>
      <trkpt lat="43.01801" lon="-0.07297">
        <ele>446.51</ele>
        <time>2018-06-23T13:13:24Z</time>
      </trkpt>
      <trkpt lat="43.0179" lon="-0.07318">
        <ele>448.49</ele>
        <time>2018-06-23T13:13:30Z</time>
      </trkpt>
      <trkpt lat="43.01779" lon="-0.07341">
        <ele>449.43</ele>
        <time>2018-06-23T13:13:36Z</time>
      </trkpt>
      <trkpt lat="43.01767" lon="-0.07362">
        <ele>450.49</ele>
        <time>2018-06-23T13:13:42Z</time>
      </trkpt>
      <trkpt lat="43.01756" lon="-0.07383">
        <ele>453.19</ele>
        <time>2018-06-23T13:13:48Z</time>
      </trkpt>
      <trkpt lat="43.01741" lon="-0.07399">
        <ele>455.42</ele>
        <time>2018-06-23T13:13:54Z</time>
      </trkpt>
      <trkpt lat="43.01726" lon="-0.07412">
        <ele>458.19</ele>
        <time>2018-06-23T13:14:00Z</time>
      </trkpt>
      <trkpt lat="43.01708" lon="-0.07425">
        <ele>460.42</ele>
        <time>2018-06-23T13:14:06Z</time>
      </trkpt>
      <trkpt lat="43.01689" lon="-0.07437">
        <ele>463.21</ele>
        <time>2018-06-23T13:14:13Z</time>
      </trkpt>
      <trkpt lat="43.01707" lon="-0.07428">
        <ele>469.42</ele>
        <time>2018-06-23T13:14:31Z</time>
      </trkpt>
      <trkpt lat="43.01726" lon="-0.07422">
        <ele>469.52</ele>
        <time>2018-06-23T13:14:40Z</time>
      </trkpt>
      <trkpt lat="43.01745" lon="-0.07424">
        <ele>473.21</ele>
        <time>2018-06-23T13:14:48Z</time>
      </trkpt>
      <trkpt lat="43.01763" lon="-0.07419">
        <ele>475.22</ele>
        <time>2018-06-23T13:14:56Z</time>
      </trkpt>
      <trkpt lat="43.01783" lon="-0.07412">
        <ele>477.22</ele>
        <time>2018-06-23T13:15:04Z</time>
      </trkpt>
      <trkpt lat="43.01802" lon="-0.07405">
        <ele>478.43</ele>
        <time>2018-06-23T13:15:12Z</time>
      </trkpt>
      <trkpt lat="43.01821" lon="-0.07396">
        <ele>480.49</ele>
        <time>2018-06-23T13:15:20Z</time>
      </trkpt>
      <trkpt lat="43.01841" lon="-0.07389">
        <ele>482.49</ele>
        <time>2018-06-23T13:15:27Z</time>
      </trkpt>
      <trkpt lat="43.0186" lon="-0.07393">
        <ele>483.52</ele>
        <time>2018-06-23T13:15:34Z</time>
      </trkpt>
      <trkpt lat="43.01878" lon="-0.07406">
        <ele>488.1</ele>
        <time>2018-06-23T13:15:41Z</time>
      </trkpt>
      <trkpt lat="43.01889" lon="-0.07427">
        <ele>491.42</ele>
        <time>2018-06-23T13:15:47Z</time>
      </trkpt>
      <trkpt lat="43.01899" lon="-0.07449">
        <ele>492.22</ele>
        <time>2018-06-23T13:15:54Z</time>
      </trkpt>
      <trkpt lat="43.01908" lon="-0.07471">
        <ele>492.5</ele>
        <time>2018-06-23T13:16:01Z</time>
      </trkpt>
      <trkpt lat="43.01921" lon="-0.07489">
        <ele>492.52</ele>
        <time>2018-06-23T13:16:09Z</time>
      </trkpt>
      <trkpt lat="43.01937" lon="-0.07501">
        <ele>495.4</ele>
        <time>2018-06-23T13:16:17Z</time>
      </trkpt>
      <trkpt lat="43.01953" lon="-0.07516">
        <ele>498.51</ele>
        <time>2018-06-23T13:16:25Z</time>
      </trkpt>
      <trkpt lat="43.01968" lon="-0.0753">
        <ele>498.85</ele>
        <time>2018-06-23T13:16:34Z</time>
      </trkpt>
      <trkpt lat="43.01951" lon="-0.07524">
        <ele>500.82</ele>
        <time>2018-06-23T13:16:57Z</time>
      </trkpt>
      <trkpt lat="43.01936" lon="-0.07506">
        <ele>504.42</ele>
        <time>2018-06-23T13:18:24Z</time>
      </trkpt>
      <trkpt lat="43.01919" lon="-0.07491">
        <ele>506.82</ele>
        <time>2018-06-23T13:18:33Z</time>
      </trkpt>
      <trkpt lat="43.01904" lon="-0.07476">
        <ele>513.49</ele>
        <time>2018-06-23T13:18:55Z</time>
      </trkpt>
      <trkpt lat="43.01889" lon="-0.07461">
        <ele>516.49</ele>
        <time>2018-06-23T13:19:20Z</time>
      </trkpt>
      <trkpt lat="43.01869" lon="-0.07462">
        <ele>518.72</ele>
        <time>2018-06-23T13:19:28Z</time>
      </trkpt>
      <trkpt lat="43.01852" lon="-0.0747">
        <ele>521.19</ele>
        <time>2018-06-23T13:19:34Z</time>
      </trkpt>
      <trkpt lat="43.01834" lon="-0.07476">
        <ele>523.22</ele>
        <time>2018-06-23T13:19:41Z</time>
      </trkpt>
      <trkpt lat="43.01815" lon="-0.07481">
        <ele>520.52</ele>
        <time>2018-06-23T13:20:22Z</time>
      </trkpt>
      <trkpt lat="43.01799" lon="-0.07494">
        <ele>520.52</ele>
        <time>2018-06-23T13:20:28Z</time>
      </trkpt>
      <trkpt lat="43.01781" lon="-0.07498">
        <ele>521.59</ele>
        <time>2018-06-23T13:20:45Z</time>
      </trkpt>
      <trkpt lat="43.01762" lon="-0.07504">
        <ele>521.58</ele>
        <time>2018-06-23T13:21:00Z</time>
      </trkpt>
      <trkpt lat="43.01744" lon="-0.07511">
        <ele>522.5</ele>
        <time>2018-06-23T13:21:06Z</time>
      </trkpt>
      <trkpt lat="43.01727" lon="-0.07523">
        <ele>523.49</ele>
        <time>2018-06-23T13:21:12Z</time>
      </trkpt>
      <trkpt lat="43.01712" lon="-0.07542">
        <ele>522.61</ele>
        <time>2018-06-23T13:21:17Z</time>
      </trkpt>
      <trkpt lat="43.01694" lon="-0.07556">
        <ele>522.52</ele>
        <time>2018-06-23T13:21:22Z</time>
      </trkpt>
      <trkpt lat="43.0168" lon="-0.07574">
        <ele>522.79</ele>
        <time>2018-06-23T13:21:29Z</time>
      </trkpt>
      <trkpt lat="43.0167" lon="-0.07596">
        <ele>521.32</ele>
        <time>2018-06-23T13:21:35Z</time>
      </trkpt>
      <trkpt lat="43.01658" lon="-0.07619">
        <ele>522.52</ele>
        <time>2018-06-23T13:21:44Z</time>
      </trkpt>
      <trkpt lat="43.01644" lon="-0.07638">
        <ele>523.52</ele>
        <time>2018-06-23T13:21:50Z</time>
      </trkpt>
      <trkpt lat="43.01663" lon="-0.07642">
        <ele>526.52</ele>
        <time>2018-06-23T13:22:04Z</time>
      </trkpt>
      <trkpt lat="43.01656" lon="-0.07666">
        <ele>528.42</ele>
        <time>2018-06-23T13:22:11Z</time>
      </trkpt>
      <trkpt lat="43.01645" lon="-0.07686">
        <ele>531.52</ele>
        <time>2018-06-23T13:22:20Z</time>
      </trkpt>
      <trkpt lat="43.01651" lon="-0.0771">
        <ele>535.43</ele>
        <time>2018-06-23T13:22:32Z</time>
      </trkpt>
      <trkpt lat="43.0165" lon="-0.07736">
        <ele>538.49</ele>
        <time>2018-06-23T13:22:40Z</time>
      </trkpt>
      <trkpt lat="43.01645" lon="-0.07761">
        <ele>540.51</ele>
        <time>2018-06-23T13:22:48Z</time>
      </trkpt>
      <trkpt lat="43.01632" lon="-0.0778">
        <ele>544.42</ele>
        <time>2018-06-23T13:22:56Z</time>
      </trkpt>
      <trkpt lat="43.01616" lon="-0.07795">
        <ele>549.19</ele>
        <time>2018-06-23T13:23:04Z</time>
      </trkpt>
      <trkpt lat="43.01599" lon="-0.0781">
        <ele>551.51</ele>
        <time>2018-06-23T13:23:11Z</time>
      </trkpt>
      <trkpt lat="43.01597" lon="-0.07837">
        <ele>556.13</ele>
        <time>2018-06-23T13:23:20Z</time>
      </trkpt>
      <trkpt lat="43.016" lon="-0.07864">
        <ele>560.42</ele>
        <time>2018-06-23T13:23:28Z</time>
      </trkpt>
      <trkpt lat="43.016" lon="-0.07892">
        <ele>561.42</ele>
        <time>2018-06-23T13:23:35Z</time>
      </trkpt>
      <trkpt lat="43.01597" lon="-0.0792">
        <ele>566.39</ele>
        <time>2018-06-23T13:23:43Z</time>
      </trkpt>
      <trkpt lat="43.01605" lon="-0.07942">
        <ele>568.52</ele>
        <time>2018-06-23T13:23:51Z</time>
      </trkpt>
      <trkpt lat="43.01617" lon="-0.07963">
        <ele>571.21</ele>
        <time>2018-06-23T13:24:00Z</time>
      </trkpt>
      <trkpt lat="43.01624" lon="-0.07988">
        <ele>572.22</ele>
        <time>2018-06-23T13:24:08Z</time>
      </trkpt>
      <trkpt lat="43.01634" lon="-0.0801">
        <ele>574.49</ele>
        <time>2018-06-23T13:24:16Z</time>
      </trkpt>
      <trkpt lat="43.01645" lon="-0.08033">
        <ele>575.43</ele>
        <time>2018-06-23T13:24:23Z</time>
      </trkpt>
      <trkpt lat="43.01656" lon="-0.08053">
        <ele>579.19</ele>
        <time>2018-06-23T13:24:30Z</time>
      </trkpt>
      <trkpt lat="43.01668" lon="-0.08073">
        <ele>582.4</ele>
        <time>2018-06-23T13:24:37Z</time>
      </trkpt>
      <trkpt lat="43.01685" lon="-0.08088">
        <ele>581.55</ele>
        <time>2018-06-23T13:24:44Z</time>
      </trkpt>
      <trkpt lat="43.01704" lon="-0.08099">
        <ele>581.25</ele>
        <time>2018-06-23T13:24:52Z</time>
      </trkpt>
      <trkpt lat="43.01715" lon="-0.08075">
        <ele>578.53</ele>
        <time>2018-06-23T13:25:02Z</time>
      </trkpt>
      <trkpt lat="43.0172" lon="-0.0805">
        <ele>577.52</ele>
        <time>2018-06-23T13:25:09Z</time>
      </trkpt>
      <trkpt lat="43.01733" lon="-0.0803">
        <ele>577.52</ele>
        <time>2018-06-23T13:25:18Z</time>
      </trkpt>
      <trkpt lat="43.01743" lon="-0.08008">
        <ele>576.53</ele>
        <time>2018-06-23T13:25:27Z</time>
      </trkpt>
      <trkpt lat="43.01723" lon="-0.08015">
        <ele>575.52</ele>
        <time>2018-06-23T13:25:57Z</time>
      </trkpt>
      <trkpt lat="43.01718" lon="-0.0799">
        <ele>577.54</ele>
        <time>2018-06-23T13:26:19Z</time>
      </trkpt>
      <trkpt lat="43.01711" lon="-0.07967">
        <ele>579.43</ele>
        <time>2018-06-23T13:26:28Z</time>
      </trkpt>
      <trkpt lat="43.01723" lon="-0.07947">
        <ele>582.21</ele>
        <time>2018-06-23T13:26:41Z</time>
      </trkpt>
      <trkpt lat="43.01741" lon="-0.07935">
        <ele>582.22</ele>
        <time>2018-06-23T13:26:46Z</time>
      </trkpt>
      <trkpt lat="43.01751" lon="-0.07912">
        <ele>581.52</ele>
        <time>2018-06-23T13:26:52Z</time>
      </trkpt>
      <trkpt lat="43.01762" lon="-0.07891">
        <ele>580.61</ele>
        <time>2018-06-23T13:27:02Z</time>
      </trkpt>
      <trkpt lat="43.01778" lon="-0.07879">
        <ele>576.61</ele>
        <time>2018-06-23T13:27:12Z</time>
      </trkpt>
      <trkpt lat="43.01797" lon="-0.07871">
        <ele>573.53</ele>
        <time>2018-06-23T13:27:23Z</time>
      </trkpt>
      <trkpt lat="43.01814" lon="-0.07861">
        <ele>571.85</ele>
        <time>2018-06-23T13:27:27Z</time>
      </trkpt>
      <trkpt lat="43.01817" lon="-0.07886">
        <ele>572.49</ele>
        <time>2018-06-23T13:27:36Z</time>
      </trkpt>
      <trkpt lat="43.01816" lon="-0.07912">
        <ele>571.61</ele>
        <time>2018-06-23T13:27:41Z</time>
      </trkpt>
      <trkpt lat="43.01815" lon="-0.07937">
        <ele>570.53</ele>
        <time>2018-06-23T13:27:45Z</time>
      </trkpt>
      <trkpt lat="43.01825" lon="-0.07963">
        <ele>569.55</ele>
        <time>2018-06-23T13:27:50Z</time>
      </trkpt>
      <trkpt lat="43.01808" lon="-0.0798">
        <ele>568.85</ele>
        <time>2018-06-23T13:27:59Z</time>
      </trkpt>
      <trkpt lat="43.0181" lon="-0.08008">
        <ele>563.65</ele>
        <time>2018-06-23T13:28:05Z</time>
      </trkpt>
      <trkpt lat="43.01822" lon="-0.08031">
        <ele>560.85</ele>
        <time>2018-06-23T13:28:10Z</time>
      </trkpt>
      <trkpt lat="43.01832" lon="-0.08053">
        <ele>558.61</ele>
        <time>2018-06-23T13:28:17Z</time>
      </trkpt>
      <trkpt lat="43.01821" lon="-0.08074">
        <ele>551.85</ele>
        <time>2018-06-23T13:28:35Z</time>
      </trkpt>
      <trkpt lat="43.01802" lon="-0.08083">
        <ele>547.86</ele>
        <time>2018-06-23T13:28:41Z</time>
      </trkpt>
      <trkpt lat="43.01799" lon="-0.08107">
        <ele>545.83</ele>
        <time>2018-06-23T13:28:48Z</time>
      </trkpt>
      <trkpt lat="43.01788" lon="-0.08128">
        <ele>543.61</ele>
        <time>2018-06-23T13:28:56Z</time>
      </trkpt>
      <trkpt lat="43.01776" lon="-0.08152">
        <ele>539.24</ele>
        <time>2018-06-23T13:29:03Z</time>
      </trkpt>
      <trkpt lat="43.0177" lon="-0.08176">
        <ele>533.04</ele>
        <time>2018-06-23T13:29:08Z</time>
      </trkpt>
      <trkpt lat="43.01771" lon="-0.08204">
        <ele>529.62</ele>
        <time>2018-06-23T13:29:13Z</time>
      </trkpt>
      <trkpt lat="43.01774" lon="-0.0823">
        <ele>526.64</ele>
        <time>2018-06-23T13:29:18Z</time>
      </trkpt>
      <trkpt lat="43.01765" lon="-0.08255">
        <ele>526.52</ele>
        <time>2018-06-23T13:29:24Z</time>
      </trkpt>
      <trkpt lat="43.0175" lon="-0.08273">
        <ele>521.21</ele>
        <time>2018-06-23T13:29:32Z</time>
      </trkpt>
      <trkpt lat="43.01736" lon="-0.08294">
        <ele>507.86</ele>
        <time>2018-06-23T13:30:06Z</time>
      </trkpt>
      <trkpt lat="43.01719" lon="-0.08313">
        <ele>504</ele>
        <time>2018-06-23T13:30:12Z</time>
      </trkpt>
      <trkpt lat="43.01701" lon="-0.08319">
        <ele>500.95</ele>
        <time>2018-06-23T13:30:15Z</time>
      </trkpt>
      <trkpt lat="43.01682" lon="-0.08316">
        <ele>496.95</ele>
        <time>2018-06-23T13:30:19Z</time>
      </trkpt>
      <trkpt lat="43.0166" lon="-0.08312">
        <ele>493.86</ele>
        <time>2018-06-23T13:30:23Z</time>
      </trkpt>
      <trkpt lat="43.0164" lon="-0.08314">
        <ele>492.61</ele>
        <time>2018-06-23T13:30:27Z</time>
      </trkpt>
      <trkpt lat="43.01622" lon="-0.08327">
        <ele>491.52</ele>
        <time>2018-06-23T13:30:33Z</time>
      </trkpt>
      <trkpt lat="43.01605" lon="-0.08344">
        <ele>489.53</ele>
        <time>2018-06-23T13:30:39Z</time>
      </trkpt>
      <trkpt lat="43.01587" lon="-0.08355">
        <ele>488.63</ele>
        <time>2018-06-23T13:30:43Z</time>
      </trkpt>
      <trkpt lat="43.01568" lon="-0.08364">
        <ele>485.92</ele>
        <time>2018-06-23T13:30:47Z</time>
      </trkpt>
      <trkpt lat="43.0155" lon="-0.08378">
        <ele>485.53</ele>
        <time>2018-06-23T13:30:51Z</time>
      </trkpt>
      <trkpt lat="43.01532" lon="-0.08388">
        <ele>484.53</ele>
        <time>2018-06-23T13:30:55Z</time>
      </trkpt>
      <trkpt lat="43.01513" lon="-0.08401">
        <ele>483.55</ele>
        <time>2018-06-23T13:31:24Z</time>
      </trkpt>
      <trkpt lat="43.01495" lon="-0.08398">
        <ele>482.52</ele>
        <time>2018-06-23T13:31:30Z</time>
      </trkpt>
      <trkpt lat="43.01477" lon="-0.08385">
        <ele>480.52</ele>
        <time>2018-06-23T13:31:38Z</time>
      </trkpt>
      <trkpt lat="43.01459" lon="-0.08376">
        <ele>479.82</ele>
        <time>2018-06-23T13:31:45Z</time>
      </trkpt>
      <trkpt lat="43.01442" lon="-0.0837">
        <ele>480.43</ele>
        <time>2018-06-23T13:31:51Z</time>
      </trkpt>
      <trkpt lat="43.01427" lon="-0.08355">
        <ele>478.59</ele>
        <time>2018-06-23T13:31:58Z</time>
      </trkpt>
      <trkpt lat="43.01412" lon="-0.08338">
        <ele>478.31</ele>
        <time>2018-06-23T13:32:06Z</time>
      </trkpt>
      <trkpt lat="43.01395" lon="-0.08321">
        <ele>479.49</ele>
        <time>2018-06-23T13:32:13Z</time>
      </trkpt>
      <trkpt lat="43.01378" lon="-0.08309">
        <ele>480.52</ele>
        <time>2018-06-23T13:32:21Z</time>
      </trkpt>
      <trkpt lat="43.01362" lon="-0.08295">
        <ele>482.51</ele>
        <time>2018-06-23T13:32:31Z</time>
      </trkpt>
      <trkpt lat="43.0135" lon="-0.08275">
        <ele>482.82</ele>
        <time>2018-06-23T13:32:40Z</time>
      </trkpt>
      <trkpt lat="43.01342" lon="-0.08249">
        <ele>486.22</ele>
        <time>2018-06-23T13:32:50Z</time>
      </trkpt>
      <trkpt lat="43.0133" lon="-0.08231">
        <ele>487.23</ele>
        <time>2018-06-23T13:32:58Z</time>
      </trkpt>
      <trkpt lat="43.01319" lon="-0.08211">
        <ele>489.22</ele>
        <time>2018-06-23T13:33:08Z</time>
      </trkpt>
      <trkpt lat="43.01306" lon="-0.08192">
        <ele>493.42</ele>
        <time>2018-06-23T13:33:18Z</time>
      </trkpt>
      <trkpt lat="43.013" lon="-0.08166">
        <ele>496.28</ele>
        <time>2018-06-23T13:33:27Z</time>
      </trkpt>
      <trkpt lat="43.01298" lon="-0.08141">
        <ele>498.33</ele>
        <time>2018-06-23T13:33:36Z</time>
      </trkpt>
      <trkpt lat="43.01292" lon="-0.08116">
        <ele>504.12</ele>
        <time>2018-06-23T13:33:47Z</time>
      </trkpt>
      <trkpt lat="43.01298" lon="-0.08092">
        <ele>507.28</ele>
        <time>2018-06-23T13:33:54Z</time>
      </trkpt>
      <trkpt lat="43.01306" lon="-0.08068">
        <ele>510.22</ele>
        <time>2018-06-23T13:34:03Z</time>
      </trkpt>
      <trkpt lat="43.01311" lon="-0.08043">
        <ele>512.44</ele>
        <time>2018-06-23T13:34:11Z</time>
      </trkpt>
      <trkpt lat="43.01309" lon="-0.08015">
        <ele>514.51</ele>
        <time>2018-06-23T13:34:21Z</time>
      </trkpt>
      <trkpt lat="43.01313" lon="-0.07987">
        <ele>512.55</ele>
        <time>2018-06-23T13:34:47Z</time>
      </trkpt>
      <trkpt lat="43.01317" lon="-0.07958">
        <ele>512.52</ele>
        <time>2018-06-23T13:34:51Z</time>
      </trkpt>
      <trkpt lat="43.01301" lon="-0.07934">
        <ele>512.31</ele>
        <time>2018-06-23T13:34:54Z</time>
      </trkpt>
      <trkpt lat="43.013" lon="-0.07909">
        <ele>511.82</ele>
        <time>2018-06-23T13:34:59Z</time>
      </trkpt>
      <trkpt lat="43.01319" lon="-0.07897">
        <ele>510.34</ele>
        <time>2018-06-23T13:35:04Z</time>
      </trkpt>
      <trkpt lat="43.0134" lon="-0.07891">
        <ele>510.81</ele>
        <time>2018-06-23T13:35:08Z</time>
      </trkpt>
      <trkpt lat="43.01329" lon="-0.07869">
        <ele>507.64</ele>
        <time>2018-06-23T13:35:16Z</time>
      </trkpt>
      <trkpt lat="43.01312" lon="-0.07853">
        <ele>504.65</ele>
        <time>2018-06-23T13:35:21Z</time>
      </trkpt>
      <trkpt lat="43.01292" lon="-0.07837">
        <ele>500.95</ele>
        <time>2018-06-23T13:35:25Z</time>
      </trkpt>
      <trkpt lat="43.01272" lon="-0.07827">
        <ele>497.95</ele>
        <time>2018-06-23T13:35:28Z</time>
      </trkpt>
      <trkpt lat="43.01249" lon="-0.07817">
        <ele>496.83</ele>
        <time>2018-06-23T13:35:31Z</time>
      </trkpt>
      <trkpt lat="43.01231" lon="-0.0779">
        <ele>493.25</ele>
        <time>2018-06-23T13:35:34Z</time>
      </trkpt>
      <trkpt lat="43.01218" lon="-0.07773">
        <ele>490.98</ele>
        <time>2018-06-23T13:35:36Z</time>
      </trkpt>
      <trkpt lat="43.01196" lon="-0.07762">
        <ele>490.53</ele>
        <time>2018-06-23T13:35:39Z</time>
      </trkpt>
      <trkpt lat="43.01179" lon="-0.07754">
        <ele>490.52</ele>
        <time>2018-06-23T13:35:42Z</time>
      </trkpt>
      <trkpt lat="43.01158" lon="-0.07747">
        <ele>489.61</ele>
        <time>2018-06-23T13:35:46Z</time>
      </trkpt>
      <trkpt lat="43.01137" lon="-0.07745">
        <ele>488.8</ele>
        <time>2018-06-23T13:35:50Z</time>
      </trkpt>
      <trkpt lat="43.01114" lon="-0.07742">
        <ele>489.22</ele>
        <time>2018-06-23T13:35:54Z</time>
      </trkpt>
      <trkpt lat="43.01096" lon="-0.07752">
        <ele>490.43</ele>
        <time>2018-06-23T13:35:58Z</time>
      </trkpt>
      <trkpt lat="43.01074" lon="-0.07761">
        <ele>489.53</ele>
        <time>2018-06-23T13:36:02Z</time>
      </trkpt>
      <trkpt lat="43.01052" lon="-0.0776">
        <ele>488.82</ele>
        <time>2018-06-23T13:36:06Z</time>
      </trkpt>
      <trkpt lat="43.01033" lon="-0.07758">
        <ele>488.8</ele>
        <time>2018-06-23T13:36:09Z</time>
      </trkpt>
      <trkpt lat="43.01007" lon="-0.07762">
        <ele>488.53</ele>
        <time>2018-06-23T13:36:12Z</time>
      </trkpt>
      <trkpt lat="43.00989" lon="-0.07768">
        <ele>487.82</ele>
        <time>2018-06-23T13:36:14Z</time>
      </trkpt>
      <trkpt lat="43.0097" lon="-0.07776">
        <ele>487.55</ele>
        <time>2018-06-23T13:36:16Z</time>
      </trkpt>
      <trkpt lat="43.00951" lon="-0.07776">
        <ele>487.52</ele>
        <time>2018-06-23T13:36:18Z</time>
      </trkpt>
      <trkpt lat="43.00925" lon="-0.07766">
        <ele>484.94</ele>
        <time>2018-06-23T13:36:21Z</time>
      </trkpt>
      <trkpt lat="43.00899" lon="-0.07767">
        <ele>483.62</ele>
        <time>2018-06-23T13:36:24Z</time>
      </trkpt>
      <trkpt lat="43.00876" lon="-0.07781">
        <ele>482.55</ele>
        <time>2018-06-23T13:36:27Z</time>
      </trkpt>
      <trkpt lat="43.00855" lon="-0.07795">
        <ele>481.61</ele>
        <time>2018-06-23T13:36:30Z</time>
      </trkpt>
      <trkpt lat="43.00835" lon="-0.07809">
        <ele>480.55</ele>
        <time>2018-06-23T13:36:33Z</time>
      </trkpt>
      <trkpt lat="43.00817" lon="-0.07826">
        <ele>480.52</ele>
        <time>2018-06-23T13:36:36Z</time>
      </trkpt>
      <trkpt lat="43.00802" lon="-0.07846">
        <ele>480.52</ele>
        <time>2018-06-23T13:36:39Z</time>
      </trkpt>
      <trkpt lat="43.00784" lon="-0.07863">
        <ele>479.61</ele>
        <time>2018-06-23T13:36:42Z</time>
      </trkpt>
      <trkpt lat="43.00769" lon="-0.07884">
        <ele>476.94</ele>
        <time>2018-06-23T13:36:45Z</time>
      </trkpt>
      <trkpt lat="43.00767" lon="-0.07912">
        <ele>476.53</ele>
        <time>2018-06-23T13:36:48Z</time>
      </trkpt>
      <trkpt lat="43.00763" lon="-0.07943">
        <ele>475.61</ele>
        <time>2018-06-23T13:36:51Z</time>
      </trkpt>
      <trkpt lat="43.00759" lon="-0.07976">
        <ele>474.61</ele>
        <time>2018-06-23T13:36:54Z</time>
      </trkpt>
      <trkpt lat="43.0077" lon="-0.08011">
        <ele>472.91</ele>
        <time>2018-06-23T13:36:57Z</time>
      </trkpt>
      <trkpt lat="43.00771" lon="-0.08044">
        <ele>470.65</ele>
        <time>2018-06-23T13:37:00Z</time>
      </trkpt>
      <trkpt lat="43.0076" lon="-0.08069">
        <ele>469.83</ele>
        <time>2018-06-23T13:37:03Z</time>
      </trkpt>
      <trkpt lat="43.0074" lon="-0.08095">
        <ele>467.22</ele>
        <time>2018-06-23T13:37:06Z</time>
      </trkpt>
      <trkpt lat="43.00723" lon="-0.08106">
        <ele>464.87</ele>
        <time>2018-06-23T13:37:09Z</time>
      </trkpt>
      <trkpt lat="43.00701" lon="-0.08086">
        <ele>463.62</ele>
        <time>2018-06-23T13:37:12Z</time>
      </trkpt>
      <trkpt lat="43.00677" lon="-0.08089">
        <ele>463.52</ele>
        <time>2018-06-23T13:37:15Z</time>
      </trkpt>
      <trkpt lat="43.00662" lon="-0.08103">
        <ele>462.82</ele>
        <time>2018-06-23T13:37:17Z</time>
      </trkpt>
      <trkpt lat="43.00637" lon="-0.08103">
        <ele>459.95</ele>
        <time>2018-06-23T13:37:20Z</time>
      </trkpt>
      <trkpt lat="43.00619" lon="-0.08092">
        <ele>458.86</ele>
        <time>2018-06-23T13:37:22Z</time>
      </trkpt>
      <trkpt lat="43.00597" lon="-0.08093">
        <ele>457.85</ele>
        <time>2018-06-23T13:37:24Z</time>
      </trkpt>
      <trkpt lat="43.00578" lon="-0.08094">
        <ele>456.15</ele>
        <time>2018-06-23T13:37:26Z</time>
      </trkpt>
      <trkpt lat="43.00554" lon="-0.08095">
        <ele>451.35</ele>
        <time>2018-06-23T13:37:29Z</time>
      </trkpt>
      <trkpt lat="43.00536" lon="-0.08095">
        <ele>450.27</ele>
        <time>2018-06-23T13:37:32Z</time>
      </trkpt>
      <trkpt lat="43.00521" lon="-0.08111">
        <ele>448.61</ele>
        <time>2018-06-23T13:37:40Z</time>
      </trkpt>
      <trkpt lat="43.00521" lon="-0.0814">
        <ele>446.61</ele>
        <time>2018-06-23T13:37:46Z</time>
      </trkpt>
      <trkpt lat="43.00522" lon="-0.08173">
        <ele>446.52</ele>
        <time>2018-06-23T13:37:50Z</time>
      </trkpt>
      <trkpt lat="43.00501" lon="-0.08165">
        <ele>444.82</ele>
        <time>2018-06-23T13:38:02Z</time>
      </trkpt>
      <trkpt lat="43.00487" lon="-0.08149">
        <ele>444.52</ele>
        <time>2018-06-23T13:38:07Z</time>
      </trkpt>
      <trkpt lat="43.0047" lon="-0.08139">
        <ele>443.55</ele>
        <time>2018-06-23T13:38:11Z</time>
      </trkpt>
      <trkpt lat="43.0045" lon="-0.08128">
        <ele>441.85</ele>
        <time>2018-06-23T13:38:15Z</time>
      </trkpt>
      <trkpt lat="43.00429" lon="-0.08125">
        <ele>440.55</ele>
        <time>2018-06-23T13:38:19Z</time>
      </trkpt>
      <trkpt lat="43.00407" lon="-0.08123">
        <ele>438.85</ele>
        <time>2018-06-23T13:38:23Z</time>
      </trkpt>
      <trkpt lat="43.00389" lon="-0.08119">
        <ele>438.53</ele>
        <time>2018-06-23T13:38:26Z</time>
      </trkpt>
      <trkpt lat="43.00367" lon="-0.08115">
        <ele>439.43</ele>
        <time>2018-06-23T13:38:30Z</time>
      </trkpt>
      <trkpt lat="43.00347" lon="-0.0811">
        <ele>440.49</ele>
        <time>2018-06-23T13:38:34Z</time>
      </trkpt>
      <trkpt lat="43.00328" lon="-0.08107">
        <ele>440.52</ele>
        <time>2018-06-23T13:38:38Z</time>
      </trkpt>
      <trkpt lat="43.00307" lon="-0.08114">
        <ele>440.52</ele>
        <time>2018-06-23T13:38:42Z</time>
      </trkpt>
      <trkpt lat="43.00287" lon="-0.08114">
        <ele>440.52</ele>
        <time>2018-06-23T13:38:46Z</time>
      </trkpt>
      <trkpt lat="43.00267" lon="-0.08111">
        <ele>437.65</ele>
        <time>2018-06-23T13:38:50Z</time>
      </trkpt>
      <trkpt lat="43.00246" lon="-0.08113">
        <ele>435.85</ele>
        <time>2018-06-23T13:38:56Z</time>
      </trkpt>
      <trkpt lat="43.00228" lon="-0.08113">
        <ele>435.43</ele>
        <time>2018-06-23T13:39:13Z</time>
      </trkpt>
      <trkpt lat="43.00209" lon="-0.08109">
        <ele>436.51</ele>
        <time>2018-06-23T13:39:20Z</time>
      </trkpt>
      <trkpt lat="43.00187" lon="-0.08107">
        <ele>434.32</ele>
        <time>2018-06-23T13:39:25Z</time>
      </trkpt>
      <trkpt lat="43.00167" lon="-0.08113">
        <ele>433.61</ele>
        <time>2018-06-23T13:39:29Z</time>
      </trkpt>
      <trkpt lat="43.00143" lon="-0.08112">
        <ele>433.52</ele>
        <time>2018-06-23T13:39:33Z</time>
      </trkpt>
      <trkpt lat="43.0012" lon="-0.08116">
        <ele>434.43</ele>
        <time>2018-06-23T13:39:37Z</time>
      </trkpt>
      <trkpt lat="43.001" lon="-0.08107">
        <ele>434.52</ele>
        <time>2018-06-23T13:39:47Z</time>
      </trkpt>
      <trkpt lat="43.00081" lon="-0.08104">
        <ele>435.51</ele>
        <time>2018-06-23T13:39:52Z</time>
      </trkpt>
      <trkpt lat="43.00061" lon="-0.08097">
        <ele>435.52</ele>
        <time>2018-06-23T13:39:56Z</time>
      </trkpt>
      <trkpt lat="43.0004" lon="-0.08095">
        <ele>435.52</ele>
        <time>2018-06-23T13:40:00Z</time>
      </trkpt>
      <trkpt lat="43.00021" lon="-0.08096">
        <ele>436.7</ele>
        <time>2018-06-23T13:40:04Z</time>
      </trkpt>
      <trkpt lat="43.00001" lon="-0.08098">
        <ele>434.83</ele>
        <time>2018-06-23T13:40:08Z</time>
      </trkpt>
      <trkpt lat="42.99982" lon="-0.08102">
        <ele>435.52</ele>
        <time>2018-06-23T13:40:12Z</time>
      </trkpt>
      <trkpt lat="42.99963" lon="-0.08103">
        <ele>434.61</ele>
        <time>2018-06-23T13:40:17Z</time>
      </trkpt>
      <trkpt lat="42.99943" lon="-0.08103">
        <ele>435.51</ele>
        <time>2018-06-23T13:40:21Z</time>
      </trkpt>
      <trkpt lat="42.99923" lon="-0.08104">
        <ele>434.82</ele>
        <time>2018-06-23T13:40:25Z</time>
      </trkpt>
      <trkpt lat="42.99904" lon="-0.08104">
        <ele>434.75</ele>
        <time>2018-06-23T13:40:29Z</time>
      </trkpt>
      <trkpt lat="42.99883" lon="-0.08106">
        <ele>434.52</ele>
        <time>2018-06-23T13:40:35Z</time>
      </trkpt>
      <trkpt lat="42.99863" lon="-0.08102">
        <ele>433.61</ele>
        <time>2018-06-23T13:40:40Z</time>
      </trkpt>
      <trkpt lat="42.99844" lon="-0.08098">
        <ele>433.29</ele>
        <time>2018-06-23T13:40:45Z</time>
      </trkpt>
      <trkpt lat="42.99824" lon="-0.08095">
        <ele>434.51</ele>
        <time>2018-06-23T13:40:50Z</time>
      </trkpt>
      <trkpt lat="42.99801" lon="-0.08093">
        <ele>432.85</ele>
        <time>2018-06-23T13:40:54Z</time>
      </trkpt>
      <trkpt lat="42.99784" lon="-0.08107">
        <ele>434.2</ele>
        <time>2018-06-23T13:40:59Z</time>
      </trkpt>
      <trkpt lat="42.99765" lon="-0.08112">
        <ele>435.49</ele>
        <time>2018-06-23T13:41:04Z</time>
      </trkpt>
      <trkpt lat="42.99745" lon="-0.08117">
        <ele>435.81</ele>
        <time>2018-06-23T13:41:08Z</time>
      </trkpt>
      <trkpt lat="42.99727" lon="-0.08128">
        <ele>435.31</ele>
        <time>2018-06-23T13:41:12Z</time>
      </trkpt>
      <trkpt lat="42.99705" lon="-0.08126">
        <ele>437.41</ele>
        <time>2018-06-23T13:41:17Z</time>
      </trkpt>
      <trkpt lat="42.99686" lon="-0.08126">
        <ele>437.52</ele>
        <time>2018-06-23T13:41:21Z</time>
      </trkpt>
      <trkpt lat="42.99664" lon="-0.08122">
        <ele>437.52</ele>
        <time>2018-06-23T13:41:26Z</time>
      </trkpt>
      <trkpt lat="42.99645" lon="-0.08119">
        <ele>437.52</ele>
        <time>2018-06-23T13:41:30Z</time>
      </trkpt>
      <trkpt lat="42.99625" lon="-0.08121">
        <ele>436.82</ele>
        <time>2018-06-23T13:41:34Z</time>
      </trkpt>
      <trkpt lat="42.99606" lon="-0.08117">
        <ele>436.52</ele>
        <time>2018-06-23T13:41:38Z</time>
      </trkpt>
      <trkpt lat="42.99587" lon="-0.08115">
        <ele>435.55</ele>
        <time>2018-06-23T13:41:42Z</time>
      </trkpt>
      <trkpt lat="42.99567" lon="-0.08111">
        <ele>435.52</ele>
        <time>2018-06-23T13:41:46Z</time>
      </trkpt>
      <trkpt lat="42.99548" lon="-0.08104">
        <ele>434.55</ele>
        <time>2018-06-23T13:41:50Z</time>
      </trkpt>
      <trkpt lat="42.99529" lon="-0.08098">
        <ele>434.52</ele>
        <time>2018-06-23T13:41:54Z</time>
      </trkpt>
      <trkpt lat="42.9951" lon="-0.08094">
        <ele>434.52</ele>
        <time>2018-06-23T13:41:58Z</time>
      </trkpt>
      <trkpt lat="42.99492" lon="-0.08089">
        <ele>434.52</ele>
        <time>2018-06-23T13:42:02Z</time>
      </trkpt>
      <trkpt lat="42.99473" lon="-0.08085">
        <ele>435.49</ele>
        <time>2018-06-23T13:42:06Z</time>
      </trkpt>
      <trkpt lat="42.99451" lon="-0.08083">
        <ele>434.63</ele>
        <time>2018-06-23T13:42:10Z</time>
      </trkpt>
      <trkpt lat="42.99431" lon="-0.08087">
        <ele>435.22</ele>
        <time>2018-06-23T13:42:14Z</time>
      </trkpt>
      <trkpt lat="42.9941" lon="-0.08096">
        <ele>434.61</ele>
        <time>2018-06-23T13:42:18Z</time>
      </trkpt>
      <trkpt lat="42.99391" lon="-0.08103">
        <ele>433.61</ele>
        <time>2018-06-23T13:42:22Z</time>
      </trkpt>
      <trkpt lat="42.99372" lon="-0.08106">
        <ele>432.82</ele>
        <time>2018-06-23T13:42:26Z</time>
      </trkpt>
      <trkpt lat="42.99353" lon="-0.08105">
        <ele>432.52</ele>
        <time>2018-06-23T13:42:30Z</time>
      </trkpt>
      <trkpt lat="42.99334" lon="-0.08099">
        <ele>434.42</ele>
        <time>2018-06-23T13:42:35Z</time>
      </trkpt>
      <trkpt lat="42.99318" lon="-0.08082">
        <ele>434.52</ele>
        <time>2018-06-23T13:42:41Z</time>
      </trkpt>
      <trkpt lat="42.99304" lon="-0.08061">
        <ele>435.25</ele>
        <time>2018-06-23T13:42:46Z</time>
      </trkpt>
      <trkpt lat="42.99289" lon="-0.08041">
        <ele>430.58</ele>
        <time>2018-06-23T13:42:51Z</time>
      </trkpt>
      <trkpt lat="42.99273" lon="-0.08029">
        <ele>430.52</ele>
        <time>2018-06-23T13:42:56Z</time>
      </trkpt>
      <trkpt lat="42.99257" lon="-0.08013">
        <ele>428.91</ele>
        <time>2018-06-23T13:43:00Z</time>
      </trkpt>
      <trkpt lat="42.99241" lon="-0.07998">
        <ele>429.51</ele>
        <time>2018-06-23T13:43:05Z</time>
      </trkpt>
      <trkpt lat="42.99225" lon="-0.07983">
        <ele>429.52</ele>
        <time>2018-06-23T13:43:09Z</time>
      </trkpt>
      <trkpt lat="42.99208" lon="-0.07971">
        <ele>428.52</ele>
        <time>2018-06-23T13:43:14Z</time>
      </trkpt>
      <trkpt lat="42.99191" lon="-0.07959">
        <ele>426.55</ele>
        <time>2018-06-23T13:43:19Z</time>
      </trkpt>
      <trkpt lat="42.99174" lon="-0.0795">
        <ele>427.22</ele>
        <time>2018-06-23T13:43:24Z</time>
      </trkpt>
      <trkpt lat="42.99161" lon="-0.07932">
        <ele>427.79</ele>
        <time>2018-06-23T13:43:30Z</time>
      </trkpt>
      <trkpt lat="42.99149" lon="-0.0791">
        <ele>429.49</ele>
        <time>2018-06-23T13:43:39Z</time>
      </trkpt>
      <trkpt lat="42.99131" lon="-0.07898">
        <ele>430.49</ele>
        <time>2018-06-23T13:43:44Z</time>
      </trkpt>
      <trkpt lat="42.9911" lon="-0.07885">
        <ele>428.82</ele>
        <time>2018-06-23T13:43:49Z</time>
      </trkpt>
      <trkpt lat="42.99096" lon="-0.07867">
        <ele>426.85</ele>
        <time>2018-06-23T13:43:53Z</time>
      </trkpt>
      <trkpt lat="42.99083" lon="-0.07849">
        <ele>426.52</ele>
        <time>2018-06-23T13:43:57Z</time>
      </trkpt>
      <trkpt lat="42.99072" lon="-0.07825">
        <ele>424.85</ele>
        <time>2018-06-23T13:44:01Z</time>
      </trkpt>
      <trkpt lat="42.99065" lon="-0.07797">
        <ele>423.61</ele>
        <time>2018-06-23T13:44:05Z</time>
      </trkpt>
      <trkpt lat="42.99065" lon="-0.07768">
        <ele>425.13</ele>
        <time>2018-06-23T13:44:09Z</time>
      </trkpt>
      <trkpt lat="42.99061" lon="-0.07741">
        <ele>425.52</ele>
        <time>2018-06-23T13:44:14Z</time>
      </trkpt>
      <trkpt lat="42.99047" lon="-0.07726">
        <ele>430.42</ele>
        <time>2018-06-23T13:44:38Z</time>
      </trkpt>
      <trkpt lat="42.99028" lon="-0.07722">
        <ele>433.34</ele>
        <time>2018-06-23T13:44:45Z</time>
      </trkpt>
      <trkpt lat="42.99017" lon="-0.07746">
        <ele>433.52</ele>
        <time>2018-06-23T13:44:50Z</time>
      </trkpt>
      <trkpt lat="42.99001" lon="-0.07768">
        <ele>430.65</ele>
        <time>2018-06-23T13:44:54Z</time>
      </trkpt>
      <trkpt lat="42.98988" lon="-0.07793">
        <ele>429.53</ele>
        <time>2018-06-23T13:44:58Z</time>
      </trkpt>
      <trkpt lat="42.98976" lon="-0.07815">
        <ele>428.61</ele>
        <time>2018-06-23T13:45:02Z</time>
      </trkpt>
      <trkpt lat="42.98964" lon="-0.0784">
        <ele>428.81</ele>
        <time>2018-06-23T13:45:06Z</time>
      </trkpt>
      <trkpt lat="42.98953" lon="-0.07863">
        <ele>430.45</ele>
        <time>2018-06-23T13:45:10Z</time>
      </trkpt>
      <trkpt lat="42.98935" lon="-0.07869">
        <ele>429.82</ele>
        <time>2018-06-23T13:45:14Z</time>
      </trkpt>
      <trkpt lat="42.98917" lon="-0.07853">
        <ele>429.52</ele>
        <time>2018-06-23T13:45:18Z</time>
      </trkpt>
      <trkpt lat="42.98898" lon="-0.07835">
        <ele>426.92</ele>
        <time>2018-06-23T13:45:22Z</time>
      </trkpt>
      <trkpt lat="42.98883" lon="-0.07822">
        <ele>426.53</ele>
        <time>2018-06-23T13:45:26Z</time>
      </trkpt>
      <trkpt lat="42.98866" lon="-0.07805">
        <ele>425.55</ele>
        <time>2018-06-23T13:45:30Z</time>
      </trkpt>
      <trkpt lat="42.98847" lon="-0.07798">
        <ele>422.65</ele>
        <time>2018-06-23T13:45:34Z</time>
      </trkpt>
      <trkpt lat="42.98828" lon="-0.07783">
        <ele>421.82</ele>
        <time>2018-06-23T13:45:40Z</time>
      </trkpt>
      <trkpt lat="42.98811" lon="-0.07763">
        <ele>421.52</ele>
        <time>2018-06-23T13:45:45Z</time>
      </trkpt>
      <trkpt lat="42.98795" lon="-0.07742">
        <ele>420.52</ele>
        <time>2018-06-23T13:45:50Z</time>
      </trkpt>
      <trkpt lat="42.9878" lon="-0.07724">
        <ele>423.51</ele>
        <time>2018-06-23T13:46:06Z</time>
      </trkpt>
      <trkpt lat="42.98768" lon="-0.077">
        <ele>424.22</ele>
        <time>2018-06-23T13:46:10Z</time>
      </trkpt>
      <trkpt lat="42.98753" lon="-0.07677">
        <ele>424.52</ele>
        <time>2018-06-23T13:46:14Z</time>
      </trkpt>
      <trkpt lat="42.98733" lon="-0.07665">
        <ele>425.22</ele>
        <time>2018-06-23T13:46:18Z</time>
      </trkpt>
      <trkpt lat="42.98716" lon="-0.07648">
        <ele>427.4</ele>
        <time>2018-06-23T13:46:22Z</time>
      </trkpt>
      <trkpt lat="42.987" lon="-0.07628">
        <ele>428.22</ele>
        <time>2018-06-23T13:46:26Z</time>
      </trkpt>
      <trkpt lat="42.98679" lon="-0.07613">
        <ele>428.52</ele>
        <time>2018-06-23T13:46:31Z</time>
      </trkpt>
      <trkpt lat="42.98658" lon="-0.07606">
        <ele>429.22</ele>
        <time>2018-06-23T13:46:35Z</time>
      </trkpt>
      <trkpt lat="42.98639" lon="-0.07606">
        <ele>431.19</ele>
        <time>2018-06-23T13:46:38Z</time>
      </trkpt>
      <trkpt lat="42.98617" lon="-0.07599">
        <ele>433.42</ele>
        <time>2018-06-23T13:46:42Z</time>
      </trkpt>
      <trkpt lat="42.98597" lon="-0.07583">
        <ele>434.51</ele>
        <time>2018-06-23T13:46:46Z</time>
      </trkpt>
      <trkpt lat="42.98582" lon="-0.07569">
        <ele>433.55</ele>
        <time>2018-06-23T13:46:49Z</time>
      </trkpt>
      <trkpt lat="42.98568" lon="-0.07554">
        <ele>433.52</ele>
        <time>2018-06-23T13:46:52Z</time>
      </trkpt>
      <trkpt lat="42.98549" lon="-0.07533">
        <ele>431.64</ele>
        <time>2018-06-23T13:46:56Z</time>
      </trkpt>
      <trkpt lat="42.98532" lon="-0.07523">
        <ele>430.55</ele>
        <time>2018-06-23T13:46:59Z</time>
      </trkpt>
      <trkpt lat="42.9851" lon="-0.07532">
        <ele>429.61</ele>
        <time>2018-06-23T13:47:03Z</time>
      </trkpt>
      <trkpt lat="42.98491" lon="-0.0755">
        <ele>429.23</ele>
        <time>2018-06-23T13:47:07Z</time>
      </trkpt>
      <trkpt lat="42.98476" lon="-0.07569">
        <ele>430.21</ele>
        <time>2018-06-23T13:47:10Z</time>
      </trkpt>
      <trkpt lat="42.98462" lon="-0.07583">
        <ele>430.51</ele>
        <time>2018-06-23T13:47:13Z</time>
      </trkpt>
      <trkpt lat="42.98439" lon="-0.07589">
        <ele>431.43</ele>
        <time>2018-06-23T13:47:17Z</time>
      </trkpt>
      <trkpt lat="42.98418" lon="-0.07577">
        <ele>433.4</ele>
        <time>2018-06-23T13:47:21Z</time>
      </trkpt>
      <trkpt lat="42.98404" lon="-0.07561">
        <ele>432.82</ele>
        <time>2018-06-23T13:47:24Z</time>
      </trkpt>
      <trkpt lat="42.9839" lon="-0.07544">
        <ele>430.92</ele>
        <time>2018-06-23T13:47:27Z</time>
      </trkpt>
      <trkpt lat="42.98378" lon="-0.07523">
        <ele>428.92</ele>
        <time>2018-06-23T13:47:30Z</time>
      </trkpt>
      <trkpt lat="42.9836" lon="-0.07514">
        <ele>428.32</ele>
        <time>2018-06-23T13:47:33Z</time>
      </trkpt>
      <trkpt lat="42.98338" lon="-0.07505">
        <ele>428.52</ele>
        <time>2018-06-23T13:47:37Z</time>
      </trkpt>
      <trkpt lat="42.98316" lon="-0.075">
        <ele>429.43</ele>
        <time>2018-06-23T13:47:41Z</time>
      </trkpt>
      <trkpt lat="42.98295" lon="-0.07489">
        <ele>432.12</ele>
        <time>2018-06-23T13:47:45Z</time>
      </trkpt>
      <trkpt lat="42.98274" lon="-0.07482">
        <ele>433.22</ele>
        <time>2018-06-23T13:47:49Z</time>
      </trkpt>
      <trkpt lat="42.98261" lon="-0.07456">
        <ele>433.79</ele>
        <time>2018-06-23T13:47:53Z</time>
      </trkpt>
      <trkpt lat="42.98247" lon="-0.07431">
        <ele>433.52</ele>
        <time>2018-06-23T13:47:57Z</time>
      </trkpt>
      <trkpt lat="42.98232" lon="-0.07407">
        <ele>430.86</ele>
        <time>2018-06-23T13:48:01Z</time>
      </trkpt>
      <trkpt lat="42.98217" lon="-0.07383">
        <ele>430.52</ele>
        <time>2018-06-23T13:48:05Z</time>
      </trkpt>
      <trkpt lat="42.98202" lon="-0.07362">
        <ele>431.43</ele>
        <time>2018-06-23T13:48:09Z</time>
      </trkpt>
      <trkpt lat="42.98186" lon="-0.07342">
        <ele>430.53</ele>
        <time>2018-06-23T13:48:13Z</time>
      </trkpt>
      <trkpt lat="42.98168" lon="-0.07326">
        <ele>428.83</ele>
        <time>2018-06-23T13:48:17Z</time>
      </trkpt>
      <trkpt lat="42.98149" lon="-0.0731">
        <ele>427.55</ele>
        <time>2018-06-23T13:48:21Z</time>
      </trkpt>
      <trkpt lat="42.98129" lon="-0.0731">
        <ele>426.55</ele>
        <time>2018-06-23T13:48:25Z</time>
      </trkpt>
      <trkpt lat="42.98112" lon="-0.07329">
        <ele>426.52</ele>
        <time>2018-06-23T13:48:29Z</time>
      </trkpt>
      <trkpt lat="42.98091" lon="-0.0734">
        <ele>426.52</ele>
        <time>2018-06-23T13:48:33Z</time>
      </trkpt>
      <trkpt lat="42.9807" lon="-0.07347">
        <ele>427.49</ele>
        <time>2018-06-23T13:48:37Z</time>
      </trkpt>
      <trkpt lat="42.9805" lon="-0.07352">
        <ele>429.43</ele>
        <time>2018-06-23T13:48:42Z</time>
      </trkpt>
      <trkpt lat="42.9803" lon="-0.07351">
        <ele>436.42</ele>
        <time>2018-06-23T13:49:25Z</time>
      </trkpt>
      <trkpt lat="42.98009" lon="-0.07349">
        <ele>439.38</ele>
        <time>2018-06-23T13:49:30Z</time>
      </trkpt>
      <trkpt lat="42.97989" lon="-0.07346">
        <ele>440.22</ele>
        <time>2018-06-23T13:49:34Z</time>
      </trkpt>
      <trkpt lat="42.97969" lon="-0.07343">
        <ele>442.4</ele>
        <time>2018-06-23T13:49:38Z</time>
      </trkpt>
      <trkpt lat="42.97949" lon="-0.07341">
        <ele>445.19</ele>
        <time>2018-06-23T13:49:42Z</time>
      </trkpt>
      <trkpt lat="42.9793" lon="-0.07336">
        <ele>445.73</ele>
        <time>2018-06-23T13:49:46Z</time>
      </trkpt>
      <trkpt lat="42.97912" lon="-0.07333">
        <ele>445.52</ele>
        <time>2018-06-23T13:49:50Z</time>
      </trkpt>
      <trkpt lat="42.97892" lon="-0.0733">
        <ele>445.5</ele>
        <time>2018-06-23T13:49:54Z</time>
      </trkpt>
      <trkpt lat="42.97872" lon="-0.07326">
        <ele>445.52</ele>
        <time>2018-06-23T13:49:58Z</time>
      </trkpt>
      <trkpt lat="42.97851" lon="-0.07332">
        <ele>444.46</ele>
        <time>2018-06-23T13:50:03Z</time>
      </trkpt>
      <trkpt lat="42.97835" lon="-0.07353">
        <ele>441.92</ele>
        <time>2018-06-23T13:50:09Z</time>
      </trkpt>
      <trkpt lat="42.97819" lon="-0.07367">
        <ele>443.49</ele>
        <time>2018-06-23T13:50:13Z</time>
      </trkpt>
      <trkpt lat="42.97799" lon="-0.07379">
        <ele>444.43</ele>
        <time>2018-06-23T13:50:17Z</time>
      </trkpt>
      <trkpt lat="42.97778" lon="-0.07391">
        <ele>445.43</ele>
        <time>2018-06-23T13:50:21Z</time>
      </trkpt>
      <trkpt lat="42.97761" lon="-0.07403">
        <ele>445.52</ele>
        <time>2018-06-23T13:50:24Z</time>
      </trkpt>
      <trkpt lat="42.97744" lon="-0.07413">
        <ele>444.82</ele>
        <time>2018-06-23T13:50:27Z</time>
      </trkpt>
      <trkpt lat="42.97727" lon="-0.07427">
        <ele>443.62</ele>
        <time>2018-06-23T13:50:30Z</time>
      </trkpt>
      <trkpt lat="42.97712" lon="-0.07443">
        <ele>443.52</ele>
        <time>2018-06-23T13:50:33Z</time>
      </trkpt>
      <trkpt lat="42.97698" lon="-0.07463">
        <ele>443.46</ele>
        <time>2018-06-23T13:50:36Z</time>
      </trkpt>
      <trkpt lat="42.97681" lon="-0.07485">
        <ele>442.55</ele>
        <time>2018-06-23T13:50:40Z</time>
      </trkpt>
      <trkpt lat="42.97666" lon="-0.07502">
        <ele>442.52</ele>
        <time>2018-06-23T13:50:43Z</time>
      </trkpt>
      <trkpt lat="42.9765" lon="-0.07525">
        <ele>442.8</ele>
        <time>2018-06-23T13:50:47Z</time>
      </trkpt>
      <trkpt lat="42.97636" lon="-0.07551">
        <ele>444.22</ele>
        <time>2018-06-23T13:50:51Z</time>
      </trkpt>
      <trkpt lat="42.97624" lon="-0.07573">
        <ele>442.9</ele>
        <time>2018-06-23T13:50:54Z</time>
      </trkpt>
      <trkpt lat="42.97604" lon="-0.07589">
        <ele>440.54</ele>
        <time>2018-06-23T13:50:58Z</time>
      </trkpt>
      <trkpt lat="42.97586" lon="-0.07588">
        <ele>438.64</ele>
        <time>2018-06-23T13:51:01Z</time>
      </trkpt>
      <trkpt lat="42.97568" lon="-0.0758">
        <ele>437.62</ele>
        <time>2018-06-23T13:51:04Z</time>
      </trkpt>
      <trkpt lat="42.97549" lon="-0.07575">
        <ele>437.52</ele>
        <time>2018-06-23T13:51:07Z</time>
      </trkpt>
      <trkpt lat="42.9753" lon="-0.07568">
        <ele>435.64</ele>
        <time>2018-06-23T13:51:10Z</time>
      </trkpt>
      <trkpt lat="42.97508" lon="-0.07564">
        <ele>434.82</ele>
        <time>2018-06-23T13:51:14Z</time>
      </trkpt>
      <trkpt lat="42.97486" lon="-0.07556">
        <ele>435.52</ele>
        <time>2018-06-23T13:51:18Z</time>
      </trkpt>
      <trkpt lat="42.97464" lon="-0.07548">
        <ele>435.52</ele>
        <time>2018-06-23T13:51:22Z</time>
      </trkpt>
      <trkpt lat="42.97447" lon="-0.07543">
        <ele>435.52</ele>
        <time>2018-06-23T13:51:25Z</time>
      </trkpt>
      <trkpt lat="42.97424" lon="-0.07535">
        <ele>434.53</ele>
        <time>2018-06-23T13:51:29Z</time>
      </trkpt>
      <trkpt lat="42.97406" lon="-0.07529">
        <ele>433.61</ele>
        <time>2018-06-23T13:51:32Z</time>
      </trkpt>
      <trkpt lat="42.97387" lon="-0.07521">
        <ele>432.61</ele>
        <time>2018-06-23T13:51:35Z</time>
      </trkpt>
      <trkpt lat="42.97364" lon="-0.07517">
        <ele>432.73</ele>
        <time>2018-06-23T13:51:39Z</time>
      </trkpt>
      <trkpt lat="42.97342" lon="-0.07508">
        <ele>431.61</ele>
        <time>2018-06-23T13:51:43Z</time>
      </trkpt>
      <trkpt lat="42.97323" lon="-0.07506">
        <ele>429.85</ele>
        <time>2018-06-23T13:51:46Z</time>
      </trkpt>
      <trkpt lat="42.97305" lon="-0.07501">
        <ele>429.53</ele>
        <time>2018-06-23T13:51:49Z</time>
      </trkpt>
      <trkpt lat="42.97287" lon="-0.07496">
        <ele>429.52</ele>
        <time>2018-06-23T13:51:52Z</time>
      </trkpt>
      <trkpt lat="42.97264" lon="-0.07489">
        <ele>429.52</ele>
        <time>2018-06-23T13:51:56Z</time>
      </trkpt>
      <trkpt lat="42.97246" lon="-0.07485">
        <ele>429.52</ele>
        <time>2018-06-23T13:51:59Z</time>
      </trkpt>
      <trkpt lat="42.97223" lon="-0.07478">
        <ele>430.22</ele>
        <time>2018-06-23T13:52:03Z</time>
      </trkpt>
      <trkpt lat="42.97199" lon="-0.07472">
        <ele>429.53</ele>
        <time>2018-06-23T13:52:07Z</time>
      </trkpt>
      <trkpt lat="42.97177" lon="-0.07465">
        <ele>430.51</ele>
        <time>2018-06-23T13:52:11Z</time>
      </trkpt>
      <trkpt lat="42.97159" lon="-0.07461">
        <ele>429.82</ele>
        <time>2018-06-23T13:52:14Z</time>
      </trkpt>
      <trkpt lat="42.9714" lon="-0.07455">
        <ele>430.23</ele>
        <time>2018-06-23T13:52:17Z</time>
      </trkpt>
      <trkpt lat="42.9712" lon="-0.0745">
        <ele>431.49</ele>
        <time>2018-06-23T13:52:21Z</time>
      </trkpt>
      <trkpt lat="42.97102" lon="-0.07444">
        <ele>432.49</ele>
        <time>2018-06-23T13:52:25Z</time>
      </trkpt>
      <trkpt lat="42.97083" lon="-0.07436">
        <ele>433.51</ele>
        <time>2018-06-23T13:52:29Z</time>
      </trkpt>
      <trkpt lat="42.97064" lon="-0.07432">
        <ele>434.22</ele>
        <time>2018-06-23T13:52:33Z</time>
      </trkpt>
      <trkpt lat="42.97045" lon="-0.07427">
        <ele>434.52</ele>
        <time>2018-06-23T13:52:37Z</time>
      </trkpt>
      <trkpt lat="42.97027" lon="-0.07425">
        <ele>436.4</ele>
        <time>2018-06-23T13:52:42Z</time>
      </trkpt>
      <trkpt lat="42.97008" lon="-0.07422">
        <ele>438.49</ele>
        <time>2018-06-23T13:52:46Z</time>
      </trkpt>
      <trkpt lat="42.9699" lon="-0.07411">
        <ele>440.19</ele>
        <time>2018-06-23T13:52:50Z</time>
      </trkpt>
      <trkpt lat="42.96972" lon="-0.07403">
        <ele>443.12</ele>
        <time>2018-06-23T13:52:54Z</time>
      </trkpt>
      <trkpt lat="42.96953" lon="-0.07405">
        <ele>444.43</ele>
        <time>2018-06-23T13:52:58Z</time>
      </trkpt>
      <trkpt lat="42.96933" lon="-0.07395">
        <ele>448.37</ele>
        <time>2018-06-23T13:53:02Z</time>
      </trkpt>
      <trkpt lat="42.96912" lon="-0.07388">
        <ele>449.51</ele>
        <time>2018-06-23T13:53:06Z</time>
      </trkpt>
      <trkpt lat="42.96891" lon="-0.07384">
        <ele>448.55</ele>
        <time>2018-06-23T13:53:10Z</time>
      </trkpt>
      <trkpt lat="42.9687" lon="-0.07382">
        <ele>447.59</ele>
        <time>2018-06-23T13:53:14Z</time>
      </trkpt>
      <trkpt lat="42.96849" lon="-0.07376">
        <ele>447.52</ele>
        <time>2018-06-23T13:53:18Z</time>
      </trkpt>
      <trkpt lat="42.9683" lon="-0.07373">
        <ele>448.29</ele>
        <time>2018-06-23T13:53:22Z</time>
      </trkpt>
      <trkpt lat="42.9681" lon="-0.07369">
        <ele>448.52</ele>
        <time>2018-06-23T13:53:26Z</time>
      </trkpt>
      <trkpt lat="42.9679" lon="-0.0736">
        <ele>448.52</ele>
        <time>2018-06-23T13:53:30Z</time>
      </trkpt>
      <trkpt lat="42.96769" lon="-0.07351">
        <ele>448.8</ele>
        <time>2018-06-23T13:53:34Z</time>
      </trkpt>
      <trkpt lat="42.96751" lon="-0.07347">
        <ele>448.52</ele>
        <time>2018-06-23T13:53:38Z</time>
      </trkpt>
      <trkpt lat="42.96731" lon="-0.07343">
        <ele>449.22</ele>
        <time>2018-06-23T13:53:42Z</time>
      </trkpt>
      <trkpt lat="42.9671" lon="-0.0734">
        <ele>450.43</ele>
        <time>2018-06-23T13:53:46Z</time>
      </trkpt>
      <trkpt lat="42.96689" lon="-0.07335">
        <ele>450.46</ele>
        <time>2018-06-23T13:53:50Z</time>
      </trkpt>
      <trkpt lat="42.96671" lon="-0.07328">
        <ele>450.5</ele>
        <time>2018-06-23T13:53:54Z</time>
      </trkpt>
      <trkpt lat="42.96653" lon="-0.0732">
        <ele>451.49</ele>
        <time>2018-06-23T13:53:58Z</time>
      </trkpt>
      <trkpt lat="42.96634" lon="-0.07308">
        <ele>451.52</ele>
        <time>2018-06-23T13:54:02Z</time>
      </trkpt>
      <trkpt lat="42.96614" lon="-0.07295">
        <ele>451.52</ele>
        <time>2018-06-23T13:54:06Z</time>
      </trkpt>
      <trkpt lat="42.96596" lon="-0.07279">
        <ele>450.82</ele>
        <time>2018-06-23T13:54:10Z</time>
      </trkpt>
      <trkpt lat="42.96577" lon="-0.07262">
        <ele>454.1</ele>
        <time>2018-06-23T13:54:14Z</time>
      </trkpt>
      <trkpt lat="42.9656" lon="-0.07249">
        <ele>454.52</ele>
        <time>2018-06-23T13:54:18Z</time>
      </trkpt>
      <trkpt lat="42.96541" lon="-0.07233">
        <ele>454.52</ele>
        <time>2018-06-23T13:54:22Z</time>
      </trkpt>
      <trkpt lat="42.96523" lon="-0.07219">
        <ele>453.53</ele>
        <time>2018-06-23T13:54:26Z</time>
      </trkpt>
      <trkpt lat="42.96507" lon="-0.07196">
        <ele>454.22</ele>
        <time>2018-06-23T13:54:30Z</time>
      </trkpt>
      <trkpt lat="42.96492" lon="-0.07172">
        <ele>456.13</ele>
        <time>2018-06-23T13:54:34Z</time>
      </trkpt>
      <trkpt lat="42.96478" lon="-0.07147">
        <ele>455.82</ele>
        <time>2018-06-23T13:54:38Z</time>
      </trkpt>
      <trkpt lat="42.96467" lon="-0.07127">
        <ele>453.85</ele>
        <time>2018-06-23T13:54:42Z</time>
      </trkpt>
      <trkpt lat="42.96453" lon="-0.071">
        <ele>455.16</ele>
        <time>2018-06-23T13:54:47Z</time>
      </trkpt>
      <trkpt lat="42.9644" lon="-0.07078">
        <ele>453.63</ele>
        <time>2018-06-23T13:54:50Z</time>
      </trkpt>
      <trkpt lat="42.96428" lon="-0.07055">
        <ele>453.52</ele>
        <time>2018-06-23T13:54:53Z</time>
      </trkpt>
      <trkpt lat="42.96417" lon="-0.07032">
        <ele>453.52</ele>
        <time>2018-06-23T13:54:56Z</time>
      </trkpt>
      <trkpt lat="42.96405" lon="-0.0701">
        <ele>452.61</ele>
        <time>2018-06-23T13:54:59Z</time>
      </trkpt>
      <trkpt lat="42.96392" lon="-0.06985">
        <ele>452.8</ele>
        <time>2018-06-23T13:55:02Z</time>
      </trkpt>
      <trkpt lat="42.9638" lon="-0.06961">
        <ele>454.41</ele>
        <time>2018-06-23T13:55:05Z</time>
      </trkpt>
      <trkpt lat="42.96367" lon="-0.06938">
        <ele>456.19</ele>
        <time>2018-06-23T13:55:08Z</time>
      </trkpt>
      <trkpt lat="42.96357" lon="-0.06914">
        <ele>458.12</ele>
        <time>2018-06-23T13:55:11Z</time>
      </trkpt>
      <trkpt lat="42.96344" lon="-0.06891">
        <ele>458.78</ele>
        <time>2018-06-23T13:55:14Z</time>
      </trkpt>
      <trkpt lat="42.96331" lon="-0.06871">
        <ele>459.17</ele>
        <time>2018-06-23T13:55:17Z</time>
      </trkpt>
      <trkpt lat="42.96321" lon="-0.06848">
        <ele>463.71</ele>
        <time>2018-06-23T13:55:20Z</time>
      </trkpt>
      <trkpt lat="42.96309" lon="-0.06825">
        <ele>467.08</ele>
        <time>2018-06-23T13:55:23Z</time>
      </trkpt>
      <trkpt lat="42.96293" lon="-0.06805">
        <ele>465.9</ele>
        <time>2018-06-23T13:55:26Z</time>
      </trkpt>
      <trkpt lat="42.96279" lon="-0.06785">
        <ele>462.95</ele>
        <time>2018-06-23T13:55:29Z</time>
      </trkpt>
      <trkpt lat="42.96268" lon="-0.06766">
        <ele>460.92</ele>
        <time>2018-06-23T13:55:32Z</time>
      </trkpt>
      <trkpt lat="42.96257" lon="-0.06743">
        <ele>460.47</ele>
        <time>2018-06-23T13:55:35Z</time>
      </trkpt>
      <trkpt lat="42.9624" lon="-0.06756">
        <ele>459.84</ele>
        <time>2018-06-23T13:55:40Z</time>
      </trkpt>
      <trkpt lat="42.96247" lon="-0.0678">
        <ele>458.52</ele>
        <time>2018-06-23T13:55:46Z</time>
      </trkpt>
      <trkpt lat="42.96257" lon="-0.06803">
        <ele>459.22</ele>
        <time>2018-06-23T13:55:52Z</time>
      </trkpt>
      <trkpt lat="42.96274" lon="-0.06792">
        <ele>457.53</ele>
        <time>2018-06-23T13:56:04Z</time>
      </trkpt>
      <trkpt lat="42.96292" lon="-0.06789">
        <ele>457.52</ele>
        <time>2018-06-23T13:56:27Z</time>
      </trkpt>
      <trkpt lat="42.96309" lon="-0.06801">
        <ele>457.82</ele>
        <time>2018-06-23T13:56:54Z</time>
      </trkpt>
      <trkpt lat="42.96315" lon="-0.06828">
        <ele>454.46</ele>
        <time>2018-06-23T13:56:59Z</time>
      </trkpt>
      <trkpt lat="42.96327" lon="-0.06856">
        <ele>458.01</ele>
        <time>2018-06-23T13:57:03Z</time>
      </trkpt>
      <trkpt lat="42.96339" lon="-0.06882">
        <ele>458.33</ele>
        <time>2018-06-23T13:57:07Z</time>
      </trkpt>
      <trkpt lat="42.96351" lon="-0.06909">
        <ele>455.03</ele>
        <time>2018-06-23T13:57:11Z</time>
      </trkpt>
      <trkpt lat="42.96363" lon="-0.06933">
        <ele>452.01</ele>
        <time>2018-06-23T13:57:15Z</time>
      </trkpt>
      <trkpt lat="42.96373" lon="-0.06955">
        <ele>448.94</ele>
        <time>2018-06-23T13:57:19Z</time>
      </trkpt>
      <trkpt lat="42.9638" lon="-0.06978">
        <ele>447.53</ele>
        <time>2018-06-23T13:57:24Z</time>
      </trkpt>
      <trkpt lat="42.96389" lon="-0.07">
        <ele>447.52</ele>
        <time>2018-06-23T13:57:30Z</time>
      </trkpt>
      <trkpt lat="42.96402" lon="-0.07021">
        <ele>444.94</ele>
        <time>2018-06-23T13:57:35Z</time>
      </trkpt>
      <trkpt lat="42.96415" lon="-0.07045">
        <ele>443.55</ele>
        <time>2018-06-23T13:57:40Z</time>
      </trkpt>
      <trkpt lat="42.96427" lon="-0.07064">
        <ele>442.53</ele>
        <time>2018-06-23T13:57:45Z</time>
      </trkpt>
      <trkpt lat="42.96436" lon="-0.07088">
        <ele>442.52</ele>
        <time>2018-06-23T13:57:51Z</time>
      </trkpt>
      <trkpt lat="42.96446" lon="-0.07112">
        <ele>442.52</ele>
        <time>2018-06-23T13:57:57Z</time>
      </trkpt>
      <trkpt lat="42.9646" lon="-0.07134">
        <ele>443.82</ele>
        <time>2018-06-23T13:58:16Z</time>
      </trkpt>
      <trkpt lat="42.96473" lon="-0.07157">
        <ele>443.44</ele>
        <time>2018-06-23T13:58:20Z</time>
      </trkpt>
      <trkpt lat="42.96488" lon="-0.0718">
        <ele>443.52</ele>
        <time>2018-06-23T13:58:24Z</time>
      </trkpt>
      <trkpt lat="42.965" lon="-0.072">
        <ele>442.61</ele>
        <time>2018-06-23T13:58:27Z</time>
      </trkpt>
      <trkpt lat="42.96515" lon="-0.07223">
        <ele>442.31</ele>
        <time>2018-06-23T13:58:31Z</time>
      </trkpt>
      <trkpt lat="42.9653" lon="-0.07238">
        <ele>441.54</ele>
        <time>2018-06-23T13:58:34Z</time>
      </trkpt>
      <trkpt lat="42.96551" lon="-0.07247">
        <ele>441.8</ele>
        <time>2018-06-23T13:58:38Z</time>
      </trkpt>
      <trkpt lat="42.96567" lon="-0.07262">
        <ele>442.5</ele>
        <time>2018-06-23T13:58:41Z</time>
      </trkpt>
      <trkpt lat="42.96582" lon="-0.07277">
        <ele>441.61</ele>
        <time>2018-06-23T13:58:44Z</time>
      </trkpt>
      <trkpt lat="42.966" lon="-0.07294">
        <ele>441.52</ele>
        <time>2018-06-23T13:58:47Z</time>
      </trkpt>
      <trkpt lat="42.96617" lon="-0.07308">
        <ele>440.55</ele>
        <time>2018-06-23T13:58:50Z</time>
      </trkpt>
      <trkpt lat="42.96635" lon="-0.0732">
        <ele>440.52</ele>
        <time>2018-06-23T13:58:53Z</time>
      </trkpt>
      <trkpt lat="42.96656" lon="-0.07334">
        <ele>441.49</ele>
        <time>2018-06-23T13:58:57Z</time>
      </trkpt>
      <trkpt lat="42.96677" lon="-0.0734">
        <ele>443.63</ele>
        <time>2018-06-23T13:59:01Z</time>
      </trkpt>
      <trkpt lat="42.96695" lon="-0.07346">
        <ele>444.43</ele>
        <time>2018-06-23T13:59:05Z</time>
      </trkpt>
      <trkpt lat="42.96715" lon="-0.07349">
        <ele>445.79</ele>
        <time>2018-06-23T13:59:23Z</time>
      </trkpt>
      <trkpt lat="42.96738" lon="-0.07351">
        <ele>450.09</ele>
        <time>2018-06-23T13:59:27Z</time>
      </trkpt>
      <trkpt lat="42.96761" lon="-0.0736">
        <ele>450.54</ele>
        <time>2018-06-23T13:59:31Z</time>
      </trkpt>
      <trkpt lat="42.96784" lon="-0.07366">
        <ele>449.53</ele>
        <time>2018-06-23T13:59:35Z</time>
      </trkpt>
      <trkpt lat="42.96805" lon="-0.07373">
        <ele>447.85</ele>
        <time>2018-06-23T13:59:38Z</time>
      </trkpt>
      <trkpt lat="42.96825" lon="-0.0738">
        <ele>448.5</ele>
        <time>2018-06-23T13:59:41Z</time>
      </trkpt>
      <trkpt lat="42.96846" lon="-0.07382">
        <ele>450.19</ele>
        <time>2018-06-23T13:59:44Z</time>
      </trkpt>
      <trkpt lat="42.96867" lon="-0.07387">
        <ele>449.81</ele>
        <time>2018-06-23T13:59:47Z</time>
      </trkpt>
      <trkpt lat="42.96887" lon="-0.07392">
        <ele>449.53</ele>
        <time>2018-06-23T13:59:50Z</time>
      </trkpt>
      <trkpt lat="42.96908" lon="-0.07398">
        <ele>451.2</ele>
        <time>2018-06-23T13:59:53Z</time>
      </trkpt>
      <trkpt lat="42.96928" lon="-0.07404">
        <ele>451.51</ele>
        <time>2018-06-23T13:59:56Z</time>
      </trkpt>
      <trkpt lat="42.96948" lon="-0.07408">
        <ele>450.82</ele>
        <time>2018-06-23T13:59:59Z</time>
      </trkpt>
      <trkpt lat="42.96967" lon="-0.0741">
        <ele>449.83</ele>
        <time>2018-06-23T14:00:02Z</time>
      </trkpt>
      <trkpt lat="42.96988" lon="-0.07413">
        <ele>449.53</ele>
        <time>2018-06-23T14:00:05Z</time>
      </trkpt>
      <trkpt lat="42.97007" lon="-0.07416">
        <ele>448.82</ele>
        <time>2018-06-23T14:00:08Z</time>
      </trkpt>
      <trkpt lat="42.97025" lon="-0.0742">
        <ele>447.62</ele>
        <time>2018-06-23T14:00:11Z</time>
      </trkpt>
      <trkpt lat="42.97042" lon="-0.07424">
        <ele>448.5</ele>
        <time>2018-06-23T14:00:14Z</time>
      </trkpt>
      <trkpt lat="42.97061" lon="-0.07429">
        <ele>450.13</ele>
        <time>2018-06-23T14:00:17Z</time>
      </trkpt>
      <trkpt lat="42.97079" lon="-0.07433">
        <ele>450.51</ele>
        <time>2018-06-23T14:00:20Z</time>
      </trkpt>
      <trkpt lat="42.97099" lon="-0.07439">
        <ele>449.82</ele>
        <time>2018-06-23T14:00:24Z</time>
      </trkpt>
      <trkpt lat="42.97117" lon="-0.07446">
        <ele>448.62</ele>
        <time>2018-06-23T14:00:27Z</time>
      </trkpt>
      <trkpt lat="42.97136" lon="-0.07452">
        <ele>447.61</ele>
        <time>2018-06-23T14:00:30Z</time>
      </trkpt>
      <trkpt lat="42.97154" lon="-0.07458">
        <ele>444.94</ele>
        <time>2018-06-23T14:00:33Z</time>
      </trkpt>
      <trkpt lat="42.97172" lon="-0.07463">
        <ele>444.53</ele>
        <time>2018-06-23T14:00:36Z</time>
      </trkpt>
      <trkpt lat="42.9719" lon="-0.07467">
        <ele>444.52</ele>
        <time>2018-06-23T14:00:39Z</time>
      </trkpt>
      <trkpt lat="42.97208" lon="-0.07473">
        <ele>442.85</ele>
        <time>2018-06-23T14:00:42Z</time>
      </trkpt>
      <trkpt lat="42.97226" lon="-0.07479">
        <ele>442.32</ele>
        <time>2018-06-23T14:00:45Z</time>
      </trkpt>
      <trkpt lat="42.97244" lon="-0.07485">
        <ele>441.61</ele>
        <time>2018-06-23T14:00:48Z</time>
      </trkpt>
      <trkpt lat="42.97262" lon="-0.07491">
        <ele>441.52</ele>
        <time>2018-06-23T14:00:51Z</time>
      </trkpt>
      <trkpt lat="42.97281" lon="-0.07497">
        <ele>440.61</ele>
        <time>2018-06-23T14:00:54Z</time>
      </trkpt>
      <trkpt lat="42.97301" lon="-0.07503">
        <ele>441.43</ele>
        <time>2018-06-23T14:00:57Z</time>
      </trkpt>
      <trkpt lat="42.97319" lon="-0.07508">
        <ele>440.55</ele>
        <time>2018-06-23T14:01:00Z</time>
      </trkpt>
      <trkpt lat="42.97337" lon="-0.07515">
        <ele>438.64</ele>
        <time>2018-06-23T14:01:03Z</time>
      </trkpt>
      <trkpt lat="42.97356" lon="-0.07522">
        <ele>437.55</ele>
        <time>2018-06-23T14:01:06Z</time>
      </trkpt>
      <trkpt lat="42.97376" lon="-0.07526">
        <ele>437.52</ele>
        <time>2018-06-23T14:01:09Z</time>
      </trkpt>
      <trkpt lat="42.97396" lon="-0.07532">
        <ele>436.55</ele>
        <time>2018-06-23T14:01:12Z</time>
      </trkpt>
      <trkpt lat="42.97415" lon="-0.07536">
        <ele>435.61</ele>
        <time>2018-06-23T14:01:15Z</time>
      </trkpt>
      <trkpt lat="42.97438" lon="-0.07545">
        <ele>435.52</ele>
        <time>2018-06-23T14:01:19Z</time>
      </trkpt>
      <trkpt lat="42.97456" lon="-0.0755">
        <ele>435.52</ele>
        <time>2018-06-23T14:01:22Z</time>
      </trkpt>
      <trkpt lat="42.97475" lon="-0.07554">
        <ele>434.82</ele>
        <time>2018-06-23T14:01:25Z</time>
      </trkpt>
      <trkpt lat="42.97495" lon="-0.07559">
        <ele>434.53</ele>
        <time>2018-06-23T14:01:28Z</time>
      </trkpt>
      <trkpt lat="42.97514" lon="-0.07563">
        <ele>434.52</ele>
        <time>2018-06-23T14:01:31Z</time>
      </trkpt>
      <trkpt lat="42.97532" lon="-0.07568">
        <ele>434.52</ele>
        <time>2018-06-23T14:01:34Z</time>
      </trkpt>
      <trkpt lat="42.97552" lon="-0.07572">
        <ele>434.52</ele>
        <time>2018-06-23T14:01:37Z</time>
      </trkpt>
      <trkpt lat="42.97571" lon="-0.07577">
        <ele>435.49</ele>
        <time>2018-06-23T14:01:40Z</time>
      </trkpt>
      <trkpt lat="42.97589" lon="-0.07584">
        <ele>437.19</ele>
        <time>2018-06-23T14:01:43Z</time>
      </trkpt>
      <trkpt lat="42.97607" lon="-0.07588">
        <ele>435.63</ele>
        <time>2018-06-23T14:01:46Z</time>
      </trkpt>
      <trkpt lat="42.97625" lon="-0.07567">
        <ele>432.01</ele>
        <time>2018-06-23T14:01:50Z</time>
      </trkpt>
      <trkpt lat="42.97636" lon="-0.07545">
        <ele>429.65</ele>
        <time>2018-06-23T14:01:53Z</time>
      </trkpt>
      <trkpt lat="42.97652" lon="-0.07523">
        <ele>427.83</ele>
        <time>2018-06-23T14:01:57Z</time>
      </trkpt>
      <trkpt lat="42.97668" lon="-0.07508">
        <ele>427.53</ele>
        <time>2018-06-23T14:02:00Z</time>
      </trkpt>
      <trkpt lat="42.97683" lon="-0.07492">
        <ele>426.82</ele>
        <time>2018-06-23T14:02:03Z</time>
      </trkpt>
      <trkpt lat="42.97693" lon="-0.07471">
        <ele>426.53</ele>
        <time>2018-06-23T14:02:06Z</time>
      </trkpt>
      <trkpt lat="42.97704" lon="-0.07449">
        <ele>426.52</ele>
        <time>2018-06-23T14:02:09Z</time>
      </trkpt>
      <trkpt lat="42.97719" lon="-0.07433">
        <ele>425.82</ele>
        <time>2018-06-23T14:02:12Z</time>
      </trkpt>
      <trkpt lat="42.97735" lon="-0.07417">
        <ele>423.86</ele>
        <time>2018-06-23T14:02:15Z</time>
      </trkpt>
      <trkpt lat="42.97753" lon="-0.07405">
        <ele>422.56</ele>
        <time>2018-06-23T14:02:18Z</time>
      </trkpt>
      <trkpt lat="42.97769" lon="-0.07395">
        <ele>422.52</ele>
        <time>2018-06-23T14:02:21Z</time>
      </trkpt>
      <trkpt lat="42.97788" lon="-0.07385">
        <ele>422.52</ele>
        <time>2018-06-23T14:02:24Z</time>
      </trkpt>
      <trkpt lat="42.97806" lon="-0.07374">
        <ele>422.58</ele>
        <time>2018-06-23T14:02:27Z</time>
      </trkpt>
      <trkpt lat="42.97824" lon="-0.07363">
        <ele>422.52</ele>
        <time>2018-06-23T14:02:30Z</time>
      </trkpt>
      <trkpt lat="42.97839" lon="-0.07345">
        <ele>421.61</ele>
        <time>2018-06-23T14:02:34Z</time>
      </trkpt>
      <trkpt lat="42.97856" lon="-0.07335">
        <ele>423.22</ele>
        <time>2018-06-23T14:02:44Z</time>
      </trkpt>
      <trkpt lat="42.97879" lon="-0.07332">
        <ele>424.49</ele>
        <time>2018-06-23T14:02:48Z</time>
      </trkpt>
      <trkpt lat="42.97897" lon="-0.0734">
        <ele>424.58</ele>
        <time>2018-06-23T14:02:51Z</time>
      </trkpt>
      <trkpt lat="42.9792" lon="-0.07347">
        <ele>425.51</ele>
        <time>2018-06-23T14:02:55Z</time>
      </trkpt>
      <trkpt lat="42.97938" lon="-0.07349">
        <ele>425.52</ele>
        <time>2018-06-23T14:02:58Z</time>
      </trkpt>
      <trkpt lat="42.9796" lon="-0.07352">
        <ele>425.52</ele>
        <time>2018-06-23T14:03:02Z</time>
      </trkpt>
      <trkpt lat="42.97981" lon="-0.07351">
        <ele>423.85</ele>
        <time>2018-06-23T14:03:06Z</time>
      </trkpt>
      <trkpt lat="42.98003" lon="-0.07351">
        <ele>422.55</ele>
        <time>2018-06-23T14:03:10Z</time>
      </trkpt>
      <trkpt lat="42.98023" lon="-0.07351">
        <ele>422.52</ele>
        <time>2018-06-23T14:03:14Z</time>
      </trkpt>
      <trkpt lat="42.98043" lon="-0.07354">
        <ele>423.43</ele>
        <time>2018-06-23T14:03:19Z</time>
      </trkpt>
      <trkpt lat="42.98063" lon="-0.07351">
        <ele>424.81</ele>
        <time>2018-06-23T14:03:43Z</time>
      </trkpt>
      <trkpt lat="42.98085" lon="-0.07342">
        <ele>425.22</ele>
        <time>2018-06-23T14:03:47Z</time>
      </trkpt>
      <trkpt lat="42.98103" lon="-0.0734">
        <ele>427.33</ele>
        <time>2018-06-23T14:03:50Z</time>
      </trkpt>
      <trkpt lat="42.98122" lon="-0.07326">
        <ele>425.93</ele>
        <time>2018-06-23T14:03:54Z</time>
      </trkpt>
      <trkpt lat="42.98135" lon="-0.07308">
        <ele>424.56</ele>
        <time>2018-06-23T14:03:57Z</time>
      </trkpt>
      <trkpt lat="42.98156" lon="-0.07318">
        <ele>423.61</ele>
        <time>2018-06-23T14:04:01Z</time>
      </trkpt>
      <trkpt lat="42.98175" lon="-0.07335">
        <ele>421.85</ele>
        <time>2018-06-23T14:04:05Z</time>
      </trkpt>
      <trkpt lat="42.9819" lon="-0.07352">
        <ele>420.62</ele>
        <time>2018-06-23T14:04:08Z</time>
      </trkpt>
      <trkpt lat="42.98202" lon="-0.07372">
        <ele>420.52</ele>
        <time>2018-06-23T14:04:11Z</time>
      </trkpt>
      <trkpt lat="42.98216" lon="-0.07391">
        <ele>421.43</ele>
        <time>2018-06-23T14:04:14Z</time>
      </trkpt>
      <trkpt lat="42.98231" lon="-0.07416">
        <ele>422.51</ele>
        <time>2018-06-23T14:04:18Z</time>
      </trkpt>
      <trkpt lat="42.98245" lon="-0.07435">
        <ele>422.52</ele>
        <time>2018-06-23T14:04:21Z</time>
      </trkpt>
      <trkpt lat="42.9826" lon="-0.07461">
        <ele>421.55</ele>
        <time>2018-06-23T14:04:25Z</time>
      </trkpt>
      <trkpt lat="42.98276" lon="-0.07483">
        <ele>422.22</ele>
        <time>2018-06-23T14:04:29Z</time>
      </trkpt>
      <trkpt lat="42.98293" lon="-0.07492">
        <ele>421.81</ele>
        <time>2018-06-23T14:04:32Z</time>
      </trkpt>
      <trkpt lat="42.98311" lon="-0.07501">
        <ele>422.23</ele>
        <time>2018-06-23T14:04:35Z</time>
      </trkpt>
      <trkpt lat="42.98334" lon="-0.07504">
        <ele>424.4</ele>
        <time>2018-06-23T14:04:39Z</time>
      </trkpt>
      <trkpt lat="42.98352" lon="-0.07511">
        <ele>423.61</ele>
        <time>2018-06-23T14:04:42Z</time>
      </trkpt>
      <trkpt lat="42.98368" lon="-0.07521">
        <ele>424.16</ele>
        <time>2018-06-23T14:04:45Z</time>
      </trkpt>
      <trkpt lat="42.98386" lon="-0.07539">
        <ele>423.53</ele>
        <time>2018-06-23T14:04:49Z</time>
      </trkpt>
      <trkpt lat="42.98399" lon="-0.07557">
        <ele>424.5</ele>
        <time>2018-06-23T14:04:52Z</time>
      </trkpt>
      <trkpt lat="42.98412" lon="-0.07575">
        <ele>424.46</ele>
        <time>2018-06-23T14:04:55Z</time>
      </trkpt>
      <trkpt lat="42.98433" lon="-0.07586">
        <ele>424.46</ele>
        <time>2018-06-23T14:04:59Z</time>
      </trkpt>
      <trkpt lat="42.98453" lon="-0.07585">
        <ele>425.49</ele>
        <time>2018-06-23T14:05:02Z</time>
      </trkpt>
      <trkpt lat="42.98472" lon="-0.07575">
        <ele>426.22</ele>
        <time>2018-06-23T14:05:05Z</time>
      </trkpt>
      <trkpt lat="42.98489" lon="-0.0756">
        <ele>425.33</ele>
        <time>2018-06-23T14:05:08Z</time>
      </trkpt>
      <trkpt lat="42.98505" lon="-0.07541">
        <ele>423.84</ele>
        <time>2018-06-23T14:05:11Z</time>
      </trkpt>
      <trkpt lat="42.98522" lon="-0.07526">
        <ele>423.05</ele>
        <time>2018-06-23T14:05:14Z</time>
      </trkpt>
      <trkpt lat="42.98541" lon="-0.07526">
        <ele>422.6</ele>
        <time>2018-06-23T14:05:17Z</time>
      </trkpt>
      <trkpt lat="42.98555" lon="-0.07544">
        <ele>420.91</ele>
        <time>2018-06-23T14:05:20Z</time>
      </trkpt>
      <trkpt lat="42.98571" lon="-0.07562">
        <ele>419.62</ele>
        <time>2018-06-23T14:05:23Z</time>
      </trkpt>
      <trkpt lat="42.98587" lon="-0.0758">
        <ele>418.55</ele>
        <time>2018-06-23T14:05:26Z</time>
      </trkpt>
      <trkpt lat="42.98603" lon="-0.07597">
        <ele>418.31</ele>
        <time>2018-06-23T14:05:29Z</time>
      </trkpt>
      <trkpt lat="42.9862" lon="-0.0761">
        <ele>418.52</ele>
        <time>2018-06-23T14:05:32Z</time>
      </trkpt>
      <trkpt lat="42.98641" lon="-0.07607">
        <ele>419.49</ele>
        <time>2018-06-23T14:05:35Z</time>
      </trkpt>
      <trkpt lat="42.98661" lon="-0.07606">
        <ele>421.19</ele>
        <time>2018-06-23T14:05:38Z</time>
      </trkpt>
      <trkpt lat="42.98678" lon="-0.07619">
        <ele>421.58</ele>
        <time>2018-06-23T14:05:41Z</time>
      </trkpt>
      <trkpt lat="42.98693" lon="-0.07636">
        <ele>419.64</ele>
        <time>2018-06-23T14:05:44Z</time>
      </trkpt>
      <trkpt lat="42.98708" lon="-0.07654">
        <ele>418.83</ele>
        <time>2018-06-23T14:05:47Z</time>
      </trkpt>
      <trkpt lat="42.98722" lon="-0.07672">
        <ele>418.53</ele>
        <time>2018-06-23T14:05:50Z</time>
      </trkpt>
      <trkpt lat="42.9874" lon="-0.07686">
        <ele>418.52</ele>
        <time>2018-06-23T14:05:53Z</time>
      </trkpt>
      <trkpt lat="42.98756" lon="-0.07698">
        <ele>418.52</ele>
        <time>2018-06-23T14:05:56Z</time>
      </trkpt>
      <trkpt lat="42.9877" lon="-0.07717">
        <ele>417.61</ele>
        <time>2018-06-23T14:05:59Z</time>
      </trkpt>
      <trkpt lat="42.98784" lon="-0.07736">
        <ele>417.52</ele>
        <time>2018-06-23T14:06:02Z</time>
      </trkpt>
      <trkpt lat="42.98798" lon="-0.07754">
        <ele>417.52</ele>
        <time>2018-06-23T14:06:05Z</time>
      </trkpt>
      <trkpt lat="42.98813" lon="-0.07771">
        <ele>417.52</ele>
        <time>2018-06-23T14:06:08Z</time>
      </trkpt>
      <trkpt lat="42.98828" lon="-0.07789">
        <ele>417.52</ele>
        <time>2018-06-23T14:06:11Z</time>
      </trkpt>
      <trkpt lat="42.98844" lon="-0.07804">
        <ele>417.58</ele>
        <time>2018-06-23T14:06:14Z</time>
      </trkpt>
      <trkpt lat="42.98861" lon="-0.07813">
        <ele>418.43</ele>
        <time>2018-06-23T14:06:17Z</time>
      </trkpt>
      <trkpt lat="42.98877" lon="-0.07829">
        <ele>418.52</ele>
        <time>2018-06-23T14:06:20Z</time>
      </trkpt>
      <trkpt lat="42.98894" lon="-0.07843">
        <ele>417.61</ele>
        <time>2018-06-23T14:06:23Z</time>
      </trkpt>
      <trkpt lat="42.98909" lon="-0.07858">
        <ele>416.82</ele>
        <time>2018-06-23T14:06:26Z</time>
      </trkpt>
      <trkpt lat="42.98924" lon="-0.07873">
        <ele>416.53</ele>
        <time>2018-06-23T14:06:29Z</time>
      </trkpt>
      <trkpt lat="42.98938" lon="-0.07889">
        <ele>415.55</ele>
        <time>2018-06-23T14:06:32Z</time>
      </trkpt>
      <trkpt lat="42.98942" lon="-0.07914">
        <ele>415.52</ele>
        <time>2018-06-23T14:06:35Z</time>
      </trkpt>
      <trkpt lat="42.98945" lon="-0.0794">
        <ele>413.85</ele>
        <time>2018-06-23T14:06:38Z</time>
      </trkpt>
      <trkpt lat="42.98955" lon="-0.07962">
        <ele>414.44</ele>
        <time>2018-06-23T14:06:41Z</time>
      </trkpt>
      <trkpt lat="42.98967" lon="-0.07984">
        <ele>413.82</ele>
        <time>2018-06-23T14:06:44Z</time>
      </trkpt>
      <trkpt lat="42.98976" lon="-0.08009">
        <ele>413.53</ele>
        <time>2018-06-23T14:06:47Z</time>
      </trkpt>
      <trkpt lat="42.98985" lon="-0.08034">
        <ele>414.22</ele>
        <time>2018-06-23T14:06:50Z</time>
      </trkpt>
      <trkpt lat="42.98994" lon="-0.08056">
        <ele>414.51</ele>
        <time>2018-06-23T14:06:53Z</time>
      </trkpt>
      <trkpt lat="42.98998" lon="-0.08082">
        <ele>414.52</ele>
        <time>2018-06-23T14:06:56Z</time>
      </trkpt>
      <trkpt lat="42.9901" lon="-0.08105">
        <ele>414.46</ele>
        <time>2018-06-23T14:06:59Z</time>
      </trkpt>
      <trkpt lat="42.99027" lon="-0.08125">
        <ele>416.47</ele>
        <time>2018-06-23T14:07:02Z</time>
      </trkpt>
      <trkpt lat="42.9904" lon="-0.08144">
        <ele>415.55</ele>
        <time>2018-06-23T14:07:05Z</time>
      </trkpt>
      <trkpt lat="42.99058" lon="-0.0816">
        <ele>414.55</ele>
        <time>2018-06-23T14:07:08Z</time>
      </trkpt>
      <trkpt lat="42.99079" lon="-0.08165">
        <ele>415.22</ele>
        <time>2018-06-23T14:07:11Z</time>
      </trkpt>
      <trkpt lat="42.991" lon="-0.08167">
        <ele>416.22</ele>
        <time>2018-06-23T14:07:15Z</time>
      </trkpt>
      <trkpt lat="42.99118" lon="-0.08182">
        <ele>418.19</ele>
        <time>2018-06-23T14:07:19Z</time>
      </trkpt>
      <trkpt lat="42.99135" lon="-0.08203">
        <ele>419.22</ele>
        <time>2018-06-23T14:07:23Z</time>
      </trkpt>
      <trkpt lat="42.99155" lon="-0.08215">
        <ele>420.22</ele>
        <time>2018-06-23T14:07:27Z</time>
      </trkpt>
      <trkpt lat="42.99171" lon="-0.08229">
        <ele>419.32</ele>
        <time>2018-06-23T14:07:31Z</time>
      </trkpt>
      <trkpt lat="42.9919" lon="-0.08247">
        <ele>418.55</ele>
        <time>2018-06-23T14:07:35Z</time>
      </trkpt>
      <trkpt lat="42.99208" lon="-0.08263">
        <ele>417.61</ele>
        <time>2018-06-23T14:07:39Z</time>
      </trkpt>
      <trkpt lat="42.99223" lon="-0.08282">
        <ele>418.22</ele>
        <time>2018-06-23T14:07:42Z</time>
      </trkpt>
      <trkpt lat="42.99243" lon="-0.08282">
        <ele>418.45</ele>
        <time>2018-06-23T14:07:45Z</time>
      </trkpt>
      <trkpt lat="42.99249" lon="-0.08257">
        <ele>419.22</ele>
        <time>2018-06-23T14:07:50Z</time>
      </trkpt>
      <trkpt lat="42.99245" lon="-0.0823">
        <ele>417.64</ele>
        <time>2018-06-23T14:07:55Z</time>
      </trkpt>
      <trkpt lat="42.99235" lon="-0.08204">
        <ele>418.87</ele>
        <time>2018-06-23T14:08:00Z</time>
      </trkpt>
      <trkpt lat="42.99249" lon="-0.08181">
        <ele>421.11</ele>
        <time>2018-06-23T14:08:06Z</time>
      </trkpt>
      <trkpt lat="42.99269" lon="-0.08174">
        <ele>424.42</ele>
        <time>2018-06-23T14:08:12Z</time>
      </trkpt>
      <trkpt lat="42.9929" lon="-0.08171">
        <ele>424.5</ele>
        <time>2018-06-23T14:08:17Z</time>
      </trkpt>
      <trkpt lat="42.99309" lon="-0.08176">
        <ele>425.46</ele>
        <time>2018-06-23T14:08:23Z</time>
      </trkpt>
      <trkpt lat="42.99328" lon="-0.08178">
        <ele>426.43</ele>
        <time>2018-06-23T14:08:29Z</time>
      </trkpt>
      <trkpt lat="42.99346" lon="-0.08178">
        <ele>425.82</ele>
        <time>2018-06-23T14:08:34Z</time>
      </trkpt>
      <trkpt lat="42.99335" lon="-0.08153">
        <ele>424.53</ele>
        <time>2018-06-23T14:08:41Z</time>
      </trkpt>
      <trkpt lat="42.99317" lon="-0.08161">
        <ele>426.43</ele>
        <time>2018-06-23T14:08:50Z</time>
      </trkpt>
      <trkpt lat="42.99319" lon="-0.0819">
        <ele>427.73</ele>
        <time>2018-06-23T14:08:57Z</time>
      </trkpt>
      <trkpt lat="42.9932" lon="-0.08217">
        <ele>427.52</ele>
        <time>2018-06-23T14:09:02Z</time>
      </trkpt>
      <trkpt lat="42.99332" lon="-0.08236">
        <ele>429.22</ele>
        <time>2018-06-23T14:09:07Z</time>
      </trkpt>
      <trkpt lat="42.99351" lon="-0.08232">
        <ele>429.22</ele>
        <time>2018-06-23T14:09:14Z</time>
      </trkpt>
      <trkpt lat="42.99365" lon="-0.08254">
        <ele>429.52</ele>
        <time>2018-06-23T14:09:19Z</time>
      </trkpt>
      <trkpt lat="42.99386" lon="-0.08252">
        <ele>426.73</ele>
        <time>2018-06-23T14:09:24Z</time>
      </trkpt>
      <trkpt lat="42.99406" lon="-0.08243">
        <ele>424.13</ele>
        <time>2018-06-23T14:09:28Z</time>
      </trkpt>
      <trkpt lat="42.99428" lon="-0.08237">
        <ele>421.63</ele>
        <time>2018-06-23T14:09:32Z</time>
      </trkpt>
      <trkpt lat="42.99448" lon="-0.08246">
        <ele>418.57</ele>
        <time>2018-06-23T14:09:37Z</time>
      </trkpt>
      <trkpt lat="42.99465" lon="-0.08256">
        <ele>417.61</ele>
        <time>2018-06-23T14:09:41Z</time>
      </trkpt>
      <trkpt lat="42.99482" lon="-0.08266">
        <ele>416.55</ele>
        <time>2018-06-23T14:09:45Z</time>
      </trkpt>
      <trkpt lat="42.99498" lon="-0.08278">
        <ele>416.52</ele>
        <time>2018-06-23T14:09:49Z</time>
      </trkpt>
      <trkpt lat="42.99516" lon="-0.08293">
        <ele>416.52</ele>
        <time>2018-06-23T14:09:54Z</time>
      </trkpt>
      <trkpt lat="42.99534" lon="-0.08302">
        <ele>415.82</ele>
        <time>2018-06-23T14:09:58Z</time>
      </trkpt>
      <trkpt lat="42.99552" lon="-0.08312">
        <ele>416.44</ele>
        <time>2018-06-23T14:10:03Z</time>
      </trkpt>
      <trkpt lat="42.99573" lon="-0.08322">
        <ele>415.59</ele>
        <time>2018-06-23T14:10:08Z</time>
      </trkpt>
      <trkpt lat="42.99593" lon="-0.0833">
        <ele>416.2</ele>
        <time>2018-06-23T14:10:13Z</time>
      </trkpt>
      <trkpt lat="42.99611" lon="-0.08338">
        <ele>415.55</ele>
        <time>2018-06-23T14:10:17Z</time>
      </trkpt>
      <trkpt lat="42.99622" lon="-0.08316">
        <ele>413.53</ele>
        <time>2018-06-23T14:10:23Z</time>
      </trkpt>
      <trkpt lat="42.99641" lon="-0.08303">
        <ele>413.29</ele>
        <time>2018-06-23T14:10:28Z</time>
      </trkpt>
      <trkpt lat="42.99636" lon="-0.08278">
        <ele>414.51</ele>
        <time>2018-06-23T14:10:34Z</time>
      </trkpt>
      <trkpt lat="42.99623" lon="-0.08256">
        <ele>412.83</ele>
        <time>2018-06-23T14:10:39Z</time>
      </trkpt>
      <trkpt lat="42.99615" lon="-0.0823">
        <ele>414.49</ele>
        <time>2018-06-23T14:10:43Z</time>
      </trkpt>
      <trkpt lat="42.99611" lon="-0.08205">
        <ele>411.92</ele>
        <time>2018-06-23T14:10:47Z</time>
      </trkpt>
      <trkpt lat="42.9961" lon="-0.08179">
        <ele>411.53</ele>
        <time>2018-06-23T14:10:51Z</time>
      </trkpt>
      <trkpt lat="42.9961" lon="-0.08155">
        <ele>411.8</ele>
        <time>2018-06-23T14:10:55Z</time>
      </trkpt>
      <trkpt lat="42.99625" lon="-0.08132">
        <ele>411.53</ele>
        <time>2018-06-23T14:11:00Z</time>
      </trkpt>
      <trkpt lat="42.99644" lon="-0.0813">
        <ele>410.82</ele>
        <time>2018-06-23T14:11:04Z</time>
      </trkpt>
      <trkpt lat="42.99662" lon="-0.08135">
        <ele>410.52</ele>
        <time>2018-06-23T14:11:08Z</time>
      </trkpt>
      <trkpt lat="42.99681" lon="-0.08132">
        <ele>408.83</ele>
        <time>2018-06-23T14:11:12Z</time>
      </trkpt>
      <trkpt lat="42.99702" lon="-0.08129">
        <ele>407.82</ele>
        <time>2018-06-23T14:11:16Z</time>
      </trkpt>
      <trkpt lat="42.99723" lon="-0.08122">
        <ele>408.43</ele>
        <time>2018-06-23T14:11:20Z</time>
      </trkpt>
      <trkpt lat="42.99741" lon="-0.08117">
        <ele>408.79</ele>
        <time>2018-06-23T14:11:24Z</time>
      </trkpt>
      <trkpt lat="42.99761" lon="-0.08114">
        <ele>409.52</ele>
        <time>2018-06-23T14:11:30Z</time>
      </trkpt>
      <trkpt lat="42.99779" lon="-0.0811">
        <ele>411.21</ele>
        <time>2018-06-23T14:11:34Z</time>
      </trkpt>
      <trkpt lat="42.99788" lon="-0.08089">
        <ele>412.72</ele>
        <time>2018-06-23T14:11:38Z</time>
      </trkpt>
      <trkpt lat="42.99808" lon="-0.08091">
        <ele>410.91</ele>
        <time>2018-06-23T14:11:42Z</time>
      </trkpt>
      <trkpt lat="42.99826" lon="-0.081">
        <ele>411.5</ele>
        <time>2018-06-23T14:11:46Z</time>
      </trkpt>
      <trkpt lat="42.99848" lon="-0.081">
        <ele>412.51</ele>
        <time>2018-06-23T14:11:50Z</time>
      </trkpt>
      <trkpt lat="42.99867" lon="-0.08104">
        <ele>411.61</ele>
        <time>2018-06-23T14:11:54Z</time>
      </trkpt>
      <trkpt lat="42.99886" lon="-0.08104">
        <ele>410.61</ele>
        <time>2018-06-23T14:11:58Z</time>
      </trkpt>
      <trkpt lat="42.99907" lon="-0.08102">
        <ele>410.52</ele>
        <time>2018-06-23T14:12:02Z</time>
      </trkpt>
      <trkpt lat="42.99927" lon="-0.08101">
        <ele>408.62</ele>
        <time>2018-06-23T14:12:06Z</time>
      </trkpt>
      <trkpt lat="42.99946" lon="-0.08101">
        <ele>409.22</ele>
        <time>2018-06-23T14:12:10Z</time>
      </trkpt>
      <trkpt lat="42.99965" lon="-0.08095">
        <ele>410.43</ele>
        <time>2018-06-23T14:12:15Z</time>
      </trkpt>
      <trkpt lat="42.99986" lon="-0.08098">
        <ele>412.19</ele>
        <time>2018-06-23T14:12:20Z</time>
      </trkpt>
      <trkpt lat="43.00008" lon="-0.08094">
        <ele>412.52</ele>
        <time>2018-06-23T14:12:25Z</time>
      </trkpt>
      <trkpt lat="43.00028" lon="-0.08092">
        <ele>412.58</ele>
        <time>2018-06-23T14:12:29Z</time>
      </trkpt>
      <trkpt lat="43.00047" lon="-0.08093">
        <ele>412.73</ele>
        <time>2018-06-23T14:12:33Z</time>
      </trkpt>
      <trkpt lat="43.00065" lon="-0.08097">
        <ele>412.25</ele>
        <time>2018-06-23T14:12:37Z</time>
      </trkpt>
      <trkpt lat="43.00083" lon="-0.08106">
        <ele>414.13</ele>
        <time>2018-06-23T14:12:41Z</time>
      </trkpt>
      <trkpt lat="43.00102" lon="-0.08107">
        <ele>417.19</ele>
        <time>2018-06-23T14:12:46Z</time>
      </trkpt>
      <trkpt lat="43.0012" lon="-0.08113">
        <ele>418.52</ele>
        <time>2018-06-23T14:12:53Z</time>
      </trkpt>
      <trkpt lat="43.00139" lon="-0.08107">
        <ele>416.91</ele>
        <time>2018-06-23T14:12:57Z</time>
      </trkpt>
      <trkpt lat="43.00159" lon="-0.0811">
        <ele>413.65</ele>
        <time>2018-06-23T14:13:01Z</time>
      </trkpt>
      <trkpt lat="43.00179" lon="-0.08115">
        <ele>413.44</ele>
        <time>2018-06-23T14:13:05Z</time>
      </trkpt>
      <trkpt lat="43.00197" lon="-0.0812">
        <ele>414.22</ele>
        <time>2018-06-23T14:13:09Z</time>
      </trkpt>
      <trkpt lat="43.00216" lon="-0.08117">
        <ele>412.55</ele>
        <time>2018-06-23T14:13:14Z</time>
      </trkpt>
      <trkpt lat="43.00234" lon="-0.08122">
        <ele>411.82</ele>
        <time>2018-06-23T14:13:27Z</time>
      </trkpt>
      <trkpt lat="43.00255" lon="-0.08123">
        <ele>411.44</ele>
        <time>2018-06-23T14:13:33Z</time>
      </trkpt>
      <trkpt lat="43.00276" lon="-0.08124">
        <ele>411.6</ele>
        <time>2018-06-23T14:13:37Z</time>
      </trkpt>
      <trkpt lat="43.00294" lon="-0.08123">
        <ele>412.22</ele>
        <time>2018-06-23T14:13:40Z</time>
      </trkpt>
      <trkpt lat="43.00315" lon="-0.08122">
        <ele>412.51</ele>
        <time>2018-06-23T14:13:43Z</time>
      </trkpt>
      <trkpt lat="43.00336" lon="-0.08127">
        <ele>411.82</ele>
        <time>2018-06-23T14:13:46Z</time>
      </trkpt>
      <trkpt lat="43.00355" lon="-0.08132">
        <ele>410.83</ele>
        <time>2018-06-23T14:13:49Z</time>
      </trkpt>
      <trkpt lat="43.00373" lon="-0.08132">
        <ele>409.83</ele>
        <time>2018-06-23T14:13:52Z</time>
      </trkpt>
      <trkpt lat="43.00393" lon="-0.08138">
        <ele>408.56</ele>
        <time>2018-06-23T14:13:55Z</time>
      </trkpt>
      <trkpt lat="43.00413" lon="-0.08139">
        <ele>407.61</ele>
        <time>2018-06-23T14:13:58Z</time>
      </trkpt>
      <trkpt lat="43.00431" lon="-0.08142">
        <ele>406.55</ele>
        <time>2018-06-23T14:14:01Z</time>
      </trkpt>
      <trkpt lat="43.00449" lon="-0.08146">
        <ele>407.22</ele>
        <time>2018-06-23T14:14:04Z</time>
      </trkpt>
      <trkpt lat="43.00471" lon="-0.08147">
        <ele>407.54</ele>
        <time>2018-06-23T14:14:08Z</time>
      </trkpt>
      <trkpt lat="43.00493" lon="-0.08152">
        <ele>410.12</ele>
        <time>2018-06-23T14:14:12Z</time>
      </trkpt>
      <trkpt lat="43.00508" lon="-0.08166">
        <ele>412.22</ele>
        <time>2018-06-23T14:14:17Z</time>
      </trkpt>
      <trkpt lat="43.00522" lon="-0.08185">
        <ele>413.49</ele>
        <time>2018-06-23T14:14:21Z</time>
      </trkpt>
      <trkpt lat="43.00539" lon="-0.08195">
        <ele>413.55</ele>
        <time>2018-06-23T14:14:31Z</time>
      </trkpt>
      <trkpt lat="43.00545" lon="-0.08219">
        <ele>416.49</ele>
        <time>2018-06-23T14:14:38Z</time>
      </trkpt>
      <trkpt lat="43.00559" lon="-0.08235">
        <ele>416.52</ele>
        <time>2018-06-23T14:14:41Z</time>
      </trkpt>
      <trkpt lat="43.00582" lon="-0.08247">
        <ele>415.61</ele>
        <time>2018-06-23T14:14:45Z</time>
      </trkpt>
      <trkpt lat="43.00602" lon="-0.08262">
        <ele>415.73</ele>
        <time>2018-06-23T14:14:49Z</time>
      </trkpt>
      <trkpt lat="43.00624" lon="-0.08272">
        <ele>416.5</ele>
        <time>2018-06-23T14:14:53Z</time>
      </trkpt>
      <trkpt lat="43.00643" lon="-0.08281">
        <ele>417.22</ele>
        <time>2018-06-23T14:14:56Z</time>
      </trkpt>
      <trkpt lat="43.0066" lon="-0.08288">
        <ele>416.6</ele>
        <time>2018-06-23T14:14:59Z</time>
      </trkpt>
      <trkpt lat="43.00681" lon="-0.08295">
        <ele>414.64</ele>
        <time>2018-06-23T14:15:03Z</time>
      </trkpt>
      <trkpt lat="43.00698" lon="-0.08298">
        <ele>414.52</ele>
        <time>2018-06-23T14:15:07Z</time>
      </trkpt>
      <trkpt lat="43.00718" lon="-0.08302">
        <ele>412.62</ele>
        <time>2018-06-23T14:15:11Z</time>
      </trkpt>
      <trkpt lat="43.0074" lon="-0.08305">
        <ele>411.61</ele>
        <time>2018-06-23T14:15:15Z</time>
      </trkpt>
      <trkpt lat="43.00762" lon="-0.08314">
        <ele>410.55</ele>
        <time>2018-06-23T14:15:19Z</time>
      </trkpt>
      <trkpt lat="43.00781" lon="-0.08317">
        <ele>410.82</ele>
        <time>2018-06-23T14:15:24Z</time>
      </trkpt>
      <trkpt lat="43.00803" lon="-0.0831">
        <ele>410.52</ele>
        <time>2018-06-23T14:15:28Z</time>
      </trkpt>
      <trkpt lat="43.00825" lon="-0.08313">
        <ele>408.83</ele>
        <time>2018-06-23T14:15:32Z</time>
      </trkpt>
      <trkpt lat="43.00844" lon="-0.08321">
        <ele>409.5</ele>
        <time>2018-06-23T14:15:36Z</time>
      </trkpt>
      <trkpt lat="43.00864" lon="-0.0833">
        <ele>408.53</ele>
        <time>2018-06-23T14:15:40Z</time>
      </trkpt>
      <trkpt lat="43.00884" lon="-0.08335">
        <ele>406.83</ele>
        <time>2018-06-23T14:15:44Z</time>
      </trkpt>
      <trkpt lat="43.00903" lon="-0.08338">
        <ele>406.53</ele>
        <time>2018-06-23T14:15:47Z</time>
      </trkpt>
      <trkpt lat="43.00922" lon="-0.0834">
        <ele>407.43</ele>
        <time>2018-06-23T14:15:50Z</time>
      </trkpt>
      <trkpt lat="43.0094" lon="-0.08343">
        <ele>406.82</ele>
        <time>2018-06-23T14:15:53Z</time>
      </trkpt>
      <trkpt lat="43.00962" lon="-0.08344">
        <ele>405.83</ele>
        <time>2018-06-23T14:15:56Z</time>
      </trkpt>
      <trkpt lat="43.00984" lon="-0.08346">
        <ele>404.62</ele>
        <time>2018-06-23T14:15:59Z</time>
      </trkpt>
      <trkpt lat="43.01003" lon="-0.08351">
        <ele>404.25</ele>
        <time>2018-06-23T14:16:02Z</time>
      </trkpt>
      <trkpt lat="43.01021" lon="-0.0836">
        <ele>402.91</ele>
        <time>2018-06-23T14:16:07Z</time>
      </trkpt>
      <trkpt lat="43.01042" lon="-0.08363">
        <ele>403.23</ele>
        <time>2018-06-23T14:16:11Z</time>
      </trkpt>
      <trkpt lat="43.01059" lon="-0.08373">
        <ele>405.48</ele>
        <time>2018-06-23T14:16:15Z</time>
      </trkpt>
      <trkpt lat="43.01077" lon="-0.0838">
        <ele>404.61</ele>
        <time>2018-06-23T14:16:19Z</time>
      </trkpt>
      <trkpt lat="43.01098" lon="-0.08393">
        <ele>406.21</ele>
        <time>2018-06-23T14:16:23Z</time>
      </trkpt>
      <trkpt lat="43.01114" lon="-0.08411">
        <ele>407.43</ele>
        <time>2018-06-23T14:16:27Z</time>
      </trkpt>
      <trkpt lat="43.0113" lon="-0.08428">
        <ele>407.73</ele>
        <time>2018-06-23T14:16:30Z</time>
      </trkpt>
      <trkpt lat="43.01144" lon="-0.08444">
        <ele>406.55</ele>
        <time>2018-06-23T14:16:33Z</time>
      </trkpt>
      <trkpt lat="43.0116" lon="-0.0846">
        <ele>406.52</ele>
        <time>2018-06-23T14:16:39Z</time>
      </trkpt>
      <trkpt lat="43.01177" lon="-0.08472">
        <ele>405.63</ele>
        <time>2018-06-23T14:16:44Z</time>
      </trkpt>
      <trkpt lat="43.01197" lon="-0.08486">
        <ele>407.26</ele>
        <time>2018-06-23T14:16:49Z</time>
      </trkpt>
      <trkpt lat="43.01211" lon="-0.08502">
        <ele>406.6</ele>
        <time>2018-06-23T14:16:52Z</time>
      </trkpt>
      <trkpt lat="43.01227" lon="-0.08514">
        <ele>406.52</ele>
        <time>2018-06-23T14:16:55Z</time>
      </trkpt>
      <trkpt lat="43.01246" lon="-0.08529">
        <ele>406.52</ele>
        <time>2018-06-23T14:16:59Z</time>
      </trkpt>
      <trkpt lat="43.01261" lon="-0.08544">
        <ele>405.53</ele>
        <time>2018-06-23T14:17:03Z</time>
      </trkpt>
      <trkpt lat="43.01278" lon="-0.08563">
        <ele>405.25</ele>
        <time>2018-06-23T14:17:07Z</time>
      </trkpt>
      <trkpt lat="43.01287" lon="-0.08587">
        <ele>406.52</ele>
        <time>2018-06-23T14:17:13Z</time>
      </trkpt>
      <trkpt lat="43.013" lon="-0.08608">
        <ele>406.52</ele>
        <time>2018-06-23T14:17:20Z</time>
      </trkpt>
      <trkpt lat="43.01318" lon="-0.08624">
        <ele>405.82</ele>
        <time>2018-06-23T14:17:24Z</time>
      </trkpt>
      <trkpt lat="43.01336" lon="-0.08638">
        <ele>405.52</ele>
        <time>2018-06-23T14:17:28Z</time>
      </trkpt>
      <trkpt lat="43.01358" lon="-0.08638">
        <ele>407.42</ele>
        <time>2018-06-23T14:17:34Z</time>
      </trkpt>
      <trkpt lat="43.01377" lon="-0.08647">
        <ele>405.91</ele>
        <time>2018-06-23T14:17:38Z</time>
      </trkpt>
      <trkpt lat="43.01397" lon="-0.08655">
        <ele>405.53</ele>
        <time>2018-06-23T14:17:42Z</time>
      </trkpt>
      <trkpt lat="43.01418" lon="-0.08661">
        <ele>407.7</ele>
        <time>2018-06-23T14:17:46Z</time>
      </trkpt>
      <trkpt lat="43.01437" lon="-0.08665">
        <ele>408.64</ele>
        <time>2018-06-23T14:17:50Z</time>
      </trkpt>
      <trkpt lat="43.01455" lon="-0.08667">
        <ele>409.77</ele>
        <time>2018-06-23T14:17:55Z</time>
      </trkpt>
      <trkpt lat="43.01476" lon="-0.08674">
        <ele>407.83</ele>
        <time>2018-06-23T14:18:00Z</time>
      </trkpt>
      <trkpt lat="43.01498" lon="-0.08678">
        <ele>407.61</ele>
        <time>2018-06-23T14:18:04Z</time>
      </trkpt>
      <trkpt lat="43.01518" lon="-0.08676">
        <ele>408.43</ele>
        <time>2018-06-23T14:18:22Z</time>
      </trkpt>
      <trkpt lat="43.01537" lon="-0.08684">
        <ele>407.55</ele>
        <time>2018-06-23T14:18:26Z</time>
      </trkpt>
      <trkpt lat="43.01558" lon="-0.08691">
        <ele>406.61</ele>
        <time>2018-06-23T14:18:30Z</time>
      </trkpt>
      <trkpt lat="43.01579" lon="-0.08694">
        <ele>404.83</ele>
        <time>2018-06-23T14:18:34Z</time>
      </trkpt>
      <trkpt lat="43.01599" lon="-0.08698">
        <ele>404.52</ele>
        <time>2018-06-23T14:18:38Z</time>
      </trkpt>
      <trkpt lat="43.01621" lon="-0.08699">
        <ele>402.83</ele>
        <time>2018-06-23T14:18:42Z</time>
      </trkpt>
      <trkpt lat="43.01641" lon="-0.08701">
        <ele>400.56</ele>
        <time>2018-06-23T14:18:46Z</time>
      </trkpt>
      <trkpt lat="43.01659" lon="-0.087">
        <ele>400.52</ele>
        <time>2018-06-23T14:18:49Z</time>
      </trkpt>
      <trkpt lat="43.01679" lon="-0.08698">
        <ele>400.52</ele>
        <time>2018-06-23T14:18:52Z</time>
      </trkpt>
      <trkpt lat="43.017" lon="-0.08693">
        <ele>401.51</ele>
        <time>2018-06-23T14:18:56Z</time>
      </trkpt>
      <trkpt lat="43.01722" lon="-0.08693">
        <ele>400.52</ele>
        <time>2018-06-23T14:19:01Z</time>
      </trkpt>
      <trkpt lat="43.01743" lon="-0.08687">
        <ele>399.82</ele>
        <time>2018-06-23T14:19:05Z</time>
      </trkpt>
      <trkpt lat="43.01766" lon="-0.08682">
        <ele>399.52</ele>
        <time>2018-06-23T14:19:09Z</time>
      </trkpt>
      <trkpt lat="43.01785" lon="-0.08686">
        <ele>398.53</ele>
        <time>2018-06-23T14:19:13Z</time>
      </trkpt>
      <trkpt lat="43.01802" lon="-0.08681">
        <ele>398.52</ele>
        <time>2018-06-23T14:19:17Z</time>
      </trkpt>
      <trkpt lat="43.01824" lon="-0.08677">
        <ele>397.55</ele>
        <time>2018-06-23T14:19:21Z</time>
      </trkpt>
      <trkpt lat="43.01844" lon="-0.08673">
        <ele>396.53</ele>
        <time>2018-06-23T14:19:25Z</time>
      </trkpt>
      <trkpt lat="43.01862" lon="-0.08667">
        <ele>396.52</ele>
        <time>2018-06-23T14:19:28Z</time>
      </trkpt>
      <trkpt lat="43.01881" lon="-0.08662">
        <ele>394.85</ele>
        <time>2018-06-23T14:19:31Z</time>
      </trkpt>
      <trkpt lat="43.01898" lon="-0.08655">
        <ele>393.83</ele>
        <time>2018-06-23T14:19:34Z</time>
      </trkpt>
      <trkpt lat="43.0192" lon="-0.08646">
        <ele>393.25</ele>
        <time>2018-06-23T14:19:38Z</time>
      </trkpt>
      <trkpt lat="43.01938" lon="-0.08638">
        <ele>394.42</ele>
        <time>2018-06-23T14:19:41Z</time>
      </trkpt>
      <trkpt lat="43.01956" lon="-0.08629">
        <ele>395.43</ele>
        <time>2018-06-23T14:19:44Z</time>
      </trkpt>
      <trkpt lat="43.01973" lon="-0.08621">
        <ele>395.58</ele>
        <time>2018-06-23T14:19:47Z</time>
      </trkpt>
      <trkpt lat="43.01987" lon="-0.08604">
        <ele>392.22</ele>
        <time>2018-06-23T14:19:51Z</time>
      </trkpt>
      <trkpt lat="43.01994" lon="-0.08577">
        <ele>390.52</ele>
        <time>2018-06-23T14:19:57Z</time>
      </trkpt>
      <trkpt lat="43.02003" lon="-0.08554">
        <ele>390.52</ele>
        <time>2018-06-23T14:20:01Z</time>
      </trkpt>
      <trkpt lat="43.02012" lon="-0.0853">
        <ele>390.52</ele>
        <time>2018-06-23T14:20:05Z</time>
      </trkpt>
      <trkpt lat="43.02023" lon="-0.08508">
        <ele>390.52</ele>
        <time>2018-06-23T14:20:09Z</time>
      </trkpt>
      <trkpt lat="43.02035" lon="-0.08488">
        <ele>391.22</ele>
        <time>2018-06-23T14:20:13Z</time>
      </trkpt>
      <trkpt lat="43.02048" lon="-0.08472">
        <ele>391.52</ele>
        <time>2018-06-23T14:20:17Z</time>
      </trkpt>
      <trkpt lat="43.0207" lon="-0.08464">
        <ele>390.53</ele>
        <time>2018-06-23T14:20:21Z</time>
      </trkpt>
      <trkpt lat="43.02091" lon="-0.08454">
        <ele>392.21</ele>
        <time>2018-06-23T14:20:25Z</time>
      </trkpt>
      <trkpt lat="43.02109" lon="-0.08447">
        <ele>393.22</ele>
        <time>2018-06-23T14:20:29Z</time>
      </trkpt>
      <trkpt lat="43.02126" lon="-0.08437">
        <ele>395.19</ele>
        <time>2018-06-23T14:20:34Z</time>
      </trkpt>
      <trkpt lat="43.02138" lon="-0.08416">
        <ele>396.49</ele>
        <time>2018-06-23T14:20:38Z</time>
      </trkpt>
      <trkpt lat="43.02155" lon="-0.08402">
        <ele>397.55</ele>
        <time>2018-06-23T14:20:46Z</time>
      </trkpt>
      <trkpt lat="43.02166" lon="-0.08375">
        <ele>398.51</ele>
        <time>2018-06-23T14:20:50Z</time>
      </trkpt>
      <trkpt lat="43.02177" lon="-0.08352">
        <ele>399.43</ele>
        <time>2018-06-23T14:20:56Z</time>
      </trkpt>
      <trkpt lat="43.0219" lon="-0.08333">
        <ele>400.72</ele>
        <time>2018-06-23T14:21:00Z</time>
      </trkpt>
      <trkpt lat="43.02207" lon="-0.08314">
        <ele>401.22</ele>
        <time>2018-06-23T14:21:05Z</time>
      </trkpt>
      <trkpt lat="43.02227" lon="-0.08308">
        <ele>402.49</ele>
        <time>2018-06-23T14:21:11Z</time>
      </trkpt>
      <trkpt lat="43.02217" lon="-0.08287">
        <ele>406.53</ele>
        <time>2018-06-23T14:21:33Z</time>
      </trkpt>
      <trkpt lat="43.02214" lon="-0.0826">
        <ele>407.52</ele>
        <time>2018-06-23T14:21:38Z</time>
      </trkpt>
      <trkpt lat="43.02225" lon="-0.0824">
        <ele>409.72</ele>
        <time>2018-06-23T14:21:49Z</time>
      </trkpt>
      <trkpt lat="43.02244" lon="-0.08236">
        <ele>409.52</ele>
        <time>2018-06-23T14:21:54Z</time>
      </trkpt>
      <trkpt lat="43.02264" lon="-0.08234">
        <ele>405.64</ele>
        <time>2018-06-23T14:22:03Z</time>
      </trkpt>
      <trkpt lat="43.02282" lon="-0.08221">
        <ele>404.52</ele>
        <time>2018-06-23T14:22:12Z</time>
      </trkpt>
      <trkpt lat="43.02299" lon="-0.0821">
        <ele>403.55</ele>
        <time>2018-06-23T14:22:17Z</time>
      </trkpt>
      <trkpt lat="43.02318" lon="-0.08199">
        <ele>399.27</ele>
        <time>2018-06-23T14:22:21Z</time>
      </trkpt>
      <trkpt lat="43.02339" lon="-0.08193">
        <ele>397.62</ele>
        <time>2018-06-23T14:22:25Z</time>
      </trkpt>
      <trkpt lat="43.02356" lon="-0.08184">
        <ele>398.2</ele>
        <time>2018-06-23T14:22:29Z</time>
      </trkpt>
      <trkpt lat="43.02375" lon="-0.08172">
        <ele>397.53</ele>
        <time>2018-06-23T14:22:33Z</time>
      </trkpt>
      <trkpt lat="43.02391" lon="-0.0816">
        <ele>398.22</ele>
        <time>2018-06-23T14:22:37Z</time>
      </trkpt>
      <trkpt lat="43.02412" lon="-0.08149">
        <ele>398.5</ele>
        <time>2018-06-23T14:22:41Z</time>
      </trkpt>
      <trkpt lat="43.0243" lon="-0.08133">
        <ele>400.91</ele>
        <time>2018-06-23T14:22:45Z</time>
      </trkpt>
      <trkpt lat="43.02447" lon="-0.08116">
        <ele>403.19</ele>
        <time>2018-06-23T14:22:49Z</time>
      </trkpt>
      <trkpt lat="43.02467" lon="-0.08101">
        <ele>403.52</ele>
        <time>2018-06-23T14:22:53Z</time>
      </trkpt>
      <trkpt lat="43.02485" lon="-0.0808">
        <ele>403.52</ele>
        <time>2018-06-23T14:22:57Z</time>
      </trkpt>
      <trkpt lat="43.02498" lon="-0.0806">
        <ele>403.46</ele>
        <time>2018-06-23T14:23:01Z</time>
      </trkpt>
      <trkpt lat="43.02514" lon="-0.08041">
        <ele>403.5</ele>
        <time>2018-06-23T14:23:05Z</time>
      </trkpt>
      <trkpt lat="43.02527" lon="-0.08022">
        <ele>405.13</ele>
        <time>2018-06-23T14:23:09Z</time>
      </trkpt>
      <trkpt lat="43.02543" lon="-0.08001">
        <ele>404.82</ele>
        <time>2018-06-23T14:23:13Z</time>
      </trkpt>
      <trkpt lat="43.02563" lon="-0.07983">
        <ele>404.23</ele>
        <time>2018-06-23T14:23:17Z</time>
      </trkpt>
      <trkpt lat="43.02576" lon="-0.07959">
        <ele>404.52</ele>
        <time>2018-06-23T14:23:21Z</time>
      </trkpt>
      <trkpt lat="43.02593" lon="-0.07936">
        <ele>403.61</ele>
        <time>2018-06-23T14:23:25Z</time>
      </trkpt>
      <trkpt lat="43.02606" lon="-0.07912">
        <ele>403.52</ele>
        <time>2018-06-23T14:23:29Z</time>
      </trkpt>
      <trkpt lat="43.02616" lon="-0.07888">
        <ele>402.61</ele>
        <time>2018-06-23T14:23:33Z</time>
      </trkpt>
      <trkpt lat="43.02627" lon="-0.07868">
        <ele>402.52</ele>
        <time>2018-06-23T14:23:37Z</time>
      </trkpt>
      <trkpt lat="43.02642" lon="-0.07846">
        <ele>402.52</ele>
        <time>2018-06-23T14:23:42Z</time>
      </trkpt>
      <trkpt lat="43.02658" lon="-0.07823">
        <ele>402.54</ele>
        <time>2018-06-23T14:23:46Z</time>
      </trkpt>
      <trkpt lat="43.02657" lon="-0.07798">
        <ele>401.55</ele>
        <time>2018-06-23T14:23:50Z</time>
      </trkpt>
      <trkpt lat="43.02639" lon="-0.07791">
        <ele>397.66</ele>
        <time>2018-06-23T14:23:54Z</time>
      </trkpt>
      <trkpt lat="43.02617" lon="-0.07782">
        <ele>398.2</ele>
        <time>2018-06-23T14:23:58Z</time>
      </trkpt>
      <trkpt lat="43.02599" lon="-0.0777">
        <ele>399.41</ele>
        <time>2018-06-23T14:24:02Z</time>
      </trkpt>
      <trkpt lat="43.02581" lon="-0.07758">
        <ele>400.22</ele>
        <time>2018-06-23T14:24:06Z</time>
      </trkpt>
      <trkpt lat="43.02576" lon="-0.07731">
        <ele>401.49</ele>
        <time>2018-06-23T14:24:12Z</time>
      </trkpt>
      <trkpt lat="43.02568" lon="-0.07704">
        <ele>402.5</ele>
        <time>2018-06-23T14:24:18Z</time>
      </trkpt>
      <trkpt lat="43.0256" lon="-0.07676">
        <ele>402.52</ele>
        <time>2018-06-23T14:24:22Z</time>
      </trkpt>
      <trkpt lat="43.02549" lon="-0.07646">
        <ele>403.49</ele>
        <time>2018-06-23T14:24:26Z</time>
      </trkpt>
      <trkpt lat="43.02558" lon="-0.07623">
        <ele>405.26</ele>
        <time>2018-06-23T14:24:29Z</time>
      </trkpt>
      <trkpt lat="43.02565" lon="-0.07597">
        <ele>406.21</ele>
        <time>2018-06-23T14:24:32Z</time>
      </trkpt>
      <trkpt lat="43.02561" lon="-0.07569">
        <ele>403.66</ele>
        <time>2018-06-23T14:24:36Z</time>
      </trkpt>
      <trkpt lat="43.02559" lon="-0.07543">
        <ele>402.82</ele>
        <time>2018-06-23T14:24:43Z</time>
      </trkpt>
      <trkpt lat="43.02564" lon="-0.07516">
        <ele>401.82</ele>
        <time>2018-06-23T14:24:52Z</time>
      </trkpt>
      <trkpt lat="43.02574" lon="-0.07489">
        <ele>399.83</ele>
        <time>2018-06-23T14:24:56Z</time>
      </trkpt>
      <trkpt lat="43.02575" lon="-0.07458">
        <ele>399.52</ele>
        <time>2018-06-23T14:25:00Z</time>
      </trkpt>
      <trkpt lat="43.02562" lon="-0.07436">
        <ele>398.64</ele>
        <time>2018-06-23T14:25:07Z</time>
      </trkpt>
      <trkpt lat="43.02549" lon="-0.07414">
        <ele>398.52</ele>
        <time>2018-06-23T14:25:11Z</time>
      </trkpt>
      <trkpt lat="43.02538" lon="-0.07394">
        <ele>398.23</ele>
        <time>2018-06-23T14:25:15Z</time>
      </trkpt>
      <trkpt lat="43.0255" lon="-0.07369">
        <ele>398.73</ele>
        <time>2018-06-23T14:25:20Z</time>
      </trkpt>
      <trkpt lat="43.0256" lon="-0.07347">
        <ele>399.44</ele>
        <time>2018-06-23T14:25:23Z</time>
      </trkpt>
      <trkpt lat="43.02573" lon="-0.07328">
        <ele>399.52</ele>
        <time>2018-06-23T14:25:26Z</time>
      </trkpt>
      <trkpt lat="43.02593" lon="-0.07315">
        <ele>399.52</ele>
        <time>2018-06-23T14:25:30Z</time>
      </trkpt>
      <trkpt lat="43.02611" lon="-0.07303">
        <ele>399.46</ele>
        <time>2018-06-23T14:25:33Z</time>
      </trkpt>
      <trkpt lat="43.0263" lon="-0.07296">
        <ele>398.61</ele>
        <time>2018-06-23T14:25:36Z</time>
      </trkpt>
      <trkpt lat="43.02653" lon="-0.0729">
        <ele>395.86</ele>
        <time>2018-06-23T14:25:40Z</time>
      </trkpt>
      <trkpt lat="43.02675" lon="-0.07284">
        <ele>393.56</ele>
        <time>2018-06-23T14:25:44Z</time>
      </trkpt>
      <trkpt lat="43.02695" lon="-0.07278">
        <ele>392.55</ele>
        <time>2018-06-23T14:25:48Z</time>
      </trkpt>
      <trkpt lat="43.02713" lon="-0.07267">
        <ele>393.79</ele>
        <time>2018-06-23T14:25:53Z</time>
      </trkpt>
      <trkpt lat="43.02727" lon="-0.07243">
        <ele>392.83</ele>
        <time>2018-06-23T14:25:56Z</time>
      </trkpt>
      <trkpt lat="43.02727" lon="-0.07214">
        <ele>393.43</ele>
        <time>2018-06-23T14:26:00Z</time>
      </trkpt>
      <trkpt lat="43.02717" lon="-0.07193">
        <ele>394.49</ele>
        <time>2018-06-23T14:26:03Z</time>
      </trkpt>
      <trkpt lat="43.02713" lon="-0.07164">
        <ele>394.5</ele>
        <time>2018-06-23T14:26:07Z</time>
      </trkpt>
      <trkpt lat="43.02706" lon="-0.0714">
        <ele>395.22</ele>
        <time>2018-06-23T14:26:11Z</time>
      </trkpt>
      <trkpt lat="43.02692" lon="-0.07119">
        <ele>394.82</ele>
        <time>2018-06-23T14:26:16Z</time>
      </trkpt>
      <trkpt lat="43.02682" lon="-0.07093">
        <ele>392.7</ele>
        <time>2018-06-23T14:26:20Z</time>
      </trkpt>
      <trkpt lat="43.02679" lon="-0.07065">
        <ele>391.53</ele>
        <time>2018-06-23T14:26:24Z</time>
      </trkpt>
      <trkpt lat="43.02682" lon="-0.07032">
        <ele>392.22</ele>
        <time>2018-06-23T14:26:28Z</time>
      </trkpt>
      <trkpt lat="43.02681" lon="-0.07002">
        <ele>393.22</ele>
        <time>2018-06-23T14:26:32Z</time>
      </trkpt>
      <trkpt lat="43.02675" lon="-0.06978">
        <ele>392.6</ele>
        <time>2018-06-23T14:26:35Z</time>
      </trkpt>
      <trkpt lat="43.02675" lon="-0.06946">
        <ele>393.51</ele>
        <time>2018-06-23T14:26:39Z</time>
      </trkpt>
      <trkpt lat="43.02676" lon="-0.06913">
        <ele>393.52</ele>
        <time>2018-06-23T14:26:43Z</time>
      </trkpt>
      <trkpt lat="43.02676" lon="-0.06887">
        <ele>393.52</ele>
        <time>2018-06-23T14:26:46Z</time>
      </trkpt>
      <trkpt lat="43.02679" lon="-0.06861">
        <ele>393.52</ele>
        <time>2018-06-23T14:26:49Z</time>
      </trkpt>
      <trkpt lat="43.02687" lon="-0.06835">
        <ele>392.55</ele>
        <time>2018-06-23T14:26:52Z</time>
      </trkpt>
      <trkpt lat="43.02697" lon="-0.06806">
        <ele>392.52</ele>
        <time>2018-06-23T14:26:56Z</time>
      </trkpt>
      <trkpt lat="43.02707" lon="-0.06785">
        <ele>392.52</ele>
        <time>2018-06-23T14:26:59Z</time>
      </trkpt>
      <trkpt lat="43.02717" lon="-0.06765">
        <ele>392.52</ele>
        <time>2018-06-23T14:27:02Z</time>
      </trkpt>
      <trkpt lat="43.02729" lon="-0.06742">
        <ele>393.43</ele>
        <time>2018-06-23T14:27:05Z</time>
      </trkpt>
      <trkpt lat="43.02741" lon="-0.0672">
        <ele>394.49</ele>
        <time>2018-06-23T14:27:08Z</time>
      </trkpt>
      <trkpt lat="43.02754" lon="-0.06697">
        <ele>393.88</ele>
        <time>2018-06-23T14:27:12Z</time>
      </trkpt>
      <trkpt lat="43.02769" lon="-0.06673">
        <ele>394.43</ele>
        <time>2018-06-23T14:27:16Z</time>
      </trkpt>
      <trkpt lat="43.02776" lon="-0.06649">
        <ele>393.61</ele>
        <time>2018-06-23T14:27:20Z</time>
      </trkpt>
      <trkpt lat="43.02768" lon="-0.06623">
        <ele>394.72</ele>
        <time>2018-06-23T14:27:24Z</time>
      </trkpt>
      <trkpt lat="43.02757" lon="-0.06599">
        <ele>396.22</ele>
        <time>2018-06-23T14:27:28Z</time>
      </trkpt>
      <trkpt lat="43.02764" lon="-0.06573">
        <ele>397.82</ele>
        <time>2018-06-23T14:27:36Z</time>
      </trkpt>
      <trkpt lat="43.02776" lon="-0.06551">
        <ele>399.22</ele>
        <time>2018-06-23T14:27:41Z</time>
      </trkpt>
      <trkpt lat="43.02791" lon="-0.06536">
        <ele>400.52</ele>
        <time>2018-06-23T14:27:47Z</time>
      </trkpt>
      <trkpt lat="43.02809" lon="-0.0652">
        <ele>401.44</ele>
        <time>2018-06-23T14:27:53Z</time>
      </trkpt>
      <trkpt lat="43.02823" lon="-0.06499">
        <ele>400.12</ele>
        <time>2018-06-23T14:27:57Z</time>
      </trkpt>
      <trkpt lat="43.02835" lon="-0.06479">
        <ele>401.49</ele>
        <time>2018-06-23T14:28:04Z</time>
      </trkpt>
      <trkpt lat="43.02846" lon="-0.06453">
        <ele>403.21</ele>
        <time>2018-06-23T14:28:10Z</time>
      </trkpt>
      <trkpt lat="43.02859" lon="-0.0643">
        <ele>403.5</ele>
        <time>2018-06-23T14:28:16Z</time>
      </trkpt>
      <trkpt lat="43.02861" lon="-0.06404">
        <ele>402.52</ele>
        <time>2018-06-23T14:28:22Z</time>
      </trkpt>
      <trkpt lat="43.02859" lon="-0.06377">
        <ele>401.59</ele>
        <time>2018-06-23T14:28:28Z</time>
      </trkpt>
      <trkpt lat="43.02877" lon="-0.06368">
        <ele>400.55</ele>
        <time>2018-06-23T14:28:35Z</time>
      </trkpt>
      <trkpt lat="43.02896" lon="-0.06359">
        <ele>402.22</ele>
        <time>2018-06-23T14:28:41Z</time>
      </trkpt>
      <trkpt lat="43.02915" lon="-0.06361">
        <ele>402.22</ele>
        <time>2018-06-23T14:28:50Z</time>
      </trkpt>
      <trkpt lat="43.02932" lon="-0.06352">
        <ele>401.53</ele>
        <time>2018-06-23T14:28:57Z</time>
      </trkpt>
      <trkpt lat="43.02952" lon="-0.06351">
        <ele>402.49</ele>
        <time>2018-06-23T14:29:04Z</time>
      </trkpt>
      <trkpt lat="43.02971" lon="-0.06346">
        <ele>402.29</ele>
        <time>2018-06-23T14:29:10Z</time>
      </trkpt>
      <trkpt lat="43.0299" lon="-0.06338">
        <ele>400.82</ele>
        <time>2018-06-23T14:29:19Z</time>
      </trkpt>
      <trkpt lat="43.03006" lon="-0.06322">
        <ele>399.61</ele>
        <time>2018-06-23T14:29:25Z</time>
      </trkpt>
      <trkpt lat="43.03017" lon="-0.06302">
        <ele>397.27</ele>
        <time>2018-06-23T14:29:31Z</time>
      </trkpt>
      <trkpt lat="43.03031" lon="-0.0628">
        <ele>395.62</ele>
        <time>2018-06-23T14:29:40Z</time>
      </trkpt>
      <trkpt lat="43.03052" lon="-0.06272">
        <ele>394.82</ele>
        <time>2018-06-23T14:29:45Z</time>
      </trkpt>
      <trkpt lat="43.03073" lon="-0.06266">
        <ele>393.55</ele>
        <time>2018-06-23T14:29:49Z</time>
      </trkpt>
      <trkpt lat="43.03097" lon="-0.06259">
        <ele>391.83</ele>
        <time>2018-06-23T14:29:53Z</time>
      </trkpt>
      <trkpt lat="43.03115" lon="-0.06253">
        <ele>391.53</ele>
        <time>2018-06-23T14:29:56Z</time>
      </trkpt>
      <trkpt lat="43.03135" lon="-0.06248">
        <ele>392.43</ele>
        <time>2018-06-23T14:29:59Z</time>
      </trkpt>
      <trkpt lat="43.03153" lon="-0.06241">
        <ele>392.52</ele>
        <time>2018-06-23T14:30:02Z</time>
      </trkpt>
      <trkpt lat="43.03172" lon="-0.06235">
        <ele>392.52</ele>
        <time>2018-06-23T14:30:05Z</time>
      </trkpt>
      <trkpt lat="43.03191" lon="-0.06228">
        <ele>392.52</ele>
        <time>2018-06-23T14:30:08Z</time>
      </trkpt>
      <trkpt lat="43.0321" lon="-0.06222">
        <ele>392.52</ele>
        <time>2018-06-23T14:30:11Z</time>
      </trkpt>
      <trkpt lat="43.03228" lon="-0.06217">
        <ele>392.52</ele>
        <time>2018-06-23T14:30:14Z</time>
      </trkpt>
      <trkpt lat="43.03247" lon="-0.0621">
        <ele>393.43</ele>
        <time>2018-06-23T14:30:17Z</time>
      </trkpt>
      <trkpt lat="43.03266" lon="-0.06205">
        <ele>392.55</ele>
        <time>2018-06-23T14:30:20Z</time>
      </trkpt>
      <trkpt lat="43.03285" lon="-0.06199">
        <ele>392.52</ele>
        <time>2018-06-23T14:30:23Z</time>
      </trkpt>
      <trkpt lat="43.03304" lon="-0.06195">
        <ele>394.41</ele>
        <time>2018-06-23T14:30:26Z</time>
      </trkpt>
      <trkpt lat="43.03325" lon="-0.06188">
        <ele>395.49</ele>
        <time>2018-06-23T14:30:29Z</time>
      </trkpt>
      <trkpt lat="43.03345" lon="-0.0618">
        <ele>396.43</ele>
        <time>2018-06-23T14:30:32Z</time>
      </trkpt>
      <trkpt lat="43.03365" lon="-0.06174">
        <ele>396.52</ele>
        <time>2018-06-23T14:30:35Z</time>
      </trkpt>
      <trkpt lat="43.03384" lon="-0.06165">
        <ele>396.58</ele>
        <time>2018-06-23T14:30:38Z</time>
      </trkpt>
      <trkpt lat="43.03404" lon="-0.06162">
        <ele>398.2</ele>
        <time>2018-06-23T14:30:41Z</time>
      </trkpt>
      <trkpt lat="43.03424" lon="-0.06158">
        <ele>398.45</ele>
        <time>2018-06-23T14:30:44Z</time>
      </trkpt>
      <trkpt lat="43.03443" lon="-0.06154">
        <ele>399.22</ele>
        <time>2018-06-23T14:30:47Z</time>
      </trkpt>
      <trkpt lat="43.03462" lon="-0.06149">
        <ele>399.51</ele>
        <time>2018-06-23T14:30:50Z</time>
      </trkpt>
      <trkpt lat="43.03481" lon="-0.0614">
        <ele>398.55</ele>
        <time>2018-06-23T14:30:53Z</time>
      </trkpt>
      <trkpt lat="43.035" lon="-0.06135">
        <ele>397.61</ele>
        <time>2018-06-23T14:30:56Z</time>
      </trkpt>
      <trkpt lat="43.03522" lon="-0.06123">
        <ele>394.65</ele>
        <time>2018-06-23T14:31:00Z</time>
      </trkpt>
      <trkpt lat="43.03541" lon="-0.06117">
        <ele>393.82</ele>
        <time>2018-06-23T14:31:04Z</time>
      </trkpt>
      <trkpt lat="43.0356" lon="-0.06115">
        <ele>391.16</ele>
        <time>2018-06-23T14:31:07Z</time>
      </trkpt>
      <trkpt lat="43.03579" lon="-0.06111">
        <ele>388.17</ele>
        <time>2018-06-23T14:31:10Z</time>
      </trkpt>
      <trkpt lat="43.03597" lon="-0.06107">
        <ele>386.63</ele>
        <time>2018-06-23T14:31:13Z</time>
      </trkpt>
      <trkpt lat="43.03616" lon="-0.06103">
        <ele>384.58</ele>
        <time>2018-06-23T14:31:16Z</time>
      </trkpt>
      <trkpt lat="43.03634" lon="-0.06101">
        <ele>384.52</ele>
        <time>2018-06-23T14:31:19Z</time>
      </trkpt>
      <trkpt lat="43.03653" lon="-0.06096">
        <ele>383.55</ele>
        <time>2018-06-23T14:31:22Z</time>
      </trkpt>
      <trkpt lat="43.03671" lon="-0.06093">
        <ele>382.82</ele>
        <time>2018-06-23T14:31:25Z</time>
      </trkpt>
      <trkpt lat="43.03689" lon="-0.06089">
        <ele>382.53</ele>
        <time>2018-06-23T14:31:28Z</time>
      </trkpt>
      <trkpt lat="43.03708" lon="-0.06086">
        <ele>382.52</ele>
        <time>2018-06-23T14:31:31Z</time>
      </trkpt>
      <trkpt lat="43.03727" lon="-0.06081">
        <ele>382.52</ele>
        <time>2018-06-23T14:31:34Z</time>
      </trkpt>
      <trkpt lat="43.03747" lon="-0.06075">
        <ele>382.52</ele>
        <time>2018-06-23T14:31:37Z</time>
      </trkpt>
      <trkpt lat="43.03766" lon="-0.0607">
        <ele>382.52</ele>
        <time>2018-06-23T14:31:40Z</time>
      </trkpt>
      <trkpt lat="43.03786" lon="-0.06066">
        <ele>382.52</ele>
        <time>2018-06-23T14:31:43Z</time>
      </trkpt>
      <trkpt lat="43.03806" lon="-0.06059">
        <ele>383.43</ele>
        <time>2018-06-23T14:31:46Z</time>
      </trkpt>
      <trkpt lat="43.03825" lon="-0.06056">
        <ele>383.52</ele>
        <time>2018-06-23T14:31:49Z</time>
      </trkpt>
      <trkpt lat="43.03844" lon="-0.06052">
        <ele>382.61</ele>
        <time>2018-06-23T14:31:52Z</time>
      </trkpt>
      <trkpt lat="43.03863" lon="-0.06048">
        <ele>382.52</ele>
        <time>2018-06-23T14:31:55Z</time>
      </trkpt>
      <trkpt lat="43.03883" lon="-0.06044">
        <ele>382.52</ele>
        <time>2018-06-23T14:31:58Z</time>
      </trkpt>
      <trkpt lat="43.03903" lon="-0.06039">
        <ele>381.61</ele>
        <time>2018-06-23T14:32:01Z</time>
      </trkpt>
      <trkpt lat="43.03924" lon="-0.06033">
        <ele>381.52</ele>
        <time>2018-06-23T14:32:04Z</time>
      </trkpt>
      <trkpt lat="43.03943" lon="-0.06025">
        <ele>382.22</ele>
        <time>2018-06-23T14:32:07Z</time>
      </trkpt>
      <trkpt lat="43.03962" lon="-0.06019">
        <ele>381.81</ele>
        <time>2018-06-23T14:32:10Z</time>
      </trkpt>
      <trkpt lat="43.03983" lon="-0.0601">
        <ele>381.52</ele>
        <time>2018-06-23T14:32:14Z</time>
      </trkpt>
      <trkpt lat="43.04002" lon="-0.06001">
        <ele>380.55</ele>
        <time>2018-06-23T14:32:18Z</time>
      </trkpt>
      <trkpt lat="43.04022" lon="-0.06013">
        <ele>383.19</ele>
        <time>2018-06-23T14:32:26Z</time>
      </trkpt>
      <trkpt lat="43.04032" lon="-0.06034">
        <ele>384.22</ele>
        <time>2018-06-23T14:32:32Z</time>
      </trkpt>
      <trkpt lat="43.04039" lon="-0.06064">
        <ele>387.12</ele>
        <time>2018-06-23T14:32:37Z</time>
      </trkpt>
      <trkpt lat="43.0405" lon="-0.06088">
        <ele>387.52</ele>
        <time>2018-06-23T14:32:41Z</time>
      </trkpt>
      <trkpt lat="43.04073" lon="-0.06092">
        <ele>384.65</ele>
        <time>2018-06-23T14:32:45Z</time>
      </trkpt>
      <trkpt lat="43.04092" lon="-0.06099">
        <ele>383.9</ele>
        <time>2018-06-23T14:32:49Z</time>
      </trkpt>
      <trkpt lat="43.04113" lon="-0.06114">
        <ele>380.65</ele>
        <time>2018-06-23T14:32:53Z</time>
      </trkpt>
      <trkpt lat="43.04134" lon="-0.06128">
        <ele>380.52</ele>
        <time>2018-06-23T14:32:57Z</time>
      </trkpt>
      <trkpt lat="43.04154" lon="-0.06137">
        <ele>380.52</ele>
        <time>2018-06-23T14:33:01Z</time>
      </trkpt>
      <trkpt lat="43.04173" lon="-0.06141">
        <ele>381.43</ele>
        <time>2018-06-23T14:33:04Z</time>
      </trkpt>
      <trkpt lat="43.04192" lon="-0.06137">
        <ele>381.79</ele>
        <time>2018-06-23T14:33:07Z</time>
      </trkpt>
      <trkpt lat="43.04207" lon="-0.06123">
        <ele>381.53</ele>
        <time>2018-06-23T14:33:10Z</time>
      </trkpt>
      <trkpt lat="43.04224" lon="-0.06113">
        <ele>381.46</ele>
        <time>2018-06-23T14:33:13Z</time>
      </trkpt>
      <trkpt lat="43.04242" lon="-0.06103">
        <ele>379.64</ele>
        <time>2018-06-23T14:33:16Z</time>
      </trkpt>
      <trkpt lat="43.04258" lon="-0.06087">
        <ele>377.64</ele>
        <time>2018-06-23T14:33:19Z</time>
      </trkpt>
      <trkpt lat="43.04273" lon="-0.06062">
        <ele>374.24</ele>
        <time>2018-06-23T14:33:22Z</time>
      </trkpt>
      <trkpt lat="43.04285" lon="-0.06031">
        <ele>371.92</ele>
        <time>2018-06-23T14:33:26Z</time>
      </trkpt>
      <trkpt lat="43.04285" lon="-0.06004">
        <ele>369.65</ele>
        <time>2018-06-23T14:33:29Z</time>
      </trkpt>
      <trkpt lat="43.04281" lon="-0.0598">
        <ele>369.53</ele>
        <time>2018-06-23T14:33:32Z</time>
      </trkpt>
      <trkpt lat="43.04287" lon="-0.05955">
        <ele>370.43</ele>
        <time>2018-06-23T14:33:35Z</time>
      </trkpt>
      <trkpt lat="43.04291" lon="-0.05927">
        <ele>370.58</ele>
        <time>2018-06-23T14:33:38Z</time>
      </trkpt>
      <trkpt lat="43.04294" lon="-0.05903">
        <ele>369.82</ele>
        <time>2018-06-23T14:33:41Z</time>
      </trkpt>
      <trkpt lat="43.043" lon="-0.05876">
        <ele>368.83</ele>
        <time>2018-06-23T14:33:44Z</time>
      </trkpt>
      <trkpt lat="43.04308" lon="-0.05851">
        <ele>367.56</ele>
        <time>2018-06-23T14:33:47Z</time>
      </trkpt>
      <trkpt lat="43.0431" lon="-0.05823">
        <ele>367.23</ele>
        <time>2018-06-23T14:33:52Z</time>
      </trkpt>
      <trkpt lat="43.04328" lon="-0.05808">
        <ele>369.42</ele>
        <time>2018-06-23T14:33:56Z</time>
      </trkpt>
      <trkpt lat="43.04346" lon="-0.05794">
        <ele>369.52</ele>
        <time>2018-06-23T14:33:59Z</time>
      </trkpt>
      <trkpt lat="43.04363" lon="-0.0578">
        <ele>369.52</ele>
        <time>2018-06-23T14:34:02Z</time>
      </trkpt>
      <trkpt lat="43.04382" lon="-0.05769">
        <ele>369.25</ele>
        <time>2018-06-23T14:34:05Z</time>
      </trkpt>
      <trkpt lat="43.04401" lon="-0.05757">
        <ele>369.3</ele>
        <time>2018-06-23T14:34:08Z</time>
      </trkpt>
      <trkpt lat="43.04416" lon="-0.05734">
        <ele>370.43</ele>
        <time>2018-06-23T14:34:11Z</time>
      </trkpt>
      <trkpt lat="43.04431" lon="-0.05715">
        <ele>370.67</ele>
        <time>2018-06-23T14:34:14Z</time>
      </trkpt>
      <trkpt lat="43.04449" lon="-0.057">
        <ele>370.86</ele>
        <time>2018-06-23T14:34:17Z</time>
      </trkpt>
      <trkpt lat="43.04466" lon="-0.05691">
        <ele>372.48</ele>
        <time>2018-06-23T14:34:20Z</time>
      </trkpt>
      <trkpt lat="43.04483" lon="-0.0568">
        <ele>373.43</ele>
        <time>2018-06-23T14:34:23Z</time>
      </trkpt>
      <trkpt lat="43.04497" lon="-0.05661">
        <ele>374.49</ele>
        <time>2018-06-23T14:34:26Z</time>
      </trkpt>
      <trkpt lat="43.04511" lon="-0.05641">
        <ele>374.52</ele>
        <time>2018-06-23T14:34:29Z</time>
      </trkpt>
      <trkpt lat="43.04532" lon="-0.05627">
        <ele>374.52</ele>
        <time>2018-06-23T14:34:33Z</time>
      </trkpt>
      <trkpt lat="43.04546" lon="-0.05609">
        <ele>373.82</ele>
        <time>2018-06-23T14:34:36Z</time>
      </trkpt>
      <trkpt lat="43.04553" lon="-0.05583">
        <ele>374.22</ele>
        <time>2018-06-23T14:34:40Z</time>
      </trkpt>
      <trkpt lat="43.0457" lon="-0.05565">
        <ele>375.22</ele>
        <time>2018-06-23T14:34:44Z</time>
      </trkpt>
      <trkpt lat="43.04588" lon="-0.05548">
        <ele>376.43</ele>
        <time>2018-06-23T14:34:48Z</time>
      </trkpt>
      <trkpt lat="43.04607" lon="-0.05529">
        <ele>377.51</ele>
        <time>2018-06-23T14:34:52Z</time>
      </trkpt>
      <trkpt lat="43.04622" lon="-0.05514">
        <ele>378.43</ele>
        <time>2018-06-23T14:34:55Z</time>
      </trkpt>
      <trkpt lat="43.04638" lon="-0.055">
        <ele>379.22</ele>
        <time>2018-06-23T14:34:58Z</time>
      </trkpt>
      <trkpt lat="43.04657" lon="-0.05487">
        <ele>379.51</ele>
        <time>2018-06-23T14:35:01Z</time>
      </trkpt>
      <trkpt lat="43.04672" lon="-0.05473">
        <ele>380.52</ele>
        <time>2018-06-23T14:35:06Z</time>
      </trkpt>
      <trkpt lat="43.04688" lon="-0.0545">
        <ele>381.79</ele>
        <time>2018-06-23T14:35:10Z</time>
      </trkpt>
      <trkpt lat="43.04703" lon="-0.05429">
        <ele>381.8</ele>
        <time>2018-06-23T14:35:14Z</time>
      </trkpt>
      <trkpt lat="43.04707" lon="-0.05404">
        <ele>384.52</ele>
        <time>2018-06-23T14:35:55Z</time>
      </trkpt>
      <trkpt lat="43.04724" lon="-0.05386">
        <ele>384.52</ele>
        <time>2018-06-23T14:36:01Z</time>
      </trkpt>
      <trkpt lat="43.04737" lon="-0.05368">
        <ele>385.43</ele>
        <time>2018-06-23T14:36:07Z</time>
      </trkpt>
      <trkpt lat="43.04757" lon="-0.05364">
        <ele>386.43</ele>
        <time>2018-06-23T14:36:18Z</time>
      </trkpt>
      <trkpt lat="43.04776" lon="-0.05351">
        <ele>385.52</ele>
        <time>2018-06-23T14:36:25Z</time>
      </trkpt>
      <trkpt lat="43.0479" lon="-0.05336">
        <ele>386.51</ele>
        <time>2018-06-23T14:36:31Z</time>
      </trkpt>
      <trkpt lat="43.0481" lon="-0.05334">
        <ele>388.49</ele>
        <time>2018-06-23T14:36:38Z</time>
      </trkpt>
      <trkpt lat="43.0483" lon="-0.05332">
        <ele>389.46</ele>
        <time>2018-06-23T14:36:44Z</time>
      </trkpt>
      <trkpt lat="43.04847" lon="-0.05322">
        <ele>389.52</ele>
        <time>2018-06-23T14:36:49Z</time>
      </trkpt>
      <trkpt lat="43.04859" lon="-0.05297">
        <ele>391.43</ele>
        <time>2018-06-23T14:36:56Z</time>
      </trkpt>
      <trkpt lat="43.04868" lon="-0.05275">
        <ele>391.52</ele>
        <time>2018-06-23T14:37:01Z</time>
      </trkpt>
      <trkpt lat="43.04883" lon="-0.05252">
        <ele>391.8</ele>
        <time>2018-06-23T14:37:05Z</time>
      </trkpt>
      <trkpt lat="43.04894" lon="-0.05232">
        <ele>392.51</ele>
        <time>2018-06-23T14:37:10Z</time>
      </trkpt>
      <trkpt lat="43.04906" lon="-0.05213">
        <ele>393.52</ele>
        <time>2018-06-23T14:37:16Z</time>
      </trkpt>
      <trkpt lat="43.04925" lon="-0.05212">
        <ele>393.52</ele>
        <time>2018-06-23T14:37:22Z</time>
      </trkpt>
      <trkpt lat="43.04935" lon="-0.05189">
        <ele>395.49</ele>
        <time>2018-06-23T14:37:28Z</time>
      </trkpt>
      <trkpt lat="43.04953" lon="-0.05176">
        <ele>396.49</ele>
        <time>2018-06-23T14:37:33Z</time>
      </trkpt>
      <trkpt lat="43.04975" lon="-0.05183">
        <ele>396.52</ele>
        <time>2018-06-23T14:37:38Z</time>
      </trkpt>
      <trkpt lat="43.04993" lon="-0.05192">
        <ele>393.73</ele>
        <time>2018-06-23T14:37:42Z</time>
      </trkpt>
      <trkpt lat="43.05011" lon="-0.05203">
        <ele>390.73</ele>
        <time>2018-06-23T14:37:46Z</time>
      </trkpt>
      <trkpt lat="43.05028" lon="-0.05196">
        <ele>389.53</ele>
        <time>2018-06-23T14:37:50Z</time>
      </trkpt>
      <trkpt lat="43.05047" lon="-0.05186">
        <ele>388.84</ele>
        <time>2018-06-23T14:37:54Z</time>
      </trkpt>
      <trkpt lat="43.05066" lon="-0.05175">
        <ele>388.52</ele>
        <time>2018-06-23T14:37:58Z</time>
      </trkpt>
      <trkpt lat="43.05086" lon="-0.05166">
        <ele>387.61</ele>
        <time>2018-06-23T14:38:02Z</time>
      </trkpt>
      <trkpt lat="43.05103" lon="-0.05155">
        <ele>388.43</ele>
        <time>2018-06-23T14:38:06Z</time>
      </trkpt>
      <trkpt lat="43.0512" lon="-0.05135">
        <ele>390.49</ele>
        <time>2018-06-23T14:38:10Z</time>
      </trkpt>
      <trkpt lat="43.05136" lon="-0.05113">
        <ele>391.51</ele>
        <time>2018-06-23T14:38:14Z</time>
      </trkpt>
      <trkpt lat="43.05153" lon="-0.05093">
        <ele>390.61</ele>
        <time>2018-06-23T14:38:18Z</time>
      </trkpt>
      <trkpt lat="43.0517" lon="-0.05074">
        <ele>389.55</ele>
        <time>2018-06-23T14:38:22Z</time>
      </trkpt>
      <trkpt lat="43.05186" lon="-0.05051">
        <ele>389.39</ele>
        <time>2018-06-23T14:38:26Z</time>
      </trkpt>
      <trkpt lat="43.052" lon="-0.05023">
        <ele>390.43</ele>
        <time>2018-06-23T14:38:30Z</time>
      </trkpt>
      <trkpt lat="43.05214" lon="-0.05001">
        <ele>391.49</ele>
        <time>2018-06-23T14:38:33Z</time>
      </trkpt>
      <trkpt lat="43.05216" lon="-0.04968">
        <ele>390.53</ele>
        <time>2018-06-23T14:38:37Z</time>
      </trkpt>
      <trkpt lat="43.05217" lon="-0.04943">
        <ele>390.52</ele>
        <time>2018-06-23T14:38:40Z</time>
      </trkpt>
      <trkpt lat="43.05222" lon="-0.04919">
        <ele>392.13</ele>
        <time>2018-06-23T14:38:43Z</time>
      </trkpt>
      <trkpt lat="43.05229" lon="-0.04894">
        <ele>394.39</ele>
        <time>2018-06-23T14:38:46Z</time>
      </trkpt>
      <trkpt lat="43.05246" lon="-0.04872">
        <ele>395.49</ele>
        <time>2018-06-23T14:38:49Z</time>
      </trkpt>
      <trkpt lat="43.05263" lon="-0.04852">
        <ele>395.46</ele>
        <time>2018-06-23T14:38:52Z</time>
      </trkpt>
      <trkpt lat="43.05278" lon="-0.04834">
        <ele>394.55</ele>
        <time>2018-06-23T14:38:55Z</time>
      </trkpt>
      <trkpt lat="43.05291" lon="-0.04814">
        <ele>393.82</ele>
        <time>2018-06-23T14:38:58Z</time>
      </trkpt>
      <trkpt lat="43.05304" lon="-0.04793">
        <ele>393.74</ele>
        <time>2018-06-23T14:39:01Z</time>
      </trkpt>
      <trkpt lat="43.05301" lon="-0.04766">
        <ele>391.85</ele>
        <time>2018-06-23T14:39:05Z</time>
      </trkpt>
      <trkpt lat="43.05287" lon="-0.04747">
        <ele>391.52</ele>
        <time>2018-06-23T14:39:09Z</time>
      </trkpt>
      <trkpt lat="43.05265" lon="-0.04733">
        <ele>391.52</ele>
        <time>2018-06-23T14:39:13Z</time>
      </trkpt>
      <trkpt lat="43.05249" lon="-0.04719">
        <ele>392.22</ele>
        <time>2018-06-23T14:39:16Z</time>
      </trkpt>
      <trkpt lat="43.05234" lon="-0.04695">
        <ele>393.22</ele>
        <time>2018-06-23T14:39:20Z</time>
      </trkpt>
      <trkpt lat="43.05224" lon="-0.04672">
        <ele>393.52</ele>
        <time>2018-06-23T14:39:24Z</time>
      </trkpt>
      <trkpt lat="43.05219" lon="-0.04648">
        <ele>393.52</ele>
        <time>2018-06-23T14:39:28Z</time>
      </trkpt>
      <trkpt lat="43.05218" lon="-0.04621">
        <ele>392.53</ele>
        <time>2018-06-23T14:39:32Z</time>
      </trkpt>
      <trkpt lat="43.05222" lon="-0.04594">
        <ele>391.53</ele>
        <time>2018-06-23T14:39:36Z</time>
      </trkpt>
      <trkpt lat="43.05237" lon="-0.04569">
        <ele>391.52</ele>
        <time>2018-06-23T14:39:41Z</time>
      </trkpt>
      <trkpt lat="43.05257" lon="-0.04561">
        <ele>392.43</ele>
        <time>2018-06-23T14:39:44Z</time>
      </trkpt>
      <trkpt lat="43.05275" lon="-0.04551">
        <ele>393.43</ele>
        <time>2018-06-23T14:39:47Z</time>
      </trkpt>
      <trkpt lat="43.05295" lon="-0.0454">
        <ele>392.61</ele>
        <time>2018-06-23T14:39:50Z</time>
      </trkpt>
      <trkpt lat="43.05314" lon="-0.04531">
        <ele>392.52</ele>
        <time>2018-06-23T14:39:53Z</time>
      </trkpt>
      <trkpt lat="43.05333" lon="-0.04519">
        <ele>392.52</ele>
        <time>2018-06-23T14:39:56Z</time>
      </trkpt>
      <trkpt lat="43.05351" lon="-0.04505">
        <ele>392.52</ele>
        <time>2018-06-23T14:39:59Z</time>
      </trkpt>
      <trkpt lat="43.0537" lon="-0.04492">
        <ele>391.55</ele>
        <time>2018-06-23T14:40:02Z</time>
      </trkpt>
      <trkpt lat="43.05388" lon="-0.04481">
        <ele>390.82</ele>
        <time>2018-06-23T14:40:05Z</time>
      </trkpt>
      <trkpt lat="43.05407" lon="-0.0447">
        <ele>390.53</ele>
        <time>2018-06-23T14:40:08Z</time>
      </trkpt>
      <trkpt lat="43.05426" lon="-0.04458">
        <ele>389.55</ele>
        <time>2018-06-23T14:40:11Z</time>
      </trkpt>
      <trkpt lat="43.05445" lon="-0.04446">
        <ele>389.52</ele>
        <time>2018-06-23T14:40:14Z</time>
      </trkpt>
      <trkpt lat="43.05464" lon="-0.04435">
        <ele>389.52</ele>
        <time>2018-06-23T14:40:17Z</time>
      </trkpt>
      <trkpt lat="43.05482" lon="-0.0442">
        <ele>389.52</ele>
        <time>2018-06-23T14:40:20Z</time>
      </trkpt>
      <trkpt lat="43.05499" lon="-0.04405">
        <ele>388.82</ele>
        <time>2018-06-23T14:40:23Z</time>
      </trkpt>
      <trkpt lat="43.05519" lon="-0.04389">
        <ele>387.62</ele>
        <time>2018-06-23T14:40:26Z</time>
      </trkpt>
      <trkpt lat="43.05539" lon="-0.04376">
        <ele>386.82</ele>
        <time>2018-06-23T14:40:29Z</time>
      </trkpt>
      <trkpt lat="43.05559" lon="-0.04366">
        <ele>385.83</ele>
        <time>2018-06-23T14:40:32Z</time>
      </trkpt>
      <trkpt lat="43.05579" lon="-0.04353">
        <ele>384.83</ele>
        <time>2018-06-23T14:40:35Z</time>
      </trkpt>
      <trkpt lat="43.05599" lon="-0.04342">
        <ele>384.53</ele>
        <time>2018-06-23T14:40:38Z</time>
      </trkpt>
      <trkpt lat="43.05618" lon="-0.04329">
        <ele>383.61</ele>
        <time>2018-06-23T14:40:41Z</time>
      </trkpt>
      <trkpt lat="43.05637" lon="-0.04317">
        <ele>382.55</ele>
        <time>2018-06-23T14:40:44Z</time>
      </trkpt>
      <trkpt lat="43.05657" lon="-0.04305">
        <ele>381.82</ele>
        <time>2018-06-23T14:40:47Z</time>
      </trkpt>
      <trkpt lat="43.05677" lon="-0.04294">
        <ele>381.59</ele>
        <time>2018-06-23T14:40:50Z</time>
      </trkpt>
      <trkpt lat="43.05696" lon="-0.04283">
        <ele>381.52</ele>
        <time>2018-06-23T14:40:53Z</time>
      </trkpt>
      <trkpt lat="43.05715" lon="-0.04273">
        <ele>381.52</ele>
        <time>2018-06-23T14:40:56Z</time>
      </trkpt>
      <trkpt lat="43.05734" lon="-0.04259">
        <ele>379.91</ele>
        <time>2018-06-23T14:40:59Z</time>
      </trkpt>
      <trkpt lat="43.05753" lon="-0.04245">
        <ele>378.62</ele>
        <time>2018-06-23T14:41:02Z</time>
      </trkpt>
      <trkpt lat="43.05772" lon="-0.04232">
        <ele>376.85</ele>
        <time>2018-06-23T14:41:05Z</time>
      </trkpt>
      <trkpt lat="43.05792" lon="-0.04224">
        <ele>376.53</ele>
        <time>2018-06-23T14:41:08Z</time>
      </trkpt>
      <trkpt lat="43.05812" lon="-0.04212">
        <ele>375.55</ele>
        <time>2018-06-23T14:41:11Z</time>
      </trkpt>
      <trkpt lat="43.0583" lon="-0.04201">
        <ele>375.52</ele>
        <time>2018-06-23T14:41:14Z</time>
      </trkpt>
      <trkpt lat="43.05848" lon="-0.04191">
        <ele>375.52</ele>
        <time>2018-06-23T14:41:17Z</time>
      </trkpt>
      <trkpt lat="43.05866" lon="-0.04179">
        <ele>376.22</ele>
        <time>2018-06-23T14:41:20Z</time>
      </trkpt>
      <trkpt lat="43.05884" lon="-0.04167">
        <ele>376.51</ele>
        <time>2018-06-23T14:41:23Z</time>
      </trkpt>
      <trkpt lat="43.05902" lon="-0.04156">
        <ele>376.52</ele>
        <time>2018-06-23T14:41:26Z</time>
      </trkpt>
      <trkpt lat="43.0592" lon="-0.04146">
        <ele>376.46</ele>
        <time>2018-06-23T14:41:29Z</time>
      </trkpt>
      <trkpt lat="43.05938" lon="-0.04137">
        <ele>378.13</ele>
        <time>2018-06-23T14:41:32Z</time>
      </trkpt>
      <trkpt lat="43.05956" lon="-0.04129">
        <ele>379.48</ele>
        <time>2018-06-23T14:41:35Z</time>
      </trkpt>
      <trkpt lat="43.05976" lon="-0.04123">
        <ele>379.52</ele>
        <time>2018-06-23T14:41:38Z</time>
      </trkpt>
      <trkpt lat="43.05994" lon="-0.04114">
        <ele>380.43</ele>
        <time>2018-06-23T14:41:41Z</time>
      </trkpt>
      <trkpt lat="43.06015" lon="-0.04104">
        <ele>381.43</ele>
        <time>2018-06-23T14:41:44Z</time>
      </trkpt>
      <trkpt lat="43.06036" lon="-0.04096">
        <ele>383.19</ele>
        <time>2018-06-23T14:41:47Z</time>
      </trkpt>
      <trkpt lat="43.06056" lon="-0.04087">
        <ele>384.42</ele>
        <time>2018-06-23T14:41:50Z</time>
      </trkpt>
      <trkpt lat="43.06074" lon="-0.04078">
        <ele>385.49</ele>
        <time>2018-06-23T14:41:53Z</time>
      </trkpt>
      <trkpt lat="43.06092" lon="-0.04069">
        <ele>385.52</ele>
        <time>2018-06-23T14:41:56Z</time>
      </trkpt>
      <trkpt lat="43.0611" lon="-0.0406">
        <ele>385.52</ele>
        <time>2018-06-23T14:41:59Z</time>
      </trkpt>
      <trkpt lat="43.0613" lon="-0.04053">
        <ele>386.22</ele>
        <time>2018-06-23T14:42:02Z</time>
      </trkpt>
      <trkpt lat="43.06149" lon="-0.04045">
        <ele>386.51</ele>
        <time>2018-06-23T14:42:05Z</time>
      </trkpt>
      <trkpt lat="43.06168" lon="-0.04041">
        <ele>386.52</ele>
        <time>2018-06-23T14:42:08Z</time>
      </trkpt>
      <trkpt lat="43.06188" lon="-0.04038">
        <ele>386.52</ele>
        <time>2018-06-23T14:42:11Z</time>
      </trkpt>
      <trkpt lat="43.06207" lon="-0.04035">
        <ele>387.29</ele>
        <time>2018-06-23T14:42:14Z</time>
      </trkpt>
      <trkpt lat="43.06227" lon="-0.04029">
        <ele>386.82</ele>
        <time>2018-06-23T14:42:17Z</time>
      </trkpt>
      <trkpt lat="43.06248" lon="-0.04026">
        <ele>384.92</ele>
        <time>2018-06-23T14:42:20Z</time>
      </trkpt>
      <trkpt lat="43.06267" lon="-0.04024">
        <ele>384.53</ele>
        <time>2018-06-23T14:42:23Z</time>
      </trkpt>
      <trkpt lat="43.06287" lon="-0.04022">
        <ele>382.85</ele>
        <time>2018-06-23T14:42:26Z</time>
      </trkpt>
      <trkpt lat="43.06308" lon="-0.04021">
        <ele>380.92</ele>
        <time>2018-06-23T14:42:29Z</time>
      </trkpt>
      <trkpt lat="43.06329" lon="-0.04019">
        <ele>379.62</ele>
        <time>2018-06-23T14:42:32Z</time>
      </trkpt>
      <trkpt lat="43.06349" lon="-0.04019">
        <ele>377.85</ele>
        <time>2018-06-23T14:42:35Z</time>
      </trkpt>
      <trkpt lat="43.06369" lon="-0.04017">
        <ele>375.92</ele>
        <time>2018-06-23T14:42:38Z</time>
      </trkpt>
      <trkpt lat="43.06389" lon="-0.04016">
        <ele>374.62</ele>
        <time>2018-06-23T14:42:41Z</time>
      </trkpt>
      <trkpt lat="43.06409" lon="-0.04016">
        <ele>372.85</ele>
        <time>2018-06-23T14:42:44Z</time>
      </trkpt>
      <trkpt lat="43.0643" lon="-0.04015">
        <ele>371.62</ele>
        <time>2018-06-23T14:42:47Z</time>
      </trkpt>
      <trkpt lat="43.0645" lon="-0.04014">
        <ele>370.61</ele>
        <time>2018-06-23T14:42:50Z</time>
      </trkpt>
      <trkpt lat="43.0647" lon="-0.04014">
        <ele>369.82</ele>
        <time>2018-06-23T14:42:53Z</time>
      </trkpt>
      <trkpt lat="43.0649" lon="-0.04014">
        <ele>369.53</ele>
        <time>2018-06-23T14:42:56Z</time>
      </trkpt>
      <trkpt lat="43.06512" lon="-0.04014">
        <ele>369.52</ele>
        <time>2018-06-23T14:42:59Z</time>
      </trkpt>
      <trkpt lat="43.06532" lon="-0.04012">
        <ele>367.85</ele>
        <time>2018-06-23T14:43:02Z</time>
      </trkpt>
      <trkpt lat="43.06552" lon="-0.04011">
        <ele>367.53</ele>
        <time>2018-06-23T14:43:05Z</time>
      </trkpt>
      <trkpt lat="43.06572" lon="-0.04009">
        <ele>366.61</ele>
        <time>2018-06-23T14:43:08Z</time>
      </trkpt>
      <trkpt lat="43.06592" lon="-0.04009">
        <ele>365.55</ele>
        <time>2018-06-23T14:43:11Z</time>
      </trkpt>
      <trkpt lat="43.06613" lon="-0.04011">
        <ele>365.8</ele>
        <time>2018-06-23T14:43:14Z</time>
      </trkpt>
      <trkpt lat="43.06633" lon="-0.0401">
        <ele>365.53</ele>
        <time>2018-06-23T14:43:17Z</time>
      </trkpt>
      <trkpt lat="43.06653" lon="-0.04012">
        <ele>365.52</ele>
        <time>2018-06-23T14:43:20Z</time>
      </trkpt>
      <trkpt lat="43.06673" lon="-0.04014">
        <ele>364.61</ele>
        <time>2018-06-23T14:43:23Z</time>
      </trkpt>
      <trkpt lat="43.06693" lon="-0.04019">
        <ele>363.82</ele>
        <time>2018-06-23T14:43:26Z</time>
      </trkpt>
      <trkpt lat="43.06714" lon="-0.04024">
        <ele>361.65</ele>
        <time>2018-06-23T14:43:29Z</time>
      </trkpt>
      <trkpt lat="43.06734" lon="-0.04026">
        <ele>359.64</ele>
        <time>2018-06-23T14:43:32Z</time>
      </trkpt>
      <trkpt lat="43.06755" lon="-0.04031">
        <ele>358.83</ele>
        <time>2018-06-23T14:43:35Z</time>
      </trkpt>
      <trkpt lat="43.06777" lon="-0.04036">
        <ele>357.83</ele>
        <time>2018-06-23T14:43:38Z</time>
      </trkpt>
      <trkpt lat="43.068" lon="-0.04041">
        <ele>357.53</ele>
        <time>2018-06-23T14:43:41Z</time>
      </trkpt>
      <trkpt lat="43.06822" lon="-0.04047">
        <ele>357.46</ele>
        <time>2018-06-23T14:43:44Z</time>
      </trkpt>
      <trkpt lat="43.06844" lon="-0.04053">
        <ele>358.16</ele>
        <time>2018-06-23T14:43:47Z</time>
      </trkpt>
      <trkpt lat="43.06866" lon="-0.04059">
        <ele>359.49</ele>
        <time>2018-06-23T14:43:50Z</time>
      </trkpt>
      <trkpt lat="43.06886" lon="-0.04068">
        <ele>359.52</ele>
        <time>2018-06-23T14:43:53Z</time>
      </trkpt>
      <trkpt lat="43.06905" lon="-0.04074">
        <ele>360.49</ele>
        <time>2018-06-23T14:43:56Z</time>
      </trkpt>
      <trkpt lat="43.06925" lon="-0.04078">
        <ele>362.4</ele>
        <time>2018-06-23T14:43:59Z</time>
      </trkpt>
      <trkpt lat="43.06944" lon="-0.04084">
        <ele>364.19</ele>
        <time>2018-06-23T14:44:02Z</time>
      </trkpt>
      <trkpt lat="43.06968" lon="-0.04093">
        <ele>366.19</ele>
        <time>2018-06-23T14:44:06Z</time>
      </trkpt>
      <trkpt lat="43.06988" lon="-0.04093">
        <ele>368.12</ele>
        <time>2018-06-23T14:44:09Z</time>
      </trkpt>
      <trkpt lat="43.07011" lon="-0.04088">
        <ele>370.4</ele>
        <time>2018-06-23T14:44:13Z</time>
      </trkpt>
      <trkpt lat="43.07033" lon="-0.04081">
        <ele>371.43</ele>
        <time>2018-06-23T14:44:17Z</time>
      </trkpt>
      <trkpt lat="43.07045" lon="-0.04062">
        <ele>371.81</ele>
        <time>2018-06-23T14:44:21Z</time>
      </trkpt>
      <trkpt lat="43.07063" lon="-0.04054">
        <ele>373.2</ele>
        <time>2018-06-23T14:44:25Z</time>
      </trkpt>
      <trkpt lat="43.07082" lon="-0.04048">
        <ele>373.73</ele>
        <time>2018-06-23T14:44:30Z</time>
      </trkpt>
      <trkpt lat="43.07062" lon="-0.04044">
        <ele>371.21</ele>
        <time>2018-06-23T14:44:36Z</time>
      </trkpt>
      <trkpt lat="43.07042" lon="-0.0405">
        <ele>368.85</ele>
        <time>2018-06-23T14:44:40Z</time>
      </trkpt>
      <trkpt lat="43.0702" lon="-0.04059">
        <ele>368.44</ele>
        <time>2018-06-23T14:44:44Z</time>
      </trkpt>
      <trkpt lat="43.07" lon="-0.04071">
        <ele>368.52</ele>
        <time>2018-06-23T14:44:48Z</time>
      </trkpt>
      <trkpt lat="43.0698" lon="-0.04077">
        <ele>366.91</ele>
        <time>2018-06-23T14:44:52Z</time>
      </trkpt>
      <trkpt lat="43.06959" lon="-0.04079">
        <ele>364.77</ele>
        <time>2018-06-23T14:44:56Z</time>
      </trkpt>
      <trkpt lat="43.06937" lon="-0.0408">
        <ele>365.21</ele>
        <time>2018-06-23T14:45:00Z</time>
      </trkpt>
      <trkpt lat="43.06918" lon="-0.04079">
        <ele>367.4</ele>
        <time>2018-06-23T14:45:04Z</time>
      </trkpt>
      <trkpt lat="43.06897" lon="-0.04075">
        <ele>368.49</ele>
        <time>2018-06-23T14:45:08Z</time>
      </trkpt>
      <trkpt lat="43.06875" lon="-0.04068">
        <ele>371.19</ele>
        <time>2018-06-23T14:45:12Z</time>
      </trkpt>
      <trkpt lat="43.06859" lon="-0.04081">
        <ele>372.51</ele>
        <time>2018-06-23T14:45:16Z</time>
      </trkpt>
      <trkpt lat="43.06844" lon="-0.04102">
        <ele>368.95</ele>
        <time>2018-06-23T14:45:20Z</time>
      </trkpt>
      <trkpt lat="43.06834" lon="-0.04123">
        <ele>371.2</ele>
        <time>2018-06-23T14:45:23Z</time>
      </trkpt>
      <trkpt lat="43.0682" lon="-0.04146">
        <ele>370.54</ele>
        <time>2018-06-23T14:45:26Z</time>
      </trkpt>
      <trkpt lat="43.06812" lon="-0.0417">
        <ele>369.61</ele>
        <time>2018-06-23T14:45:29Z</time>
      </trkpt>
      <trkpt lat="43.06806" lon="-0.04201">
        <ele>372.12</ele>
        <time>2018-06-23T14:45:33Z</time>
      </trkpt>
      <trkpt lat="43.06802" lon="-0.04227">
        <ele>375.09</ele>
        <time>2018-06-23T14:45:36Z</time>
      </trkpt>
      <trkpt lat="43.06798" lon="-0.04252">
        <ele>378.09</ele>
        <time>2018-06-23T14:45:39Z</time>
      </trkpt>
      <trkpt lat="43.06804" lon="-0.04276">
        <ele>381.09</ele>
        <time>2018-06-23T14:45:42Z</time>
      </trkpt>
      <trkpt lat="43.06823" lon="-0.04293">
        <ele>383.21</ele>
        <time>2018-06-23T14:45:46Z</time>
      </trkpt>
      <trkpt lat="43.06841" lon="-0.04311">
        <ele>384.22</ele>
        <time>2018-06-23T14:45:50Z</time>
      </trkpt>
      <trkpt lat="43.06857" lon="-0.04331">
        <ele>384.52</ele>
        <time>2018-06-23T14:45:54Z</time>
      </trkpt>
      <trkpt lat="43.06873" lon="-0.04348">
        <ele>386.81</ele>
        <time>2018-06-23T14:46:00Z</time>
      </trkpt>
      <trkpt lat="43.0688" lon="-0.04375">
        <ele>387.43</ele>
        <time>2018-06-23T14:46:05Z</time>
      </trkpt>
      <trkpt lat="43.06889" lon="-0.04397">
        <ele>386.55</ele>
        <time>2018-06-23T14:46:09Z</time>
      </trkpt>
      <trkpt lat="43.069" lon="-0.04418">
        <ele>383.86</ele>
        <time>2018-06-23T14:46:13Z</time>
      </trkpt>
      <trkpt lat="43.06911" lon="-0.0444">
        <ele>381.62</ele>
        <time>2018-06-23T14:46:17Z</time>
      </trkpt>
      <trkpt lat="43.06924" lon="-0.04458">
        <ele>380.55</ele>
        <time>2018-06-23T14:46:21Z</time>
      </trkpt>
      <trkpt lat="43.0694" lon="-0.04474">
        <ele>382.21</ele>
        <time>2018-06-23T14:46:25Z</time>
      </trkpt>
      <trkpt lat="43.06957" lon="-0.04488">
        <ele>383.22</ele>
        <time>2018-06-23T14:46:29Z</time>
      </trkpt>
      <trkpt lat="43.06975" lon="-0.045">
        <ele>384.22</ele>
        <time>2018-06-23T14:46:33Z</time>
      </trkpt>
      <trkpt lat="43.06995" lon="-0.04503">
        <ele>383.53</ele>
        <time>2018-06-23T14:46:37Z</time>
      </trkpt>
      <trkpt lat="43.07014" lon="-0.04497">
        <ele>384.22</ele>
        <time>2018-06-23T14:46:41Z</time>
      </trkpt>
      <trkpt lat="43.07031" lon="-0.04487">
        <ele>384.46</ele>
        <time>2018-06-23T14:46:45Z</time>
      </trkpt>
      <trkpt lat="43.0705" lon="-0.04477">
        <ele>385.22</ele>
        <time>2018-06-23T14:46:49Z</time>
      </trkpt>
      <trkpt lat="43.07068" lon="-0.04465">
        <ele>386.43</ele>
        <time>2018-06-23T14:46:53Z</time>
      </trkpt>
      <trkpt lat="43.07087" lon="-0.04454">
        <ele>387.49</ele>
        <time>2018-06-23T14:46:57Z</time>
      </trkpt>
      <trkpt lat="43.07107" lon="-0.04447">
        <ele>388.43</ele>
        <time>2018-06-23T14:47:01Z</time>
      </trkpt>
      <trkpt lat="43.07127" lon="-0.04443">
        <ele>390.7</ele>
        <time>2018-06-23T14:47:05Z</time>
      </trkpt>
      <trkpt lat="43.07145" lon="-0.04451">
        <ele>390.52</ele>
        <time>2018-06-23T14:47:09Z</time>
      </trkpt>
      <trkpt lat="43.07162" lon="-0.04459">
        <ele>392.2</ele>
        <time>2018-06-23T14:47:13Z</time>
      </trkpt>
      <trkpt lat="43.07179" lon="-0.04472">
        <ele>392.52</ele>
        <time>2018-06-23T14:47:17Z</time>
      </trkpt>
      <trkpt lat="43.07197" lon="-0.04485">
        <ele>393.51</ele>
        <time>2018-06-23T14:47:21Z</time>
      </trkpt>
      <trkpt lat="43.07214" lon="-0.04498">
        <ele>393.95</ele>
        <time>2018-06-23T14:47:25Z</time>
      </trkpt>
      <trkpt lat="43.07233" lon="-0.04507">
        <ele>396.34</ele>
        <time>2018-06-23T14:47:29Z</time>
      </trkpt>
      <trkpt lat="43.0725" lon="-0.04514">
        <ele>395.55</ele>
        <time>2018-06-23T14:47:33Z</time>
      </trkpt>
      <trkpt lat="43.07266" lon="-0.04536">
        <ele>395.52</ele>
        <time>2018-06-23T14:47:38Z</time>
      </trkpt>
      <trkpt lat="43.07278" lon="-0.04555">
        <ele>395.52</ele>
        <time>2018-06-23T14:47:42Z</time>
      </trkpt>
      <trkpt lat="43.07293" lon="-0.04577">
        <ele>395.52</ele>
        <time>2018-06-23T14:47:47Z</time>
      </trkpt>
      <trkpt lat="43.07274" lon="-0.0457">
        <ele>398.51</ele>
        <time>2018-06-23T14:47:55Z</time>
      </trkpt>
      <trkpt lat="43.07257" lon="-0.04551">
        <ele>400.43</ele>
        <time>2018-06-23T14:48:00Z</time>
      </trkpt>
      <trkpt lat="43.07237" lon="-0.04539">
        <ele>401.52</ele>
        <time>2018-06-23T14:48:05Z</time>
      </trkpt>
      <trkpt lat="43.07217" lon="-0.04531">
        <ele>400.82</ele>
        <time>2018-06-23T14:48:10Z</time>
      </trkpt>
      <trkpt lat="43.07195" lon="-0.04525">
        <ele>399.55</ele>
        <time>2018-06-23T14:48:15Z</time>
      </trkpt>
      <trkpt lat="43.07173" lon="-0.04528">
        <ele>400.24</ele>
        <time>2018-06-23T14:48:20Z</time>
      </trkpt>
      <trkpt lat="43.07155" lon="-0.04535">
        <ele>400.52</ele>
        <time>2018-06-23T14:48:24Z</time>
      </trkpt>
      <trkpt lat="43.07137" lon="-0.04541">
        <ele>400.52</ele>
        <time>2018-06-23T14:48:28Z</time>
      </trkpt>
      <trkpt lat="43.07118" lon="-0.04547">
        <ele>400.52</ele>
        <time>2018-06-23T14:48:32Z</time>
      </trkpt>
      <trkpt lat="43.07099" lon="-0.04552">
        <ele>401.43</ele>
        <time>2018-06-23T14:48:36Z</time>
      </trkpt>
      <trkpt lat="43.07081" lon="-0.04562">
        <ele>403.13</ele>
        <time>2018-06-23T14:48:40Z</time>
      </trkpt>
      <trkpt lat="43.07061" lon="-0.04574">
        <ele>407.8</ele>
        <time>2018-06-23T14:48:45Z</time>
      </trkpt>
      <trkpt lat="43.07043" lon="-0.04588">
        <ele>415.06</ele>
        <time>2018-06-23T14:48:50Z</time>
      </trkpt>
      <trkpt lat="43.07025" lon="-0.04604">
        <ele>420.09</ele>
        <time>2018-06-23T14:48:55Z</time>
      </trkpt>
      <trkpt lat="43.07009" lon="-0.04624">
        <ele>425.09</ele>
        <time>2018-06-23T14:49:00Z</time>
      </trkpt>
      <trkpt lat="43.07004" lon="-0.04649">
        <ele>431.7</ele>
        <time>2018-06-23T14:49:05Z</time>
      </trkpt>
      <trkpt lat="43.06999" lon="-0.04675">
        <ele>437.77</ele>
        <time>2018-06-23T14:49:10Z</time>
      </trkpt>
      <trkpt lat="43.06991" lon="-0.04699">
        <ele>442.09</ele>
        <time>2018-06-23T14:49:14Z</time>
      </trkpt>
      <trkpt lat="43.06984" lon="-0.04722">
        <ele>446.39</ele>
        <time>2018-06-23T14:49:18Z</time>
      </trkpt>
      <trkpt lat="43.06973" lon="-0.04742">
        <ele>450.1</ele>
        <time>2018-06-23T14:49:22Z</time>
      </trkpt>
      <trkpt lat="43.0696" lon="-0.04761">
        <ele>451.49</ele>
        <time>2018-06-23T14:49:26Z</time>
      </trkpt>
      <trkpt lat="43.0694" lon="-0.04773">
        <ele>457.07</ele>
        <time>2018-06-23T14:49:31Z</time>
      </trkpt>
      <trkpt lat="43.06921" lon="-0.04786">
        <ele>454.92</ele>
        <time>2018-06-23T14:49:36Z</time>
      </trkpt>
      <trkpt lat="43.06909" lon="-0.04813">
        <ele>456.51</ele>
        <time>2018-06-23T14:49:41Z</time>
      </trkpt>
      <trkpt lat="43.06907" lon="-0.04844">
        <ele>456.52</ele>
        <time>2018-06-23T14:49:44Z</time>
      </trkpt>
      <trkpt lat="43.0691" lon="-0.0488">
        <ele>455.82</ele>
        <time>2018-06-23T14:49:47Z</time>
      </trkpt>
      <trkpt lat="43.06902" lon="-0.04903">
        <ele>453.94</ele>
        <time>2018-06-23T14:49:49Z</time>
      </trkpt>
      <trkpt lat="43.06884" lon="-0.04928">
        <ele>451.86</ele>
        <time>2018-06-23T14:49:52Z</time>
      </trkpt>
      <trkpt lat="43.06867" lon="-0.04942">
        <ele>451.47</ele>
        <time>2018-06-23T14:49:55Z</time>
      </trkpt>
      <trkpt lat="43.06847" lon="-0.0494">
        <ele>450.55</ele>
        <time>2018-06-23T14:50:00Z</time>
      </trkpt>
      <trkpt lat="43.06828" lon="-0.04931">
        <ele>452.22</ele>
        <time>2018-06-23T14:50:06Z</time>
      </trkpt>
      <trkpt lat="43.06811" lon="-0.04917">
        <ele>453.49</ele>
        <time>2018-06-23T14:50:11Z</time>
      </trkpt>
      <trkpt lat="43.06797" lon="-0.04897">
        <ele>454.22</ele>
        <time>2018-06-23T14:50:16Z</time>
      </trkpt>
      <trkpt lat="43.06781" lon="-0.04878">
        <ele>455.49</ele>
        <time>2018-06-23T14:50:21Z</time>
      </trkpt>
      <trkpt lat="43.06772" lon="-0.04854">
        <ele>457.43</ele>
        <time>2018-06-23T14:50:27Z</time>
      </trkpt>
      <trkpt lat="43.06761" lon="-0.04833">
        <ele>459.43</ele>
        <time>2018-06-23T14:50:34Z</time>
      </trkpt>
      <trkpt lat="43.0675" lon="-0.04814">
        <ele>460.49</ele>
        <time>2018-06-23T14:50:39Z</time>
      </trkpt>
      <trkpt lat="43.06738" lon="-0.0479">
        <ele>461.52</ele>
        <time>2018-06-23T14:50:45Z</time>
      </trkpt>
      <trkpt lat="43.0672" lon="-0.04778">
        <ele>461.82</ele>
        <time>2018-06-23T14:50:51Z</time>
      </trkpt>
      <trkpt lat="43.06702" lon="-0.04766">
        <ele>460.55</ele>
        <time>2018-06-23T14:50:56Z</time>
      </trkpt>
      <trkpt lat="43.06684" lon="-0.04753">
        <ele>458.83</ele>
        <time>2018-06-23T14:51:01Z</time>
      </trkpt>
      <trkpt lat="43.06667" lon="-0.04741">
        <ele>459.22</ele>
        <time>2018-06-23T14:51:06Z</time>
      </trkpt>
      <trkpt lat="43.06649" lon="-0.04732">
        <ele>460.43</ele>
        <time>2018-06-23T14:51:11Z</time>
      </trkpt>
      <trkpt lat="43.06629" lon="-0.04735">
        <ele>462.49</ele>
        <time>2018-06-23T14:51:17Z</time>
      </trkpt>
      <trkpt lat="43.06617" lon="-0.04754">
        <ele>464.51</ele>
        <time>2018-06-23T14:51:23Z</time>
      </trkpt>
      <trkpt lat="43.06614" lon="-0.04779">
        <ele>465.9</ele>
        <time>2018-06-23T14:51:28Z</time>
      </trkpt>
      <trkpt lat="43.06617" lon="-0.04808">
        <ele>468.19</ele>
        <time>2018-06-23T14:51:33Z</time>
      </trkpt>
      <trkpt lat="43.06621" lon="-0.04838">
        <ele>471.1</ele>
        <time>2018-06-23T14:51:37Z</time>
      </trkpt>
      <trkpt lat="43.06623" lon="-0.04864">
        <ele>472.48</ele>
        <time>2018-06-23T14:51:40Z</time>
      </trkpt>
      <trkpt lat="43.06618" lon="-0.049">
        <ele>472.52</ele>
        <time>2018-06-23T14:51:43Z</time>
      </trkpt>
      <trkpt lat="43.06609" lon="-0.0493">
        <ele>474.19</ele>
        <time>2018-06-23T14:51:46Z</time>
      </trkpt>
      <trkpt lat="43.066" lon="-0.04956">
        <ele>476.12</ele>
        <time>2018-06-23T14:51:49Z</time>
      </trkpt>
      <trkpt lat="43.06592" lon="-0.04982">
        <ele>477.42</ele>
        <time>2018-06-23T14:51:52Z</time>
      </trkpt>
      <trkpt lat="43.06576" lon="-0.05004">
        <ele>479.19</ele>
        <time>2018-06-23T14:51:55Z</time>
      </trkpt>
      <trkpt lat="43.06554" lon="-0.05002">
        <ele>481.4</ele>
        <time>2018-06-23T14:51:58Z</time>
      </trkpt>
      <trkpt lat="43.06536" lon="-0.04981">
        <ele>481.09</ele>
        <time>2018-06-23T14:52:02Z</time>
      </trkpt>
      <trkpt lat="43.06522" lon="-0.04959">
        <ele>480.46</ele>
        <time>2018-06-23T14:52:07Z</time>
      </trkpt>
      <trkpt lat="43.06507" lon="-0.04944">
        <ele>482.49</ele>
        <time>2018-06-23T14:52:13Z</time>
      </trkpt>
      <trkpt lat="43.06495" lon="-0.04924">
        <ele>484.43</ele>
        <time>2018-06-23T14:52:19Z</time>
      </trkpt>
      <trkpt lat="43.0649" lon="-0.04948">
        <ele>483.52</ele>
        <time>2018-06-23T14:53:21Z</time>
      </trkpt>
      <trkpt lat="43.06492" lon="-0.04974">
        <ele>488.19</ele>
        <time>2018-06-23T14:53:56Z</time>
      </trkpt>
      <trkpt lat="43.0649" lon="-0.05">
        <ele>498.39</ele>
        <time>2018-06-23T14:54:07Z</time>
      </trkpt>
      <trkpt lat="43.06483" lon="-0.04975">
        <ele>507.12</ele>
        <time>2018-06-23T14:54:41Z</time>
      </trkpt>
      <trkpt lat="43.06477" lon="-0.04952">
        <ele>511.42</ele>
        <time>2018-06-23T14:54:50Z</time>
      </trkpt>
      <trkpt lat="43.06466" lon="-0.04931">
        <ele>518.12</ele>
        <time>2018-06-23T14:55:00Z</time>
      </trkpt>
      <trkpt lat="43.06454" lon="-0.04911">
        <ele>523.42</ele>
        <time>2018-06-23T14:55:09Z</time>
      </trkpt>
      <trkpt lat="43.0644" lon="-0.04895">
        <ele>535.13</ele>
        <time>2018-06-23T14:55:28Z</time>
      </trkpt>
      <trkpt lat="43.06422" lon="-0.04885">
        <ele>543.13</ele>
        <time>2018-06-23T14:55:50Z</time>
      </trkpt>
      <trkpt lat="43.06405" lon="-0.04874">
        <ele>545.52</ele>
        <time>2018-06-23T14:55:59Z</time>
      </trkpt>
      <trkpt lat="43.06388" lon="-0.04866">
        <ele>547.22</ele>
        <time>2018-06-23T14:56:06Z</time>
      </trkpt>
      <trkpt lat="43.0637" lon="-0.04855">
        <ele>554.09</ele>
        <time>2018-06-23T14:56:13Z</time>
      </trkpt>
      <trkpt lat="43.0635" lon="-0.04856">
        <ele>560.49</ele>
        <time>2018-06-23T14:56:23Z</time>
      </trkpt>
      <trkpt lat="43.06332" lon="-0.04866">
        <ele>562.22</ele>
        <time>2018-06-23T14:56:31Z</time>
      </trkpt>
      <trkpt lat="43.06316" lon="-0.04877">
        <ele>564.22</ele>
        <time>2018-06-23T14:56:39Z</time>
      </trkpt>
      <trkpt lat="43.06305" lon="-0.04897">
        <ele>565.52</ele>
        <time>2018-06-23T14:56:47Z</time>
      </trkpt>
      <trkpt lat="43.06312" lon="-0.04921">
        <ele>569.49</ele>
        <time>2018-06-23T14:56:58Z</time>
      </trkpt>
      <trkpt lat="43.06327" lon="-0.04935">
        <ele>570.51</ele>
        <time>2018-06-23T14:57:06Z</time>
      </trkpt>
      <trkpt lat="43.06344" lon="-0.04948">
        <ele>573.43</ele>
        <time>2018-06-23T14:57:15Z</time>
      </trkpt>
      <trkpt lat="43.06361" lon="-0.04961">
        <ele>574.21</ele>
        <time>2018-06-23T14:57:24Z</time>
      </trkpt>
      <trkpt lat="43.06376" lon="-0.04978">
        <ele>576.21</ele>
        <time>2018-06-23T14:57:32Z</time>
      </trkpt>
      <trkpt lat="43.06392" lon="-0.04995">
        <ele>580.21</ele>
        <time>2018-06-23T14:57:40Z</time>
      </trkpt>
      <trkpt lat="43.06407" lon="-0.05012">
        <ele>582.51</ele>
        <time>2018-06-23T14:57:47Z</time>
      </trkpt>
      <trkpt lat="43.0642" lon="-0.05032">
        <ele>586.19</ele>
        <time>2018-06-23T14:57:55Z</time>
      </trkpt>
      <trkpt lat="43.06429" lon="-0.05056">
        <ele>589.19</ele>
        <time>2018-06-23T14:58:04Z</time>
      </trkpt>
      <trkpt lat="43.06436" lon="-0.05081">
        <ele>590.52</ele>
        <time>2018-06-23T14:58:10Z</time>
      </trkpt>
      <trkpt lat="43.06442" lon="-0.05104">
        <ele>591.31</ele>
        <time>2018-06-23T14:58:16Z</time>
      </trkpt>
      <trkpt lat="43.06449" lon="-0.05129">
        <ele>591.52</ele>
        <time>2018-06-23T14:58:22Z</time>
      </trkpt>
      <trkpt lat="43.06454" lon="-0.05155">
        <ele>593.51</ele>
        <time>2018-06-23T14:58:28Z</time>
      </trkpt>
      <trkpt lat="43.06458" lon="-0.05184">
        <ele>593.43</ele>
        <time>2018-06-23T14:58:34Z</time>
      </trkpt>
      <trkpt lat="43.06461" lon="-0.05211">
        <ele>594.41</ele>
        <time>2018-06-23T14:58:40Z</time>
      </trkpt>
      <trkpt lat="43.06464" lon="-0.05238">
        <ele>597.21</ele>
        <time>2018-06-23T14:58:46Z</time>
      </trkpt>
      <trkpt lat="43.06471" lon="-0.05266">
        <ele>600.31</ele>
        <time>2018-06-23T14:58:52Z</time>
      </trkpt>
      <trkpt lat="43.06475" lon="-0.0529">
        <ele>597.66</ele>
        <time>2018-06-23T14:58:57Z</time>
      </trkpt>
      <trkpt lat="43.06477" lon="-0.05316">
        <ele>596.82</ele>
        <time>2018-06-23T14:59:01Z</time>
      </trkpt>
      <trkpt lat="43.06473" lon="-0.05343">
        <ele>594.62</ele>
        <time>2018-06-23T14:59:05Z</time>
      </trkpt>
      <trkpt lat="43.06472" lon="-0.05374">
        <ele>593.53</ele>
        <time>2018-06-23T14:59:09Z</time>
      </trkpt>
      <trkpt lat="43.06482" lon="-0.05396">
        <ele>594.5</ele>
        <time>2018-06-23T14:59:12Z</time>
      </trkpt>
      <trkpt lat="43.06499" lon="-0.05407">
        <ele>594.52</ele>
        <time>2018-06-23T14:59:15Z</time>
      </trkpt>
      <trkpt lat="43.06518" lon="-0.05409">
        <ele>593.55</ele>
        <time>2018-06-23T14:59:18Z</time>
      </trkpt>
      <trkpt lat="43.06542" lon="-0.05416">
        <ele>594.16</ele>
        <time>2018-06-23T14:59:21Z</time>
      </trkpt>
      <trkpt lat="43.06563" lon="-0.05434">
        <ele>593.54</ele>
        <time>2018-06-23T14:59:24Z</time>
      </trkpt>
      <trkpt lat="43.06579" lon="-0.05462">
        <ele>591.64</ele>
        <time>2018-06-23T14:59:27Z</time>
      </trkpt>
      <trkpt lat="43.06599" lon="-0.05487">
        <ele>588.03</ele>
        <time>2018-06-23T14:59:30Z</time>
      </trkpt>
      <trkpt lat="43.06613" lon="-0.05502">
        <ele>585.26</ele>
        <time>2018-06-23T14:59:32Z</time>
      </trkpt>
      <trkpt lat="43.06632" lon="-0.05525">
        <ele>581.69</ele>
        <time>2018-06-23T14:59:35Z</time>
      </trkpt>
      <trkpt lat="43.06643" lon="-0.05545">
        <ele>579.64</ele>
        <time>2018-06-23T14:59:38Z</time>
      </trkpt>
      <trkpt lat="43.06654" lon="-0.05572">
        <ele>582.11</ele>
        <time>2018-06-23T14:59:42Z</time>
      </trkpt>
      <trkpt lat="43.06659" lon="-0.05596">
        <ele>583.48</ele>
        <time>2018-06-23T14:59:45Z</time>
      </trkpt>
      <trkpt lat="43.06665" lon="-0.05621">
        <ele>584.22</ele>
        <time>2018-06-23T14:59:48Z</time>
      </trkpt>
      <trkpt lat="43.06672" lon="-0.05649">
        <ele>585.21</ele>
        <time>2018-06-23T14:59:51Z</time>
      </trkpt>
      <trkpt lat="43.0667" lon="-0.05682">
        <ele>582.29</ele>
        <time>2018-06-23T14:59:54Z</time>
      </trkpt>
      <trkpt lat="43.06661" lon="-0.05703">
        <ele>580.68</ele>
        <time>2018-06-23T14:59:56Z</time>
      </trkpt>
      <trkpt lat="43.06649" lon="-0.05722">
        <ele>577.32</ele>
        <time>2018-06-23T14:59:58Z</time>
      </trkpt>
      <trkpt lat="43.06635" lon="-0.05752">
        <ele>572.35</ele>
        <time>2018-06-23T15:00:01Z</time>
      </trkpt>
      <trkpt lat="43.06628" lon="-0.05778">
        <ele>568.75</ele>
        <time>2018-06-23T15:00:04Z</time>
      </trkpt>
      <trkpt lat="43.06638" lon="-0.05804">
        <ele>565.65</ele>
        <time>2018-06-23T15:00:08Z</time>
      </trkpt>
      <trkpt lat="43.06662" lon="-0.05807">
        <ele>565.53</ele>
        <time>2018-06-23T15:00:11Z</time>
      </trkpt>
      <trkpt lat="43.06686" lon="-0.05812">
        <ele>563.85</ele>
        <time>2018-06-23T15:00:14Z</time>
      </trkpt>
      <trkpt lat="43.06704" lon="-0.05826">
        <ele>560.95</ele>
        <time>2018-06-23T15:00:17Z</time>
      </trkpt>
      <trkpt lat="43.06717" lon="-0.0585">
        <ele>559.53</ele>
        <time>2018-06-23T15:00:21Z</time>
      </trkpt>
      <trkpt lat="43.06698" lon="-0.05856">
        <ele>560.22</ele>
        <time>2018-06-23T15:00:24Z</time>
      </trkpt>
      <trkpt lat="43.06676" lon="-0.05853">
        <ele>561.42</ele>
        <time>2018-06-23T15:00:27Z</time>
      </trkpt>
      <trkpt lat="43.06686" lon="-0.05882">
        <ele>558.95</ele>
        <time>2018-06-23T15:00:35Z</time>
      </trkpt>
      <trkpt lat="43.06702" lon="-0.05901">
        <ele>555.95</ele>
        <time>2018-06-23T15:00:38Z</time>
      </trkpt>
      <trkpt lat="43.06711" lon="-0.05927">
        <ele>553.62</ele>
        <time>2018-06-23T15:00:42Z</time>
      </trkpt>
      <trkpt lat="43.0669" lon="-0.05923">
        <ele>552.76</ele>
        <time>2018-06-23T15:00:46Z</time>
      </trkpt>
      <trkpt lat="43.06681" lon="-0.05948">
        <ele>549.18</ele>
        <time>2018-06-23T15:00:51Z</time>
      </trkpt>
      <trkpt lat="43.06677" lon="-0.05981">
        <ele>544.35</ele>
        <time>2018-06-23T15:00:54Z</time>
      </trkpt>
      <trkpt lat="43.06671" lon="-0.06005">
        <ele>540.38</ele>
        <time>2018-06-23T15:00:56Z</time>
      </trkpt>
      <trkpt lat="43.0666" lon="-0.06032">
        <ele>538.69</ele>
        <time>2018-06-23T15:00:58Z</time>
      </trkpt>
      <trkpt lat="43.06644" lon="-0.06049">
        <ele>537.14</ele>
        <time>2018-06-23T15:01:00Z</time>
      </trkpt>
      <trkpt lat="43.06625" lon="-0.06065">
        <ele>533.57</ele>
        <time>2018-06-23T15:01:02Z</time>
      </trkpt>
      <trkpt lat="43.06611" lon="-0.06081">
        <ele>530.31</ele>
        <time>2018-06-23T15:01:04Z</time>
      </trkpt>
      <trkpt lat="43.06602" lon="-0.06104">
        <ele>530.29</ele>
        <time>2018-06-23T15:01:06Z</time>
      </trkpt>
      <trkpt lat="43.066" lon="-0.0613">
        <ele>531.2</ele>
        <time>2018-06-23T15:01:08Z</time>
      </trkpt>
      <trkpt lat="43.06613" lon="-0.06151">
        <ele>534.31</ele>
        <time>2018-06-23T15:01:11Z</time>
      </trkpt>
      <trkpt lat="43.06632" lon="-0.0616">
        <ele>532.84</ele>
        <time>2018-06-23T15:01:14Z</time>
      </trkpt>
      <trkpt lat="43.06653" lon="-0.0617">
        <ele>528.97</ele>
        <time>2018-06-23T15:01:17Z</time>
      </trkpt>
      <trkpt lat="43.06719" lon="-0.06215">
        <ele>519.86</ele>
        <time>2018-06-23T15:01:29Z</time>
      </trkpt>
      <trkpt lat="43.06731" lon="-0.06233">
        <ele>519.22</ele>
        <time>2018-06-23T15:01:39Z</time>
      </trkpt>
      <trkpt lat="43.06733" lon="-0.06259">
        <ele>525.38</ele>
        <time>2018-06-23T15:01:47Z</time>
      </trkpt>
      <trkpt lat="43.06735" lon="-0.06286">
        <ele>525.86</ele>
        <time>2018-06-23T15:01:55Z</time>
      </trkpt>
      <trkpt lat="43.06734" lon="-0.06315">
        <ele>517.65</ele>
        <time>2018-06-23T15:02:02Z</time>
      </trkpt>
      <trkpt lat="43.06737" lon="-0.06343">
        <ele>514.53</ele>
        <time>2018-06-23T15:02:09Z</time>
      </trkpt>
      <trkpt lat="43.06739" lon="-0.0637">
        <ele>514.43</ele>
        <time>2018-06-23T15:02:16Z</time>
      </trkpt>
      <trkpt lat="43.06742" lon="-0.06398">
        <ele>516.43</ele>
        <time>2018-06-23T15:02:23Z</time>
      </trkpt>
      <trkpt lat="43.06746" lon="-0.06422">
        <ele>516.52</ele>
        <time>2018-06-23T15:02:29Z</time>
      </trkpt>
      <trkpt lat="43.06751" lon="-0.06448">
        <ele>517.52</ele>
        <time>2018-06-23T15:02:36Z</time>
      </trkpt>
      <trkpt lat="43.06748" lon="-0.06474">
        <ele>516.62</ele>
        <time>2018-06-23T15:02:41Z</time>
      </trkpt>
      <trkpt lat="43.06745" lon="-0.065">
        <ele>515.23</ele>
        <time>2018-06-23T15:02:46Z</time>
      </trkpt>
      <trkpt lat="43.06767" lon="-0.06507">
        <ele>516.92</ele>
        <time>2018-06-23T15:02:51Z</time>
      </trkpt>
      <trkpt lat="43.0679" lon="-0.06511">
        <ele>520.18</ele>
        <time>2018-06-23T15:02:55Z</time>
      </trkpt>
      <trkpt lat="43.06806" lon="-0.06527">
        <ele>521.51</ele>
        <time>2018-06-23T15:02:59Z</time>
      </trkpt>
      <trkpt lat="43.06813" lon="-0.06551">
        <ele>521.52</ele>
        <time>2018-06-23T15:03:05Z</time>
      </trkpt>
      <trkpt lat="43.06823" lon="-0.06572">
        <ele>522.23</ele>
        <time>2018-06-23T15:03:12Z</time>
      </trkpt>
      <trkpt lat="43.06836" lon="-0.06592">
        <ele>521.82</ele>
        <time>2018-06-23T15:03:19Z</time>
      </trkpt>
      <trkpt lat="43.06848" lon="-0.06614">
        <ele>519.62</ele>
        <time>2018-06-23T15:03:26Z</time>
      </trkpt>
      <trkpt lat="43.06861" lon="-0.06632">
        <ele>516.61</ele>
        <time>2018-06-23T15:03:34Z</time>
      </trkpt>
      <trkpt lat="43.06872" lon="-0.06651">
        <ele>515.52</ele>
        <time>2018-06-23T15:03:43Z</time>
      </trkpt>
      <trkpt lat="43.06884" lon="-0.06672">
        <ele>514.52</ele>
        <time>2018-06-23T15:03:56Z</time>
      </trkpt>
      <trkpt lat="43.06895" lon="-0.06722">
        <ele>515.35</ele>
        <time>2018-06-23T15:04:13Z</time>
      </trkpt>
      <trkpt lat="43.06914" lon="-0.06719">
        <ele>494.49</ele>
        <time>2018-06-23T15:04:28Z</time>
      </trkpt>
      <trkpt lat="43.06909" lon="-0.06745">
        <ele>485.65</ele>
        <time>2018-06-23T15:04:44Z</time>
      </trkpt>
      <trkpt lat="43.06899" lon="-0.0677">
        <ele>484.53</ele>
        <time>2018-06-23T15:04:51Z</time>
      </trkpt>
      <trkpt lat="43.06891" lon="-0.06793">
        <ele>486.49</ele>
        <time>2018-06-23T15:04:57Z</time>
      </trkpt>
      <trkpt lat="43.06876" lon="-0.06812">
        <ele>484.61</ele>
        <time>2018-06-23T15:05:02Z</time>
      </trkpt>
      <trkpt lat="43.06863" lon="-0.06832">
        <ele>486.49</ele>
        <time>2018-06-23T15:05:07Z</time>
      </trkpt>
      <trkpt lat="43.06849" lon="-0.06847">
        <ele>486.43</ele>
        <time>2018-06-23T15:05:12Z</time>
      </trkpt>
      <trkpt lat="43.06836" lon="-0.06864">
        <ele>486.52</ele>
        <time>2018-06-23T15:05:16Z</time>
      </trkpt>
      <trkpt lat="43.06822" lon="-0.06886">
        <ele>486.53</ele>
        <time>2018-06-23T15:05:21Z</time>
      </trkpt>
      <trkpt lat="43.06807" lon="-0.06907">
        <ele>488.22</ele>
        <time>2018-06-23T15:05:27Z</time>
      </trkpt>
      <trkpt lat="43.06796" lon="-0.06926">
        <ele>488.52</ele>
        <time>2018-06-23T15:05:33Z</time>
      </trkpt>
      <trkpt lat="43.06782" lon="-0.06947">
        <ele>488.52</ele>
        <time>2018-06-23T15:05:38Z</time>
      </trkpt>
      <trkpt lat="43.0677" lon="-0.0697">
        <ele>488.52</ele>
        <time>2018-06-23T15:05:44Z</time>
      </trkpt>
      <trkpt lat="43.06758" lon="-0.06996">
        <ele>489.43</ele>
        <time>2018-06-23T15:05:49Z</time>
      </trkpt>
      <trkpt lat="43.06747" lon="-0.07016">
        <ele>494.01</ele>
        <time>2018-06-23T15:05:53Z</time>
      </trkpt>
      <trkpt lat="43.06737" lon="-0.07042">
        <ele>496.43</ele>
        <time>2018-06-23T15:05:58Z</time>
      </trkpt>
      <trkpt lat="43.06732" lon="-0.07069">
        <ele>497.22</ele>
        <time>2018-06-23T15:06:03Z</time>
      </trkpt>
      <trkpt lat="43.06736" lon="-0.07094">
        <ele>499.49</ele>
        <time>2018-06-23T15:06:08Z</time>
      </trkpt>
      <trkpt lat="43.06744" lon="-0.07121">
        <ele>501.49</ele>
        <time>2018-06-23T15:06:13Z</time>
      </trkpt>
      <trkpt lat="43.06752" lon="-0.07148">
        <ele>502.22</ele>
        <time>2018-06-23T15:06:18Z</time>
      </trkpt>
      <trkpt lat="43.06759" lon="-0.07174">
        <ele>505.4</ele>
        <time>2018-06-23T15:06:23Z</time>
      </trkpt>
      <trkpt lat="43.06767" lon="-0.07201">
        <ele>509.18</ele>
        <time>2018-06-23T15:06:28Z</time>
      </trkpt>
      <trkpt lat="43.06778" lon="-0.07227">
        <ele>512.21</ele>
        <time>2018-06-23T15:06:33Z</time>
      </trkpt>
      <trkpt lat="43.06792" lon="-0.07249">
        <ele>513.92</ele>
        <time>2018-06-23T15:06:37Z</time>
      </trkpt>
      <trkpt lat="43.06808" lon="-0.07272">
        <ele>521.75</ele>
        <time>2018-06-23T15:06:41Z</time>
      </trkpt>
      <trkpt lat="43.06819" lon="-0.07294">
        <ele>526.79</ele>
        <time>2018-06-23T15:06:45Z</time>
      </trkpt>
      <trkpt lat="43.06831" lon="-0.07314">
        <ele>531.3</ele>
        <time>2018-06-23T15:06:49Z</time>
      </trkpt>
      <trkpt lat="43.0684" lon="-0.07335">
        <ele>533.21</ele>
        <time>2018-06-23T15:06:53Z</time>
      </trkpt>
      <trkpt lat="43.06851" lon="-0.07356">
        <ele>536.39</ele>
        <time>2018-06-23T15:06:57Z</time>
      </trkpt>
      <trkpt lat="43.06862" lon="-0.07376">
        <ele>537.22</ele>
        <time>2018-06-23T15:07:01Z</time>
      </trkpt>
      <trkpt lat="43.06878" lon="-0.07396">
        <ele>537.54</ele>
        <time>2018-06-23T15:07:06Z</time>
      </trkpt>
      <trkpt lat="43.06895" lon="-0.07413">
        <ele>537.52</ele>
        <time>2018-06-23T15:07:11Z</time>
      </trkpt>
      <trkpt lat="43.06912" lon="-0.07431">
        <ele>536.55</ele>
        <time>2018-06-23T15:07:16Z</time>
      </trkpt>
      <trkpt lat="43.06929" lon="-0.07451">
        <ele>537.31</ele>
        <time>2018-06-23T15:07:21Z</time>
      </trkpt>
      <trkpt lat="43.06944" lon="-0.07467">
        <ele>535.85</ele>
        <time>2018-06-23T15:07:25Z</time>
      </trkpt>
      <trkpt lat="43.06961" lon="-0.07484">
        <ele>535.44</ele>
        <time>2018-06-23T15:07:30Z</time>
      </trkpt>
      <trkpt lat="43.06977" lon="-0.075">
        <ele>536.43</ele>
        <time>2018-06-23T15:07:34Z</time>
      </trkpt>
      <trkpt lat="43.06992" lon="-0.07514">
        <ele>537.22</ele>
        <time>2018-06-23T15:07:38Z</time>
      </trkpt>
      <trkpt lat="43.07006" lon="-0.07531">
        <ele>537.52</ele>
        <time>2018-06-23T15:07:42Z</time>
      </trkpt>
      <trkpt lat="43.07019" lon="-0.07551">
        <ele>539.22</ele>
        <time>2018-06-23T15:07:47Z</time>
      </trkpt>
      <trkpt lat="43.07034" lon="-0.07566">
        <ele>539.52</ele>
        <time>2018-06-23T15:07:54Z</time>
      </trkpt>
      <trkpt lat="43.07047" lon="-0.07541">
        <ele>537.82</ele>
        <time>2018-06-23T15:08:00Z</time>
      </trkpt>
      <trkpt lat="43.07065" lon="-0.07525">
        <ele>536.61</ele>
        <time>2018-06-23T15:08:04Z</time>
      </trkpt>
      <trkpt lat="43.0709" lon="-0.07523">
        <ele>538.34</ele>
        <time>2018-06-23T15:08:07Z</time>
      </trkpt>
      <trkpt lat="43.07116" lon="-0.07521">
        <ele>535.02</ele>
        <time>2018-06-23T15:08:10Z</time>
      </trkpt>
      <trkpt lat="43.07135" lon="-0.07521">
        <ele>533.66</ele>
        <time>2018-06-23T15:08:12Z</time>
      </trkpt>
      <trkpt lat="43.07153" lon="-0.07518">
        <ele>531.22</ele>
        <time>2018-06-23T15:08:14Z</time>
      </trkpt>
      <trkpt lat="43.07179" lon="-0.07516">
        <ele>531.24</ele>
        <time>2018-06-23T15:08:17Z</time>
      </trkpt>
      <trkpt lat="43.07199" lon="-0.07515">
        <ele>529.36</ele>
        <time>2018-06-23T15:08:20Z</time>
      </trkpt>
      <trkpt lat="43.0722" lon="-0.07509">
        <ele>530.7</ele>
        <time>2018-06-23T15:08:23Z</time>
      </trkpt>
      <trkpt lat="43.07244" lon="-0.07498">
        <ele>531.5</ele>
        <time>2018-06-23T15:08:26Z</time>
      </trkpt>
      <trkpt lat="43.07269" lon="-0.07488">
        <ele>532.43</ele>
        <time>2018-06-23T15:08:29Z</time>
      </trkpt>
      <trkpt lat="43.07292" lon="-0.07476">
        <ele>535.1</ele>
        <time>2018-06-23T15:08:32Z</time>
      </trkpt>
      <trkpt lat="43.07308" lon="-0.07455">
        <ele>534.81</ele>
        <time>2018-06-23T15:08:35Z</time>
      </trkpt>
      <trkpt lat="43.0732" lon="-0.07427">
        <ele>533.83</ele>
        <time>2018-06-23T15:08:38Z</time>
      </trkpt>
      <trkpt lat="43.07335" lon="-0.07404">
        <ele>532.89</ele>
        <time>2018-06-23T15:08:41Z</time>
      </trkpt>
      <trkpt lat="43.07355" lon="-0.07387">
        <ele>530.58</ele>
        <time>2018-06-23T15:08:45Z</time>
      </trkpt>
      <trkpt lat="43.07374" lon="-0.0738">
        <ele>530.46</ele>
        <time>2018-06-23T15:08:48Z</time>
      </trkpt>
      <trkpt lat="43.07391" lon="-0.07366">
        <ele>529.53</ele>
        <time>2018-06-23T15:08:52Z</time>
      </trkpt>
      <trkpt lat="43.07402" lon="-0.07343">
        <ele>528.61</ele>
        <time>2018-06-23T15:08:56Z</time>
      </trkpt>
      <trkpt lat="43.0741" lon="-0.07318">
        <ele>528.59</ele>
        <time>2018-06-23T15:09:00Z</time>
      </trkpt>
      <trkpt lat="43.07417" lon="-0.07295">
        <ele>524.63</ele>
        <time>2018-06-23T15:09:05Z</time>
      </trkpt>
      <trkpt lat="43.07426" lon="-0.07269">
        <ele>518.98</ele>
        <time>2018-06-23T15:09:10Z</time>
      </trkpt>
      <trkpt lat="43.07447" lon="-0.07266">
        <ele>514.95</ele>
        <time>2018-06-23T15:09:14Z</time>
      </trkpt>
      <trkpt lat="43.07465" lon="-0.07265">
        <ele>513.62</ele>
        <time>2018-06-23T15:09:17Z</time>
      </trkpt>
      <trkpt lat="43.07482" lon="-0.07251">
        <ele>511.21</ele>
        <time>2018-06-23T15:09:22Z</time>
      </trkpt>
      <trkpt lat="43.07488" lon="-0.07224">
        <ele>509.53</ele>
        <time>2018-06-23T15:09:27Z</time>
      </trkpt>
      <trkpt lat="43.07488" lon="-0.07199">
        <ele>509.52</ele>
        <time>2018-06-23T15:09:32Z</time>
      </trkpt>
      <trkpt lat="43.07494" lon="-0.07172">
        <ele>509.52</ele>
        <time>2018-06-23T15:09:37Z</time>
      </trkpt>
      <trkpt lat="43.07506" lon="-0.07148">
        <ele>508.55</ele>
        <time>2018-06-23T15:09:42Z</time>
      </trkpt>
      <trkpt lat="43.07518" lon="-0.07125">
        <ele>508.8</ele>
        <time>2018-06-23T15:09:47Z</time>
      </trkpt>
      <trkpt lat="43.07521" lon="-0.07099">
        <ele>509.22</ele>
        <time>2018-06-23T15:09:53Z</time>
      </trkpt>
      <trkpt lat="43.07526" lon="-0.07073">
        <ele>507.53</ele>
        <time>2018-06-23T15:09:59Z</time>
      </trkpt>
      <trkpt lat="43.07546" lon="-0.0707">
        <ele>505.61</ele>
        <time>2018-06-23T15:10:05Z</time>
      </trkpt>
      <trkpt lat="43.07564" lon="-0.07072">
        <ele>501.83</ele>
        <time>2018-06-23T15:10:14Z</time>
      </trkpt>
      <trkpt lat="43.07579" lon="-0.07087">
        <ele>499.53</ele>
        <time>2018-06-23T15:10:21Z</time>
      </trkpt>
      <trkpt lat="43.076" lon="-0.07077">
        <ele>497.52</ele>
        <time>2018-06-23T15:10:29Z</time>
      </trkpt>
    </trkseg>
  </trk>
</gpx>